<?xml version="1.0" encoding="UTF-8" standalone="no" ?>
<gpx xmlns="http://www.topografix.com/GPX/1/1" xmlns:xsi="http://www.w3.org/2001/XMLSchema-instance" xsi:schemaLocation="http://www.topografix.com/GPX/1/1 http://www.topografix.com/GPX/1/1/gpx.xsd" version="1.1" creator="VisuGPX - https://www.visugpx.com">
  <metadata>
    <name>Les pass\'portes du Soleil</name>
    <desc><![CDATA[La randonnée VTT des pass\'portes du Soleil]]></desc>
  </metadata>
  <trk>
    <name><![CDATA[Les pass\'portes du Soleil_1]]></name>
    <trkseg>
      <trkpt lat="46.30595" lon="6.85586">
        <ele>1555</ele>
        <time>2011-06-26T06:16:25Z</time>
      </trkpt>
      <trkpt lat="46.30626" lon="6.85593">
        <ele>1552</ele>
        <time>2011-06-26T06:16:39Z</time>
      </trkpt>
      <trkpt lat="46.30658" lon="6.85623">
        <ele>1549</ele>
        <time>2011-06-26T06:16:49Z</time>
      </trkpt>
      <trkpt lat="46.30666" lon="6.85654">
        <ele>1548</ele>
        <time>2011-06-26T06:16:59Z</time>
      </trkpt>
      <trkpt lat="46.3066" lon="6.85676">
        <ele>1545</ele>
        <time>2011-06-26T06:17:09Z</time>
      </trkpt>
      <trkpt lat="46.30652" lon="6.85696">
        <ele>1543</ele>
        <time>2011-06-26T06:17:20Z</time>
      </trkpt>
      <trkpt lat="46.30621" lon="6.85755">
        <ele>1536</ele>
        <time>2011-06-26T06:17:30Z</time>
      </trkpt>
      <trkpt lat="46.30613" lon="6.8583">
        <ele>1527</ele>
        <time>2011-06-26T06:17:41Z</time>
      </trkpt>
      <trkpt lat="46.30621" lon="6.85922">
        <ele>1519</ele>
        <time>2011-06-26T06:17:51Z</time>
      </trkpt>
      <trkpt lat="46.30652" lon="6.85999">
        <ele>1508</ele>
        <time>2011-06-26T06:18:02Z</time>
      </trkpt>
      <trkpt lat="46.30664" lon="6.85968">
        <ele>1502</ele>
        <time>2011-06-26T06:18:12Z</time>
      </trkpt>
      <trkpt lat="46.3068" lon="6.85874">
        <ele>1493</ele>
        <time>2011-06-26T06:18:23Z</time>
      </trkpt>
      <trkpt lat="46.3072" lon="6.85802">
        <ele>1486</ele>
        <time>2011-06-26T06:18:33Z</time>
      </trkpt>
      <trkpt lat="46.3078" lon="6.85736">
        <ele>1476</ele>
        <time>2011-06-26T06:18:44Z</time>
      </trkpt>
      <trkpt lat="46.30822" lon="6.85661">
        <ele>1466</ele>
        <time>2011-06-26T06:18:54Z</time>
      </trkpt>
      <trkpt lat="46.30824" lon="6.85584">
        <ele>1448</ele>
        <time>2011-06-26T06:19:04Z</time>
      </trkpt>
      <trkpt lat="46.30785" lon="6.85487">
        <ele>1434</ele>
        <time>2011-06-26T06:19:15Z</time>
      </trkpt>
      <trkpt lat="46.30741" lon="6.85418">
        <ele>1424</ele>
        <time>2011-06-26T06:19:25Z</time>
      </trkpt>
      <trkpt lat="46.30671" lon="6.85362">
        <ele>1417</ele>
        <time>2011-06-26T06:19:36Z</time>
      </trkpt>
      <trkpt lat="46.30649" lon="6.85348">
        <ele>1416</ele>
        <time>2011-06-26T06:19:47Z</time>
      </trkpt>
      <trkpt lat="46.30637" lon="6.8534">
        <ele>1416</ele>
        <time>2011-06-26T06:19:57Z</time>
      </trkpt>
      <trkpt lat="46.30585" lon="6.85309">
        <ele>1414</ele>
        <time>2011-06-26T06:20:08Z</time>
      </trkpt>
      <trkpt lat="46.30539" lon="6.85271">
        <ele>1408</ele>
        <time>2011-06-26T06:20:19Z</time>
      </trkpt>
      <trkpt lat="46.30489" lon="6.85239">
        <ele>1404</ele>
        <time>2011-06-26T06:20:30Z</time>
      </trkpt>
      <trkpt lat="46.3045" lon="6.85203">
        <ele>1401</ele>
        <time>2011-06-26T06:20:40Z</time>
      </trkpt>
      <trkpt lat="46.30391" lon="6.85156">
        <ele>1391</ele>
        <time>2011-06-26T06:20:51Z</time>
      </trkpt>
      <trkpt lat="46.30326" lon="6.85134">
        <ele>1381</ele>
        <time>2011-06-26T06:21:01Z</time>
      </trkpt>
      <trkpt lat="46.30373" lon="6.85113">
        <ele>1372</ele>
        <time>2011-06-26T06:21:11Z</time>
      </trkpt>
      <trkpt lat="46.30432" lon="6.85106">
        <ele>1362</ele>
        <time>2011-06-26T06:21:21Z</time>
      </trkpt>
      <trkpt lat="46.30494" lon="6.85083">
        <ele>1356</ele>
        <time>2011-06-26T06:21:31Z</time>
      </trkpt>
      <trkpt lat="46.3054" lon="6.85092">
        <ele>1349</ele>
        <time>2011-06-26T06:21:41Z</time>
      </trkpt>
      <trkpt lat="46.30546" lon="6.85104">
        <ele>1348</ele>
        <time>2011-06-26T06:21:53Z</time>
      </trkpt>
      <trkpt lat="46.30542" lon="6.851">
        <ele>1344</ele>
        <time>2011-06-26T06:22:06Z</time>
      </trkpt>
      <trkpt lat="46.30541" lon="6.85105">
        <ele>1347</ele>
        <time>2011-06-26T06:22:17Z</time>
      </trkpt>
      <trkpt lat="46.3052" lon="6.85109">
        <ele>1345</ele>
        <time>2011-06-26T06:22:28Z</time>
      </trkpt>
      <trkpt lat="46.30493" lon="6.85114">
        <ele>1346</ele>
        <time>2011-06-26T06:22:38Z</time>
      </trkpt>
      <trkpt lat="46.30464" lon="6.85121">
        <ele>1355</ele>
        <time>2011-06-26T06:22:49Z</time>
      </trkpt>
      <trkpt lat="46.30438" lon="6.85125">
        <ele>1365</ele>
        <time>2011-06-26T06:22:59Z</time>
      </trkpt>
      <trkpt lat="46.30412" lon="6.8513">
        <ele>1374</ele>
        <time>2011-06-26T06:23:09Z</time>
      </trkpt>
      <trkpt lat="46.30383" lon="6.85136">
        <ele>1379</ele>
        <time>2011-06-26T06:23:20Z</time>
      </trkpt>
      <trkpt lat="46.30356" lon="6.85141">
        <ele>1381</ele>
        <time>2011-06-26T06:23:30Z</time>
      </trkpt>
      <trkpt lat="46.3033" lon="6.85146">
        <ele>1382</ele>
        <time>2011-06-26T06:23:40Z</time>
      </trkpt>
      <trkpt lat="46.30304" lon="6.85148">
        <ele>1388</ele>
        <time>2011-06-26T06:23:50Z</time>
      </trkpt>
      <trkpt lat="46.30278" lon="6.85152">
        <ele>1395</ele>
        <time>2011-06-26T06:24:00Z</time>
      </trkpt>
      <trkpt lat="46.30252" lon="6.85158">
        <ele>1401</ele>
        <time>2011-06-26T06:24:10Z</time>
      </trkpt>
      <trkpt lat="46.30226" lon="6.85163">
        <ele>1406</ele>
        <time>2011-06-26T06:24:20Z</time>
      </trkpt>
      <trkpt lat="46.30197" lon="6.85171">
        <ele>1413</ele>
        <time>2011-06-26T06:24:31Z</time>
      </trkpt>
      <trkpt lat="46.3017" lon="6.85176">
        <ele>1420</ele>
        <time>2011-06-26T06:24:41Z</time>
      </trkpt>
      <trkpt lat="46.30144" lon="6.85181">
        <ele>1425</ele>
        <time>2011-06-26T06:24:51Z</time>
      </trkpt>
      <trkpt lat="46.30118" lon="6.85185">
        <ele>1432</ele>
        <time>2011-06-26T06:25:01Z</time>
      </trkpt>
      <trkpt lat="46.30093" lon="6.85191">
        <ele>1438</ele>
        <time>2011-06-26T06:25:11Z</time>
      </trkpt>
      <trkpt lat="46.30065" lon="6.85195">
        <ele>1448</ele>
        <time>2011-06-26T06:25:22Z</time>
      </trkpt>
      <trkpt lat="46.3004" lon="6.852">
        <ele>1455</ele>
        <time>2011-06-26T06:25:32Z</time>
      </trkpt>
      <trkpt lat="46.30014" lon="6.85205">
        <ele>1460</ele>
        <time>2011-06-26T06:25:42Z</time>
      </trkpt>
      <trkpt lat="46.29988" lon="6.8521">
        <ele>1465</ele>
        <time>2011-06-26T06:25:52Z</time>
      </trkpt>
      <trkpt lat="46.29963" lon="6.85214">
        <ele>1472</ele>
        <time>2011-06-26T06:26:02Z</time>
      </trkpt>
      <trkpt lat="46.29935" lon="6.85219">
        <ele>1481</ele>
        <time>2011-06-26T06:26:13Z</time>
      </trkpt>
      <trkpt lat="46.29915" lon="6.85223">
        <ele>1487</ele>
        <time>2011-06-26T06:26:23Z</time>
      </trkpt>
      <trkpt lat="46.29897" lon="6.85226">
        <ele>1493</ele>
        <time>2011-06-26T06:26:33Z</time>
      </trkpt>
      <trkpt lat="46.29869" lon="6.85231">
        <ele>1504</ele>
        <time>2011-06-26T06:26:44Z</time>
      </trkpt>
      <trkpt lat="46.29841" lon="6.85236">
        <ele>1512</ele>
        <time>2011-06-26T06:26:55Z</time>
      </trkpt>
      <trkpt lat="46.29815" lon="6.85241">
        <ele>1519</ele>
        <time>2011-06-26T06:27:05Z</time>
      </trkpt>
      <trkpt lat="46.29789" lon="6.85246">
        <ele>1527</ele>
        <time>2011-06-26T06:27:15Z</time>
      </trkpt>
      <trkpt lat="46.29764" lon="6.8525">
        <ele>1536</ele>
        <time>2011-06-26T06:27:25Z</time>
      </trkpt>
      <trkpt lat="46.29739" lon="6.85254">
        <ele>1546</ele>
        <time>2011-06-26T06:27:36Z</time>
      </trkpt>
      <trkpt lat="46.29713" lon="6.85259">
        <ele>1558</ele>
        <time>2011-06-26T06:27:47Z</time>
      </trkpt>
      <trkpt lat="46.2969" lon="6.85263">
        <ele>1573</ele>
        <time>2011-06-26T06:27:57Z</time>
      </trkpt>
      <trkpt lat="46.29668" lon="6.85267">
        <ele>1590</ele>
        <time>2011-06-26T06:28:07Z</time>
      </trkpt>
      <trkpt lat="46.29646" lon="6.85271">
        <ele>1607</ele>
        <time>2011-06-26T06:28:17Z</time>
      </trkpt>
      <trkpt lat="46.29621" lon="6.85275">
        <ele>1625</ele>
        <time>2011-06-26T06:28:28Z</time>
      </trkpt>
      <trkpt lat="46.29599" lon="6.85279">
        <ele>1642</ele>
        <time>2011-06-26T06:28:38Z</time>
      </trkpt>
      <trkpt lat="46.29577" lon="6.85283">
        <ele>1659</ele>
        <time>2011-06-26T06:28:48Z</time>
      </trkpt>
      <trkpt lat="46.29553" lon="6.85288">
        <ele>1680</ele>
        <time>2011-06-26T06:28:59Z</time>
      </trkpt>
      <trkpt lat="46.2953" lon="6.85291">
        <ele>1695</ele>
        <time>2011-06-26T06:29:09Z</time>
      </trkpt>
      <trkpt lat="46.29507" lon="6.85295">
        <ele>1709</ele>
        <time>2011-06-26T06:29:19Z</time>
      </trkpt>
      <trkpt lat="46.29485" lon="6.85299">
        <ele>1723</ele>
        <time>2011-06-26T06:29:29Z</time>
      </trkpt>
      <trkpt lat="46.29465" lon="6.85302">
        <ele>1737</ele>
        <time>2011-06-26T06:29:40Z</time>
      </trkpt>
      <trkpt lat="46.29445" lon="6.85306">
        <ele>1748</ele>
        <time>2011-06-26T06:29:50Z</time>
      </trkpt>
      <trkpt lat="46.2942" lon="6.85311">
        <ele>1761</ele>
        <time>2011-06-26T06:30:00Z</time>
      </trkpt>
      <trkpt lat="46.29397" lon="6.85315">
        <ele>1775</ele>
        <time>2011-06-26T06:30:10Z</time>
      </trkpt>
      <trkpt lat="46.2938" lon="6.85318">
        <ele>1787</ele>
        <time>2011-06-26T06:30:20Z</time>
      </trkpt>
      <trkpt lat="46.29358" lon="6.85322">
        <ele>1799</ele>
        <time>2011-06-26T06:30:31Z</time>
      </trkpt>
      <trkpt lat="46.29335" lon="6.85327">
        <ele>1817</ele>
        <time>2011-06-26T06:30:42Z</time>
      </trkpt>
      <trkpt lat="46.29313" lon="6.85331">
        <ele>1834</ele>
        <time>2011-06-26T06:30:52Z</time>
      </trkpt>
      <trkpt lat="46.2929" lon="6.85335">
        <ele>1854</ele>
        <time>2011-06-26T06:31:03Z</time>
      </trkpt>
      <trkpt lat="46.29267" lon="6.85339">
        <ele>1869</ele>
        <time>2011-06-26T06:31:13Z</time>
      </trkpt>
      <trkpt lat="46.29241" lon="6.85343">
        <ele>1885</ele>
        <time>2011-06-26T06:31:24Z</time>
      </trkpt>
      <trkpt lat="46.29226" lon="6.85344">
        <ele>1896</ele>
        <time>2011-06-26T06:31:39Z</time>
      </trkpt>
      <trkpt lat="46.29213" lon="6.85345">
        <ele>1896</ele>
        <time>2011-06-26T06:31:49Z</time>
      </trkpt>
      <trkpt lat="46.29203" lon="6.85346">
        <ele>1897</ele>
        <time>2011-06-26T06:32:00Z</time>
      </trkpt>
      <trkpt lat="46.29207" lon="6.85361">
        <ele>1897</ele>
        <time>2011-06-26T06:32:10Z</time>
      </trkpt>
      <trkpt lat="46.292" lon="6.85379">
        <ele>1897</ele>
        <time>2011-06-26T06:32:20Z</time>
      </trkpt>
      <trkpt lat="46.29179" lon="6.85413">
        <ele>1896</ele>
        <time>2011-06-26T06:32:33Z</time>
      </trkpt>
      <trkpt lat="46.29116" lon="6.85482">
        <ele>1887</ele>
        <time>2011-06-26T06:32:44Z</time>
      </trkpt>
      <trkpt lat="46.29038" lon="6.85542">
        <ele>1883</ele>
        <time>2011-06-26T06:32:54Z</time>
      </trkpt>
      <trkpt lat="46.28965" lon="6.85537">
        <ele>1883</ele>
        <time>2011-06-26T06:33:04Z</time>
      </trkpt>
      <trkpt lat="46.28946" lon="6.85439">
        <ele>1878</ele>
        <time>2011-06-26T06:33:14Z</time>
      </trkpt>
      <trkpt lat="46.28927" lon="6.85368">
        <ele>1876</ele>
        <time>2011-06-26T06:33:25Z</time>
      </trkpt>
      <trkpt lat="46.2891" lon="6.85335">
        <ele>1876</ele>
        <time>2011-06-26T06:33:35Z</time>
      </trkpt>
      <trkpt lat="46.28888" lon="6.85309">
        <ele>1878</ele>
        <time>2011-06-26T06:33:45Z</time>
      </trkpt>
      <trkpt lat="46.2888" lon="6.85295">
        <ele>1879</ele>
        <time>2011-06-26T06:33:55Z</time>
      </trkpt>
      <trkpt lat="46.28879" lon="6.8527">
        <ele>1879</ele>
        <time>2011-06-26T06:34:09Z</time>
      </trkpt>
      <trkpt lat="46.28883" lon="6.85193">
        <ele>1878</ele>
        <time>2011-06-26T06:34:19Z</time>
      </trkpt>
      <trkpt lat="46.28898" lon="6.85093">
        <ele>1872</ele>
        <time>2011-06-26T06:34:29Z</time>
      </trkpt>
      <trkpt lat="46.28912" lon="6.84973">
        <ele>1865</ele>
        <time>2011-06-26T06:34:39Z</time>
      </trkpt>
      <trkpt lat="46.28925" lon="6.8485">
        <ele>1857</ele>
        <time>2011-06-26T06:34:50Z</time>
      </trkpt>
      <trkpt lat="46.28932" lon="6.8474">
        <ele>1848</ele>
        <time>2011-06-26T06:35:00Z</time>
      </trkpt>
      <trkpt lat="46.28966" lon="6.84652">
        <ele>1842</ele>
        <time>2011-06-26T06:35:10Z</time>
      </trkpt>
      <trkpt lat="46.29023" lon="6.84617">
        <ele>1836</ele>
        <time>2011-06-26T06:35:20Z</time>
      </trkpt>
      <trkpt lat="46.29074" lon="6.84573">
        <ele>1825</ele>
        <time>2011-06-26T06:35:30Z</time>
      </trkpt>
      <trkpt lat="46.29127" lon="6.84514">
        <ele>1811</ele>
        <time>2011-06-26T06:35:40Z</time>
      </trkpt>
      <trkpt lat="46.29189" lon="6.84456">
        <ele>1802</ele>
        <time>2011-06-26T06:35:51Z</time>
      </trkpt>
      <trkpt lat="46.292" lon="6.84374">
        <ele>1796</ele>
        <time>2011-06-26T06:36:01Z</time>
      </trkpt>
      <trkpt lat="46.29222" lon="6.84288">
        <ele>1790</ele>
        <time>2011-06-26T06:36:11Z</time>
      </trkpt>
      <trkpt lat="46.29242" lon="6.84183">
        <ele>1783</ele>
        <time>2011-06-26T06:36:21Z</time>
      </trkpt>
      <trkpt lat="46.29242" lon="6.84102">
        <ele>1773</ele>
        <time>2011-06-26T06:36:31Z</time>
      </trkpt>
      <trkpt lat="46.29233" lon="6.84077">
        <ele>1766</ele>
        <time>2011-06-26T06:36:42Z</time>
      </trkpt>
      <trkpt lat="46.2921" lon="6.84001">
        <ele>1759</ele>
        <time>2011-06-26T06:36:52Z</time>
      </trkpt>
      <trkpt lat="46.29195" lon="6.8391">
        <ele>1749</ele>
        <time>2011-06-26T06:37:02Z</time>
      </trkpt>
      <trkpt lat="46.2919" lon="6.8386">
        <ele>1737</ele>
        <time>2011-06-26T06:37:15Z</time>
      </trkpt>
      <trkpt lat="46.29194" lon="6.83827">
        <ele>1735</ele>
        <time>2011-06-26T06:37:25Z</time>
      </trkpt>
      <trkpt lat="46.29179" lon="6.83818">
        <ele>1728</ele>
        <time>2011-06-26T06:37:35Z</time>
      </trkpt>
      <trkpt lat="46.29137" lon="6.83903">
        <ele>1717</ele>
        <time>2011-06-26T06:37:46Z</time>
      </trkpt>
      <trkpt lat="46.29094" lon="6.83983">
        <ele>1707</ele>
        <time>2011-06-26T06:37:56Z</time>
      </trkpt>
      <trkpt lat="46.29085" lon="6.84085">
        <ele>1695</ele>
        <time>2011-06-26T06:38:06Z</time>
      </trkpt>
      <trkpt lat="46.29045" lon="6.8417">
        <ele>1685</ele>
        <time>2011-06-26T06:38:16Z</time>
      </trkpt>
      <trkpt lat="46.28994" lon="6.84212">
        <ele>1674</ele>
        <time>2011-06-26T06:38:27Z</time>
      </trkpt>
      <trkpt lat="46.28937" lon="6.84225">
        <ele>1665</ele>
        <time>2011-06-26T06:38:37Z</time>
      </trkpt>
      <trkpt lat="46.28877" lon="6.84216">
        <ele>1650</ele>
        <time>2011-06-26T06:38:48Z</time>
      </trkpt>
      <trkpt lat="46.28813" lon="6.84206">
        <ele>1634</ele>
        <time>2011-06-26T06:38:58Z</time>
      </trkpt>
      <trkpt lat="46.28768" lon="6.84209">
        <ele>1623</ele>
        <time>2011-06-26T06:39:08Z</time>
      </trkpt>
      <trkpt lat="46.2872" lon="6.84203">
        <ele>1613</ele>
        <time>2011-06-26T06:39:18Z</time>
      </trkpt>
      <trkpt lat="46.28677" lon="6.8419">
        <ele>1602</ele>
        <time>2011-06-26T06:39:29Z</time>
      </trkpt>
      <trkpt lat="46.28625" lon="6.84203">
        <ele>1592</ele>
        <time>2011-06-26T06:39:39Z</time>
      </trkpt>
      <trkpt lat="46.28621" lon="6.84181">
        <ele>1588</ele>
        <time>2011-06-26T06:39:49Z</time>
      </trkpt>
      <trkpt lat="46.28654" lon="6.84153">
        <ele>1583</ele>
        <time>2011-06-26T06:40:00Z</time>
      </trkpt>
      <trkpt lat="46.28682" lon="6.84137">
        <ele>1579</ele>
        <time>2011-06-26T06:40:10Z</time>
      </trkpt>
      <trkpt lat="46.28711" lon="6.84108">
        <ele>1574</ele>
        <time>2011-06-26T06:40:20Z</time>
      </trkpt>
      <trkpt lat="46.28663" lon="6.84102">
        <ele>1567</ele>
        <time>2011-06-26T06:40:31Z</time>
      </trkpt>
      <trkpt lat="46.28617" lon="6.8409">
        <ele>1556</ele>
        <time>2011-06-26T06:40:42Z</time>
      </trkpt>
      <trkpt lat="46.28574" lon="6.84081">
        <ele>1546</ele>
        <time>2011-06-26T06:40:52Z</time>
      </trkpt>
      <trkpt lat="46.28512" lon="6.84092">
        <ele>1536</ele>
        <time>2011-06-26T06:41:02Z</time>
      </trkpt>
      <trkpt lat="46.28413" lon="6.84106">
        <ele>1525</ele>
        <time>2011-06-26T06:41:13Z</time>
      </trkpt>
      <trkpt lat="46.28353" lon="6.84152">
        <ele>1515</ele>
        <time>2011-06-26T06:41:23Z</time>
      </trkpt>
      <trkpt lat="46.28319" lon="6.84238">
        <ele>1505</ele>
        <time>2011-06-26T06:41:33Z</time>
      </trkpt>
      <trkpt lat="46.28277" lon="6.84341">
        <ele>1494</ele>
        <time>2011-06-26T06:41:43Z</time>
      </trkpt>
      <trkpt lat="46.28233" lon="6.84375">
        <ele>1484</ele>
        <time>2011-06-26T06:41:53Z</time>
      </trkpt>
      <trkpt lat="46.28214" lon="6.84364">
        <ele>1474</ele>
        <time>2011-06-26T06:42:03Z</time>
      </trkpt>
      <trkpt lat="46.28216" lon="6.84269">
        <ele>1470</ele>
        <time>2011-06-26T06:42:14Z</time>
      </trkpt>
      <trkpt lat="46.28194" lon="6.84217">
        <ele>1465</ele>
        <time>2011-06-26T06:42:24Z</time>
      </trkpt>
      <trkpt lat="46.28188" lon="6.84151">
        <ele>1461</ele>
        <time>2011-06-26T06:42:34Z</time>
      </trkpt>
      <trkpt lat="46.28181" lon="6.84068">
        <ele>1453</ele>
        <time>2011-06-26T06:42:44Z</time>
      </trkpt>
      <trkpt lat="46.2817" lon="6.83984">
        <ele>1444</ele>
        <time>2011-06-26T06:42:54Z</time>
      </trkpt>
      <trkpt lat="46.28124" lon="6.83914">
        <ele>1437</ele>
        <time>2011-06-26T06:43:04Z</time>
      </trkpt>
      <trkpt lat="46.2816" lon="6.83878">
        <ele>1429</ele>
        <time>2011-06-26T06:43:14Z</time>
      </trkpt>
      <trkpt lat="46.28122" lon="6.83838">
        <ele>1420</ele>
        <time>2011-06-26T06:43:25Z</time>
      </trkpt>
      <trkpt lat="46.28058" lon="6.83888">
        <ele>1412</ele>
        <time>2011-06-26T06:43:35Z</time>
      </trkpt>
      <trkpt lat="46.27996" lon="6.83948">
        <ele>1402</ele>
        <time>2011-06-26T06:43:45Z</time>
      </trkpt>
      <trkpt lat="46.27938" lon="6.84008">
        <ele>1393</ele>
        <time>2011-06-26T06:43:55Z</time>
      </trkpt>
      <trkpt lat="46.27884" lon="6.84067">
        <ele>1389</ele>
        <time>2011-06-26T06:44:05Z</time>
      </trkpt>
      <trkpt lat="46.27823" lon="6.84132">
        <ele>1380</ele>
        <time>2011-06-26T06:44:15Z</time>
      </trkpt>
      <trkpt lat="46.27766" lon="6.84195">
        <ele>1368</ele>
        <time>2011-06-26T06:44:25Z</time>
      </trkpt>
      <trkpt lat="46.27697" lon="6.84256">
        <ele>1358</ele>
        <time>2011-06-26T06:44:36Z</time>
      </trkpt>
      <trkpt lat="46.27628" lon="6.84309">
        <ele>1349</ele>
        <time>2011-06-26T06:44:46Z</time>
      </trkpt>
      <trkpt lat="46.27544" lon="6.84368">
        <ele>1339</ele>
        <time>2011-06-26T06:44:57Z</time>
      </trkpt>
      <trkpt lat="46.27465" lon="6.84411">
        <ele>1329</ele>
        <time>2011-06-26T06:45:07Z</time>
      </trkpt>
      <trkpt lat="46.2739" lon="6.84408">
        <ele>1323</ele>
        <time>2011-06-26T06:45:17Z</time>
      </trkpt>
      <trkpt lat="46.27335" lon="6.84402">
        <ele>1316</ele>
        <time>2011-06-26T06:45:28Z</time>
      </trkpt>
      <trkpt lat="46.27349" lon="6.84399">
        <ele>1312</ele>
        <time>2011-06-26T06:45:39Z</time>
      </trkpt>
      <trkpt lat="46.27351" lon="6.844">
        <ele>1308</ele>
        <time>2011-06-26T06:45:51Z</time>
      </trkpt>
      <trkpt lat="46.27353" lon="6.84394">
        <ele>1308</ele>
        <time>2011-06-26T06:46:02Z</time>
      </trkpt>
      <trkpt lat="46.27367" lon="6.84377">
        <ele>1308</ele>
        <time>2011-06-26T06:46:13Z</time>
      </trkpt>
      <trkpt lat="46.27402" lon="6.84353">
        <ele>1306</ele>
        <time>2011-06-26T06:46:23Z</time>
      </trkpt>
      <trkpt lat="46.27458" lon="6.843">
        <ele>1301</ele>
        <time>2011-06-26T06:46:33Z</time>
      </trkpt>
      <trkpt lat="46.27513" lon="6.84227">
        <ele>1294</ele>
        <time>2011-06-26T06:46:43Z</time>
      </trkpt>
      <trkpt lat="46.27584" lon="6.84105">
        <ele>1286</ele>
        <time>2011-06-26T06:46:54Z</time>
      </trkpt>
      <trkpt lat="46.27655" lon="6.83974">
        <ele>1280</ele>
        <time>2011-06-26T06:47:04Z</time>
      </trkpt>
      <trkpt lat="46.27723" lon="6.83848">
        <ele>1278</ele>
        <time>2011-06-26T06:47:14Z</time>
      </trkpt>
      <trkpt lat="46.27766" lon="6.83756">
        <ele>1278</ele>
        <time>2011-06-26T06:47:24Z</time>
      </trkpt>
      <trkpt lat="46.27808" lon="6.83669">
        <ele>1277</ele>
        <time>2011-06-26T06:47:34Z</time>
      </trkpt>
      <trkpt lat="46.27856" lon="6.83563">
        <ele>1269</ele>
        <time>2011-06-26T06:47:45Z</time>
      </trkpt>
      <trkpt lat="46.27858" lon="6.83482">
        <ele>1261</ele>
        <time>2011-06-26T06:47:55Z</time>
      </trkpt>
      <trkpt lat="46.27796" lon="6.83509">
        <ele>1254</ele>
        <time>2011-06-26T06:48:05Z</time>
      </trkpt>
      <trkpt lat="46.27743" lon="6.83584">
        <ele>1244</ele>
        <time>2011-06-26T06:48:15Z</time>
      </trkpt>
      <trkpt lat="46.27692" lon="6.83691">
        <ele>1236</ele>
        <time>2011-06-26T06:48:25Z</time>
      </trkpt>
      <trkpt lat="46.27614" lon="6.83801">
        <ele>1231</ele>
        <time>2011-06-26T06:48:36Z</time>
      </trkpt>
      <trkpt lat="46.27533" lon="6.83903">
        <ele>1224</ele>
        <time>2011-06-26T06:48:46Z</time>
      </trkpt>
      <trkpt lat="46.27437" lon="6.8398">
        <ele>1221</ele>
        <time>2011-06-26T06:48:56Z</time>
      </trkpt>
      <trkpt lat="46.27315" lon="6.84031">
        <ele>1213</ele>
        <time>2011-06-26T06:49:07Z</time>
      </trkpt>
      <trkpt lat="46.27207" lon="6.84088">
        <ele>1204</ele>
        <time>2011-06-26T06:49:17Z</time>
      </trkpt>
      <trkpt lat="46.27105" lon="6.84099">
        <ele>1200</ele>
        <time>2011-06-26T06:49:27Z</time>
      </trkpt>
      <trkpt lat="46.26998" lon="6.841">
        <ele>1193</ele>
        <time>2011-06-26T06:49:37Z</time>
      </trkpt>
      <trkpt lat="46.26897" lon="6.84121">
        <ele>1188</ele>
        <time>2011-06-26T06:49:47Z</time>
      </trkpt>
      <trkpt lat="46.26828" lon="6.84128">
        <ele>1188</ele>
        <time>2011-06-26T06:49:57Z</time>
      </trkpt>
      <trkpt lat="46.26778" lon="6.84122">
        <ele>1188</ele>
        <time>2011-06-26T06:50:07Z</time>
      </trkpt>
      <trkpt lat="46.26757" lon="6.84129">
        <ele>1190</ele>
        <time>2011-06-26T06:50:17Z</time>
      </trkpt>
      <trkpt lat="46.26733" lon="6.84136">
        <ele>1191</ele>
        <time>2011-06-26T06:50:27Z</time>
      </trkpt>
      <trkpt lat="46.26708" lon="6.8414">
        <ele>1192</ele>
        <time>2011-06-26T06:50:37Z</time>
      </trkpt>
      <trkpt lat="46.26708" lon="6.84155">
        <ele>1194</ele>
        <time>2011-06-26T06:50:48Z</time>
      </trkpt>
      <trkpt lat="46.26727" lon="6.8418">
        <ele>1196</ele>
        <time>2011-06-26T06:50:58Z</time>
      </trkpt>
      <trkpt lat="46.26704" lon="6.84189">
        <ele>1197</ele>
        <time>2011-06-26T06:51:08Z</time>
      </trkpt>
      <trkpt lat="46.2668" lon="6.84207">
        <ele>1199</ele>
        <time>2011-06-26T06:51:18Z</time>
      </trkpt>
      <trkpt lat="46.26659" lon="6.8422">
        <ele>1207</ele>
        <time>2011-06-26T06:51:28Z</time>
      </trkpt>
      <trkpt lat="46.26651" lon="6.84225">
        <ele>1212</ele>
        <time>2011-06-26T06:51:38Z</time>
      </trkpt>
      <trkpt lat="46.26654" lon="6.84241">
        <ele>1213</ele>
        <time>2011-06-26T06:51:49Z</time>
      </trkpt>
      <trkpt lat="46.26658" lon="6.84256">
        <ele>1210</ele>
        <time>2011-06-26T06:51:59Z</time>
      </trkpt>
      <trkpt lat="46.26652" lon="6.84263">
        <ele>1211</ele>
        <time>2011-06-26T06:52:14Z</time>
      </trkpt>
      <trkpt lat="46.26686" lon="6.84232">
        <ele>1191</ele>
        <time>2011-06-26T06:53:44Z</time>
      </trkpt>
      <trkpt lat="46.26685" lon="6.84253">
        <ele>1184</ele>
        <time>2011-06-26T06:53:54Z</time>
      </trkpt>
      <trkpt lat="46.2668" lon="6.84312">
        <ele>1194</ele>
        <time>2011-06-26T06:54:04Z</time>
      </trkpt>
      <trkpt lat="46.26681" lon="6.84369">
        <ele>1217</ele>
        <time>2011-06-26T06:54:14Z</time>
      </trkpt>
      <trkpt lat="46.26684" lon="6.84423">
        <ele>1244</ele>
        <time>2011-06-26T06:54:24Z</time>
      </trkpt>
      <trkpt lat="46.26687" lon="6.84477">
        <ele>1268</ele>
        <time>2011-06-26T06:54:35Z</time>
      </trkpt>
      <trkpt lat="46.26689" lon="6.84532">
        <ele>1299</ele>
        <time>2011-06-26T06:54:45Z</time>
      </trkpt>
      <trkpt lat="46.26692" lon="6.84584">
        <ele>1337</ele>
        <time>2011-06-26T06:54:56Z</time>
      </trkpt>
      <trkpt lat="46.26701" lon="6.84635">
        <ele>1381</ele>
        <time>2011-06-26T06:55:06Z</time>
      </trkpt>
      <trkpt lat="46.26702" lon="6.84687">
        <ele>1407</ele>
        <time>2011-06-26T06:55:16Z</time>
      </trkpt>
      <trkpt lat="46.26705" lon="6.84731">
        <ele>1425</ele>
        <time>2011-06-26T06:55:26Z</time>
      </trkpt>
      <trkpt lat="46.26711" lon="6.84797">
        <ele>1430</ele>
        <time>2011-06-26T06:55:36Z</time>
      </trkpt>
      <trkpt lat="46.2671" lon="6.84863">
        <ele>1437</ele>
        <time>2011-06-26T06:55:47Z</time>
      </trkpt>
      <trkpt lat="46.26713" lon="6.8493">
        <ele>1453</ele>
        <time>2011-06-26T06:55:58Z</time>
      </trkpt>
      <trkpt lat="46.26718" lon="6.84991">
        <ele>1472</ele>
        <time>2011-06-26T06:56:08Z</time>
      </trkpt>
      <trkpt lat="46.26718" lon="6.85045">
        <ele>1496</ele>
        <time>2011-06-26T06:56:18Z</time>
      </trkpt>
      <trkpt lat="46.26723" lon="6.85122">
        <ele>1516</ele>
        <time>2011-06-26T06:56:29Z</time>
      </trkpt>
      <trkpt lat="46.26726" lon="6.85187">
        <ele>1518</ele>
        <time>2011-06-26T06:56:39Z</time>
      </trkpt>
      <trkpt lat="46.26729" lon="6.85253">
        <ele>1518</ele>
        <time>2011-06-26T06:56:49Z</time>
      </trkpt>
      <trkpt lat="46.26734" lon="6.85323">
        <ele>1521</ele>
        <time>2011-06-26T06:57:00Z</time>
      </trkpt>
      <trkpt lat="46.26738" lon="6.85394">
        <ele>1531</ele>
        <time>2011-06-26T06:57:12Z</time>
      </trkpt>
      <trkpt lat="46.26743" lon="6.8546">
        <ele>1544</ele>
        <time>2011-06-26T06:57:23Z</time>
      </trkpt>
      <trkpt lat="46.26749" lon="6.85525">
        <ele>1557</ele>
        <time>2011-06-26T06:57:33Z</time>
      </trkpt>
      <trkpt lat="46.26751" lon="6.85586">
        <ele>1574</ele>
        <time>2011-06-26T06:57:43Z</time>
      </trkpt>
      <trkpt lat="46.26754" lon="6.85644">
        <ele>1592</ele>
        <time>2011-06-26T06:57:53Z</time>
      </trkpt>
      <trkpt lat="46.26757" lon="6.8571">
        <ele>1614</ele>
        <time>2011-06-26T06:58:04Z</time>
      </trkpt>
      <trkpt lat="46.2676" lon="6.85733">
        <ele>1625</ele>
        <time>2011-06-26T06:58:17Z</time>
      </trkpt>
      <trkpt lat="46.26767" lon="6.85747">
        <ele>1631</ele>
        <time>2011-06-26T06:58:28Z</time>
      </trkpt>
      <trkpt lat="46.26768" lon="6.85784">
        <ele>1623</ele>
        <time>2011-06-26T06:58:39Z</time>
      </trkpt>
      <trkpt lat="46.26757" lon="6.85793">
        <ele>1624</ele>
        <time>2011-06-26T06:58:52Z</time>
      </trkpt>
      <trkpt lat="46.26755" lon="6.85796">
        <ele>1633</ele>
        <time>2011-06-26T06:59:05Z</time>
      </trkpt>
      <trkpt lat="46.26752" lon="6.85793">
        <ele>1632</ele>
        <time>2011-06-26T06:59:24Z</time>
      </trkpt>
      <trkpt lat="46.2673" lon="6.85788">
        <ele>1634</ele>
        <time>2011-06-26T06:59:34Z</time>
      </trkpt>
      <trkpt lat="46.26705" lon="6.85795">
        <ele>1635</ele>
        <time>2011-06-26T06:59:44Z</time>
      </trkpt>
      <trkpt lat="46.26664" lon="6.85797">
        <ele>1635</ele>
        <time>2011-06-26T06:59:54Z</time>
      </trkpt>
      <trkpt lat="46.26633" lon="6.85754">
        <ele>1631</ele>
        <time>2011-06-26T07:00:05Z</time>
      </trkpt>
      <trkpt lat="46.2658" lon="6.85777">
        <ele>1622</ele>
        <time>2011-06-26T07:00:15Z</time>
      </trkpt>
      <trkpt lat="46.26541" lon="6.85769">
        <ele>1614</ele>
        <time>2011-06-26T07:00:25Z</time>
      </trkpt>
      <trkpt lat="46.2652" lon="6.85772">
        <ele>1614</ele>
        <time>2011-06-26T07:00:35Z</time>
      </trkpt>
      <trkpt lat="46.26468" lon="6.85729">
        <ele>1614</ele>
        <time>2011-06-26T07:00:45Z</time>
      </trkpt>
      <trkpt lat="46.26443" lon="6.85648">
        <ele>1611</ele>
        <time>2011-06-26T07:00:56Z</time>
      </trkpt>
      <trkpt lat="46.26436" lon="6.85548">
        <ele>1603</ele>
        <time>2011-06-26T07:01:06Z</time>
      </trkpt>
      <trkpt lat="46.26406" lon="6.85501">
        <ele>1593</ele>
        <time>2011-06-26T07:01:16Z</time>
      </trkpt>
      <trkpt lat="46.26378" lon="6.85478">
        <ele>1583</ele>
        <time>2011-06-26T07:01:26Z</time>
      </trkpt>
      <trkpt lat="46.26358" lon="6.85412">
        <ele>1582</ele>
        <time>2011-06-26T07:01:36Z</time>
      </trkpt>
      <trkpt lat="46.26355" lon="6.85347">
        <ele>1582</ele>
        <time>2011-06-26T07:01:46Z</time>
      </trkpt>
      <trkpt lat="46.26392" lon="6.85355">
        <ele>1579</ele>
        <time>2011-06-26T07:01:56Z</time>
      </trkpt>
      <trkpt lat="46.2641" lon="6.8541">
        <ele>1577</ele>
        <time>2011-06-26T07:02:06Z</time>
      </trkpt>
      <trkpt lat="46.26465" lon="6.85421">
        <ele>1573</ele>
        <time>2011-06-26T07:02:16Z</time>
      </trkpt>
      <trkpt lat="46.26529" lon="6.85464">
        <ele>1565</ele>
        <time>2011-06-26T07:02:26Z</time>
      </trkpt>
      <trkpt lat="46.26605" lon="6.85408">
        <ele>1555</ele>
        <time>2011-06-26T07:02:37Z</time>
      </trkpt>
      <trkpt lat="46.26639" lon="6.8534">
        <ele>1547</ele>
        <time>2011-06-26T07:02:47Z</time>
      </trkpt>
      <trkpt lat="46.26681" lon="6.8528">
        <ele>1540</ele>
        <time>2011-06-26T07:02:57Z</time>
      </trkpt>
      <trkpt lat="46.2669" lon="6.8524">
        <ele>1535</ele>
        <time>2011-06-26T07:03:07Z</time>
      </trkpt>
      <trkpt lat="46.26703" lon="6.8521">
        <ele>1530</ele>
        <time>2011-06-26T07:03:17Z</time>
      </trkpt>
      <trkpt lat="46.26722" lon="6.85177">
        <ele>1526</ele>
        <time>2011-06-26T07:03:27Z</time>
      </trkpt>
      <trkpt lat="46.26742" lon="6.85145">
        <ele>1517</ele>
        <time>2011-06-26T07:03:37Z</time>
      </trkpt>
      <trkpt lat="46.26745" lon="6.851">
        <ele>1508</ele>
        <time>2011-06-26T07:03:47Z</time>
      </trkpt>
      <trkpt lat="46.26762" lon="6.85134">
        <ele>1503</ele>
        <time>2011-06-26T07:03:57Z</time>
      </trkpt>
      <trkpt lat="46.26769" lon="6.85163">
        <ele>1499</ele>
        <time>2011-06-26T07:04:07Z</time>
      </trkpt>
      <trkpt lat="46.26779" lon="6.85105">
        <ele>1494</ele>
        <time>2011-06-26T07:04:17Z</time>
      </trkpt>
      <trkpt lat="46.26796" lon="6.85128">
        <ele>1486</ele>
        <time>2011-06-26T07:04:27Z</time>
      </trkpt>
      <trkpt lat="46.26811" lon="6.85105">
        <ele>1476</ele>
        <time>2011-06-26T07:04:37Z</time>
      </trkpt>
      <trkpt lat="46.26812" lon="6.85093">
        <ele>1469</ele>
        <time>2011-06-26T07:04:48Z</time>
      </trkpt>
      <trkpt lat="46.26816" lon="6.85082">
        <ele>1465</ele>
        <time>2011-06-26T07:04:59Z</time>
      </trkpt>
      <trkpt lat="46.26815" lon="6.85073">
        <ele>1470</ele>
        <time>2011-06-26T07:05:09Z</time>
      </trkpt>
      <trkpt lat="46.2682" lon="6.85054">
        <ele>1470</ele>
        <time>2011-06-26T07:05:19Z</time>
      </trkpt>
      <trkpt lat="46.26832" lon="6.84998">
        <ele>1467</ele>
        <time>2011-06-26T07:05:29Z</time>
      </trkpt>
      <trkpt lat="46.26832" lon="6.84908">
        <ele>1459</ele>
        <time>2011-06-26T07:05:39Z</time>
      </trkpt>
      <trkpt lat="46.26836" lon="6.84884">
        <ele>1452</ele>
        <time>2011-06-26T07:05:52Z</time>
      </trkpt>
      <trkpt lat="46.26837" lon="6.84886">
        <ele>1461</ele>
        <time>2011-06-26T07:06:05Z</time>
      </trkpt>
      <trkpt lat="46.26849" lon="6.84885">
        <ele>1457</ele>
        <time>2011-06-26T07:06:15Z</time>
      </trkpt>
      <trkpt lat="46.2686" lon="6.8494">
        <ele>1448</ele>
        <time>2011-06-26T07:06:26Z</time>
      </trkpt>
      <trkpt lat="46.26884" lon="6.84956">
        <ele>1438</ele>
        <time>2011-06-26T07:06:36Z</time>
      </trkpt>
      <trkpt lat="46.26896" lon="6.84962">
        <ele>1430</ele>
        <time>2011-06-26T07:06:47Z</time>
      </trkpt>
      <trkpt lat="46.26908" lon="6.84985">
        <ele>1428</ele>
        <time>2011-06-26T07:06:57Z</time>
      </trkpt>
      <trkpt lat="46.26931" lon="6.85017">
        <ele>1425</ele>
        <time>2011-06-26T07:07:07Z</time>
      </trkpt>
      <trkpt lat="46.26965" lon="6.84995">
        <ele>1417</ele>
        <time>2011-06-26T07:07:17Z</time>
      </trkpt>
      <trkpt lat="46.27001" lon="6.84945">
        <ele>1407</ele>
        <time>2011-06-26T07:07:27Z</time>
      </trkpt>
      <trkpt lat="46.2701" lon="6.84922">
        <ele>1396</ele>
        <time>2011-06-26T07:07:39Z</time>
      </trkpt>
      <trkpt lat="46.2703" lon="6.84888">
        <ele>1396</ele>
        <time>2011-06-26T07:07:49Z</time>
      </trkpt>
      <trkpt lat="46.27093" lon="6.848">
        <ele>1393</ele>
        <time>2011-06-26T07:07:59Z</time>
      </trkpt>
      <trkpt lat="46.27171" lon="6.84707">
        <ele>1383</ele>
        <time>2011-06-26T07:08:09Z</time>
      </trkpt>
      <trkpt lat="46.27206" lon="6.84661">
        <ele>1366</ele>
        <time>2011-06-26T07:08:24Z</time>
      </trkpt>
      <trkpt lat="46.27201" lon="6.84676">
        <ele>1366</ele>
        <time>2011-06-26T07:08:34Z</time>
      </trkpt>
      <trkpt lat="46.27182" lon="6.84684">
        <ele>1366</ele>
        <time>2011-06-26T07:08:44Z</time>
      </trkpt>
      <trkpt lat="46.27183" lon="6.84677">
        <ele>1366</ele>
        <time>2011-06-26T07:08:55Z</time>
      </trkpt>
      <trkpt lat="46.27192" lon="6.84685">
        <ele>1367</ele>
        <time>2011-06-26T07:09:05Z</time>
      </trkpt>
      <trkpt lat="46.27172" lon="6.84706">
        <ele>1369</ele>
        <time>2011-06-26T07:09:15Z</time>
      </trkpt>
      <trkpt lat="46.27155" lon="6.84727">
        <ele>1371</ele>
        <time>2011-06-26T07:09:25Z</time>
      </trkpt>
      <trkpt lat="46.27143" lon="6.84751">
        <ele>1372</ele>
        <time>2011-06-26T07:09:35Z</time>
      </trkpt>
      <trkpt lat="46.27129" lon="6.84773">
        <ele>1372</ele>
        <time>2011-06-26T07:09:45Z</time>
      </trkpt>
      <trkpt lat="46.27112" lon="6.8479">
        <ele>1374</ele>
        <time>2011-06-26T07:09:55Z</time>
      </trkpt>
      <trkpt lat="46.27095" lon="6.84804">
        <ele>1376</ele>
        <time>2011-06-26T07:10:06Z</time>
      </trkpt>
      <trkpt lat="46.27078" lon="6.8482">
        <ele>1378</ele>
        <time>2011-06-26T07:10:16Z</time>
      </trkpt>
      <trkpt lat="46.27064" lon="6.84836">
        <ele>1380</ele>
        <time>2011-06-26T07:10:26Z</time>
      </trkpt>
      <trkpt lat="46.27052" lon="6.84855">
        <ele>1382</ele>
        <time>2011-06-26T07:10:36Z</time>
      </trkpt>
      <trkpt lat="46.27041" lon="6.84874">
        <ele>1383</ele>
        <time>2011-06-26T07:10:46Z</time>
      </trkpt>
      <trkpt lat="46.27028" lon="6.84892">
        <ele>1387</ele>
        <time>2011-06-26T07:10:56Z</time>
      </trkpt>
      <trkpt lat="46.27018" lon="6.8491">
        <ele>1392</ele>
        <time>2011-06-26T07:11:06Z</time>
      </trkpt>
      <trkpt lat="46.27005" lon="6.84924">
        <ele>1395</ele>
        <time>2011-06-26T07:11:16Z</time>
      </trkpt>
      <trkpt lat="46.27003" lon="6.84919">
        <ele>1401</ele>
        <time>2011-06-26T07:11:27Z</time>
      </trkpt>
      <trkpt lat="46.26997" lon="6.84927">
        <ele>1407</ele>
        <time>2011-06-26T07:11:40Z</time>
      </trkpt>
      <trkpt lat="46.26995" lon="6.84928">
        <ele>1401</ele>
        <time>2011-06-26T07:11:50Z</time>
      </trkpt>
      <trkpt lat="46.2696" lon="6.84919">
        <ele>1400</ele>
        <time>2011-06-26T07:12:01Z</time>
      </trkpt>
      <trkpt lat="46.26948" lon="6.84846">
        <ele>1400</ele>
        <time>2011-06-26T07:12:11Z</time>
      </trkpt>
      <trkpt lat="46.26936" lon="6.84812">
        <ele>1400</ele>
        <time>2011-06-26T07:12:21Z</time>
      </trkpt>
      <trkpt lat="46.26927" lon="6.848">
        <ele>1400</ele>
        <time>2011-06-26T07:12:31Z</time>
      </trkpt>
      <trkpt lat="46.2692" lon="6.84794">
        <ele>1402</ele>
        <time>2011-06-26T07:12:41Z</time>
      </trkpt>
      <trkpt lat="46.26914" lon="6.8479">
        <ele>1405</ele>
        <time>2011-06-26T07:12:51Z</time>
      </trkpt>
      <trkpt lat="46.26899" lon="6.84794">
        <ele>1409</ele>
        <time>2011-06-26T07:13:01Z</time>
      </trkpt>
      <trkpt lat="46.26886" lon="6.84789">
        <ele>1412</ele>
        <time>2011-06-26T07:13:11Z</time>
      </trkpt>
      <trkpt lat="46.2688" lon="6.84782">
        <ele>1412</ele>
        <time>2011-06-26T07:13:21Z</time>
      </trkpt>
      <trkpt lat="46.26873" lon="6.84761">
        <ele>1418</ele>
        <time>2011-06-26T07:13:31Z</time>
      </trkpt>
      <trkpt lat="46.26875" lon="6.84761">
        <ele>1428</ele>
        <time>2011-06-26T07:13:43Z</time>
      </trkpt>
      <trkpt lat="46.26896" lon="6.84728">
        <ele>1426</ele>
        <time>2011-06-26T07:13:53Z</time>
      </trkpt>
      <trkpt lat="46.26895" lon="6.84674">
        <ele>1417</ele>
        <time>2011-06-26T07:14:03Z</time>
      </trkpt>
      <trkpt lat="46.26835" lon="6.84654">
        <ele>1406</ele>
        <time>2011-06-26T07:14:13Z</time>
      </trkpt>
      <trkpt lat="46.26768" lon="6.84648">
        <ele>1386</ele>
        <time>2011-06-26T07:14:23Z</time>
      </trkpt>
      <trkpt lat="46.26705" lon="6.84646">
        <ele>1370</ele>
        <time>2011-06-26T07:14:33Z</time>
      </trkpt>
      <trkpt lat="46.26646" lon="6.84652">
        <ele>1365</ele>
        <time>2011-06-26T07:14:43Z</time>
      </trkpt>
      <trkpt lat="46.26592" lon="6.84652">
        <ele>1365</ele>
        <time>2011-06-26T07:14:53Z</time>
      </trkpt>
      <trkpt lat="46.26545" lon="6.8464">
        <ele>1365</ele>
        <time>2011-06-26T07:15:03Z</time>
      </trkpt>
      <trkpt lat="46.26496" lon="6.84628">
        <ele>1365</ele>
        <time>2011-06-26T07:15:13Z</time>
      </trkpt>
      <trkpt lat="46.2644" lon="6.84615">
        <ele>1366</ele>
        <time>2011-06-26T07:15:23Z</time>
      </trkpt>
      <trkpt lat="46.26375" lon="6.84607">
        <ele>1368</ele>
        <time>2011-06-26T07:15:33Z</time>
      </trkpt>
      <trkpt lat="46.26327" lon="6.84608">
        <ele>1370</ele>
        <time>2011-06-26T07:15:43Z</time>
      </trkpt>
      <trkpt lat="46.26287" lon="6.84598">
        <ele>1372</ele>
        <time>2011-06-26T07:15:53Z</time>
      </trkpt>
      <trkpt lat="46.26247" lon="6.8458">
        <ele>1372</ele>
        <time>2011-06-26T07:16:03Z</time>
      </trkpt>
      <trkpt lat="46.262" lon="6.84552">
        <ele>1374</ele>
        <time>2011-06-26T07:16:13Z</time>
      </trkpt>
      <trkpt lat="46.26146" lon="6.84524">
        <ele>1374</ele>
        <time>2011-06-26T07:16:23Z</time>
      </trkpt>
      <trkpt lat="46.2608" lon="6.84484">
        <ele>1374</ele>
        <time>2011-06-26T07:16:33Z</time>
      </trkpt>
      <trkpt lat="46.26016" lon="6.8443">
        <ele>1372</ele>
        <time>2011-06-26T07:16:43Z</time>
      </trkpt>
      <trkpt lat="46.25946" lon="6.84395">
        <ele>1357</ele>
        <time>2011-06-26T07:16:53Z</time>
      </trkpt>
      <trkpt lat="46.25861" lon="6.84409">
        <ele>1343</ele>
        <time>2011-06-26T07:17:04Z</time>
      </trkpt>
      <trkpt lat="46.2575" lon="6.84445">
        <ele>1324</ele>
        <time>2011-06-26T07:17:14Z</time>
      </trkpt>
      <trkpt lat="46.25692" lon="6.84485">
        <ele>1307</ele>
        <time>2011-06-26T07:17:24Z</time>
      </trkpt>
      <trkpt lat="46.2568" lon="6.84502">
        <ele>1301</ele>
        <time>2011-06-26T07:17:35Z</time>
      </trkpt>
      <trkpt lat="46.25681" lon="6.84501">
        <ele>1304</ele>
        <time>2011-06-26T07:17:46Z</time>
      </trkpt>
      <trkpt lat="46.25664" lon="6.8451">
        <ele>1298</ele>
        <time>2011-06-26T07:17:56Z</time>
      </trkpt>
      <trkpt lat="46.2564" lon="6.84515">
        <ele>1298</ele>
        <time>2011-06-26T07:18:06Z</time>
      </trkpt>
      <trkpt lat="46.25612" lon="6.84526">
        <ele>1298</ele>
        <time>2011-06-26T07:18:16Z</time>
      </trkpt>
      <trkpt lat="46.25583" lon="6.84539">
        <ele>1300</ele>
        <time>2011-06-26T07:18:26Z</time>
      </trkpt>
      <trkpt lat="46.25551" lon="6.84547">
        <ele>1304</ele>
        <time>2011-06-26T07:18:36Z</time>
      </trkpt>
      <trkpt lat="46.25521" lon="6.84545">
        <ele>1309</ele>
        <time>2011-06-26T07:18:46Z</time>
      </trkpt>
      <trkpt lat="46.25494" lon="6.84557">
        <ele>1313</ele>
        <time>2011-06-26T07:18:56Z</time>
      </trkpt>
      <trkpt lat="46.25468" lon="6.84575">
        <ele>1314</ele>
        <time>2011-06-26T07:19:06Z</time>
      </trkpt>
      <trkpt lat="46.2544" lon="6.84578">
        <ele>1318</ele>
        <time>2011-06-26T07:19:16Z</time>
      </trkpt>
      <trkpt lat="46.25412" lon="6.84573">
        <ele>1321</ele>
        <time>2011-06-26T07:19:26Z</time>
      </trkpt>
      <trkpt lat="46.25382" lon="6.84585">
        <ele>1324</ele>
        <time>2011-06-26T07:19:36Z</time>
      </trkpt>
      <trkpt lat="46.25353" lon="6.84602">
        <ele>1325</ele>
        <time>2011-06-26T07:19:46Z</time>
      </trkpt>
      <trkpt lat="46.25324" lon="6.84616">
        <ele>1326</ele>
        <time>2011-06-26T07:19:56Z</time>
      </trkpt>
      <trkpt lat="46.25296" lon="6.84628">
        <ele>1327</ele>
        <time>2011-06-26T07:20:06Z</time>
      </trkpt>
      <trkpt lat="46.25267" lon="6.84625">
        <ele>1328</ele>
        <time>2011-06-26T07:20:16Z</time>
      </trkpt>
      <trkpt lat="46.25233" lon="6.84613">
        <ele>1330</ele>
        <time>2011-06-26T07:20:26Z</time>
      </trkpt>
      <trkpt lat="46.25202" lon="6.84609">
        <ele>1331</ele>
        <time>2011-06-26T07:20:36Z</time>
      </trkpt>
      <trkpt lat="46.25171" lon="6.84604">
        <ele>1334</ele>
        <time>2011-06-26T07:20:46Z</time>
      </trkpt>
      <trkpt lat="46.25143" lon="6.84579">
        <ele>1345</ele>
        <time>2011-06-26T07:20:56Z</time>
      </trkpt>
      <trkpt lat="46.25112" lon="6.8457">
        <ele>1355</ele>
        <time>2011-06-26T07:21:06Z</time>
      </trkpt>
      <trkpt lat="46.25081" lon="6.84556">
        <ele>1365</ele>
        <time>2011-06-26T07:21:16Z</time>
      </trkpt>
      <trkpt lat="46.25053" lon="6.84554">
        <ele>1377</ele>
        <time>2011-06-26T07:21:26Z</time>
      </trkpt>
      <trkpt lat="46.25026" lon="6.84557">
        <ele>1386</ele>
        <time>2011-06-26T07:21:36Z</time>
      </trkpt>
      <trkpt lat="46.25003" lon="6.84554">
        <ele>1404</ele>
        <time>2011-06-26T07:21:46Z</time>
      </trkpt>
      <trkpt lat="46.24985" lon="6.8457">
        <ele>1435</ele>
        <time>2011-06-26T07:21:56Z</time>
      </trkpt>
      <trkpt lat="46.24971" lon="6.84581">
        <ele>1435</ele>
        <time>2011-06-26T07:22:07Z</time>
      </trkpt>
      <trkpt lat="46.24957" lon="6.84592">
        <ele>1411</ele>
        <time>2011-06-26T07:22:17Z</time>
      </trkpt>
      <trkpt lat="46.24941" lon="6.846">
        <ele>1393</ele>
        <time>2011-06-26T07:22:27Z</time>
      </trkpt>
      <trkpt lat="46.24914" lon="6.84614">
        <ele>1383</ele>
        <time>2011-06-26T07:22:37Z</time>
      </trkpt>
      <trkpt lat="46.24899" lon="6.84609">
        <ele>1380</ele>
        <time>2011-06-26T07:22:48Z</time>
      </trkpt>
      <trkpt lat="46.24905" lon="6.84612">
        <ele>1377</ele>
        <time>2011-06-26T07:23:00Z</time>
      </trkpt>
      <trkpt lat="46.24905" lon="6.84611">
        <ele>1379</ele>
        <time>2011-06-26T07:23:11Z</time>
      </trkpt>
      <trkpt lat="46.24901" lon="6.84618">
        <ele>1382</ele>
        <time>2011-06-26T07:23:21Z</time>
      </trkpt>
      <trkpt lat="46.24888" lon="6.8462">
        <ele>1383</ele>
        <time>2011-06-26T07:23:31Z</time>
      </trkpt>
      <trkpt lat="46.2486" lon="6.84625">
        <ele>1383</ele>
        <time>2011-06-26T07:23:41Z</time>
      </trkpt>
      <trkpt lat="46.24828" lon="6.84637">
        <ele>1384</ele>
        <time>2011-06-26T07:23:51Z</time>
      </trkpt>
      <trkpt lat="46.24792" lon="6.84648">
        <ele>1389</ele>
        <time>2011-06-26T07:24:01Z</time>
      </trkpt>
      <trkpt lat="46.24757" lon="6.84651">
        <ele>1384</ele>
        <time>2011-06-26T07:24:11Z</time>
      </trkpt>
      <trkpt lat="46.24721" lon="6.84654">
        <ele>1384</ele>
        <time>2011-06-26T07:24:21Z</time>
      </trkpt>
      <trkpt lat="46.24692" lon="6.84666">
        <ele>1387</ele>
        <time>2011-06-26T07:24:31Z</time>
      </trkpt>
      <trkpt lat="46.2465" lon="6.84676">
        <ele>1387</ele>
        <time>2011-06-26T07:24:41Z</time>
      </trkpt>
      <trkpt lat="46.24613" lon="6.84699">
        <ele>1391</ele>
        <time>2011-06-26T07:24:51Z</time>
      </trkpt>
      <trkpt lat="46.2457" lon="6.84725">
        <ele>1390</ele>
        <time>2011-06-26T07:25:01Z</time>
      </trkpt>
      <trkpt lat="46.24525" lon="6.84735">
        <ele>1388</ele>
        <time>2011-06-26T07:25:11Z</time>
      </trkpt>
      <trkpt lat="46.24488" lon="6.84749">
        <ele>1385</ele>
        <time>2011-06-26T07:25:21Z</time>
      </trkpt>
      <trkpt lat="46.24458" lon="6.84767">
        <ele>1385</ele>
        <time>2011-06-26T07:25:31Z</time>
      </trkpt>
      <trkpt lat="46.24429" lon="6.84802">
        <ele>1385</ele>
        <time>2011-06-26T07:25:41Z</time>
      </trkpt>
      <trkpt lat="46.24418" lon="6.84857">
        <ele>1383</ele>
        <time>2011-06-26T07:25:51Z</time>
      </trkpt>
      <trkpt lat="46.24416" lon="6.84917">
        <ele>1383</ele>
        <time>2011-06-26T07:26:01Z</time>
      </trkpt>
      <trkpt lat="46.24385" lon="6.84954">
        <ele>1384</ele>
        <time>2011-06-26T07:26:11Z</time>
      </trkpt>
      <trkpt lat="46.24351" lon="6.84987">
        <ele>1386</ele>
        <time>2011-06-26T07:26:21Z</time>
      </trkpt>
      <trkpt lat="46.24326" lon="6.85031">
        <ele>1391</ele>
        <time>2011-06-26T07:26:31Z</time>
      </trkpt>
      <trkpt lat="46.24282" lon="6.85055">
        <ele>1391</ele>
        <time>2011-06-26T07:26:41Z</time>
      </trkpt>
      <trkpt lat="46.24223" lon="6.8508">
        <ele>1384</ele>
        <time>2011-06-26T07:26:51Z</time>
      </trkpt>
      <trkpt lat="46.24166" lon="6.8509">
        <ele>1381</ele>
        <time>2011-06-26T07:27:01Z</time>
      </trkpt>
      <trkpt lat="46.24105" lon="6.85088">
        <ele>1381</ele>
        <time>2011-06-26T07:27:11Z</time>
      </trkpt>
      <trkpt lat="46.24029" lon="6.85111">
        <ele>1374</ele>
        <time>2011-06-26T07:27:21Z</time>
      </trkpt>
      <trkpt lat="46.23946" lon="6.851">
        <ele>1370</ele>
        <time>2011-06-26T07:27:31Z</time>
      </trkpt>
      <trkpt lat="46.23857" lon="6.85106">
        <ele>1368</ele>
        <time>2011-06-26T07:27:41Z</time>
      </trkpt>
      <trkpt lat="46.23775" lon="6.85155">
        <ele>1369</ele>
        <time>2011-06-26T07:27:51Z</time>
      </trkpt>
      <trkpt lat="46.23701" lon="6.85247">
        <ele>1364</ele>
        <time>2011-06-26T07:28:02Z</time>
      </trkpt>
      <trkpt lat="46.23623" lon="6.85319">
        <ele>1354</ele>
        <time>2011-06-26T07:28:12Z</time>
      </trkpt>
      <trkpt lat="46.23659" lon="6.85399">
        <ele>1344</ele>
        <time>2011-06-26T07:28:22Z</time>
      </trkpt>
      <trkpt lat="46.23673" lon="6.85414">
        <ele>1338</ele>
        <time>2011-06-26T07:28:32Z</time>
      </trkpt>
      <trkpt lat="46.23672" lon="6.85401">
        <ele>1332</ele>
        <time>2011-06-26T07:28:46Z</time>
      </trkpt>
      <trkpt lat="46.23677" lon="6.85408">
        <ele>1335</ele>
        <time>2011-06-26T07:28:58Z</time>
      </trkpt>
      <trkpt lat="46.23678" lon="6.85423">
        <ele>1326</ele>
        <time>2011-06-26T07:29:11Z</time>
      </trkpt>
      <trkpt lat="46.23664" lon="6.8541">
        <ele>1334</ele>
        <time>2011-06-26T07:29:25Z</time>
      </trkpt>
      <trkpt lat="46.23672" lon="6.85418">
        <ele>1334</ele>
        <time>2011-06-26T07:29:36Z</time>
      </trkpt>
      <trkpt lat="46.23676" lon="6.85419">
        <ele>1329</ele>
        <time>2011-06-26T07:29:51Z</time>
      </trkpt>
      <trkpt lat="46.23691" lon="6.85433">
        <ele>1332</ele>
        <time>2011-06-26T07:30:01Z</time>
      </trkpt>
      <trkpt lat="46.23694" lon="6.85526">
        <ele>1326</ele>
        <time>2011-06-26T07:30:11Z</time>
      </trkpt>
      <trkpt lat="46.23684" lon="6.85573">
        <ele>1324</ele>
        <time>2011-06-26T07:30:21Z</time>
      </trkpt>
      <trkpt lat="46.23633" lon="6.85577">
        <ele>1323</ele>
        <time>2011-06-26T07:30:31Z</time>
      </trkpt>
      <trkpt lat="46.23639" lon="6.85633">
        <ele>1323</ele>
        <time>2011-06-26T07:30:41Z</time>
      </trkpt>
      <trkpt lat="46.23638" lon="6.85693">
        <ele>1323</ele>
        <time>2011-06-26T07:30:52Z</time>
      </trkpt>
      <trkpt lat="46.23643" lon="6.85744">
        <ele>1323</ele>
        <time>2011-06-26T07:31:02Z</time>
      </trkpt>
      <trkpt lat="46.23674" lon="6.85798">
        <ele>1318</ele>
        <time>2011-06-26T07:31:12Z</time>
      </trkpt>
      <trkpt lat="46.2367" lon="6.85806">
        <ele>1317</ele>
        <time>2011-06-26T07:31:25Z</time>
      </trkpt>
      <trkpt lat="46.23657" lon="6.85798">
        <ele>1325</ele>
        <time>2011-06-26T07:31:36Z</time>
      </trkpt>
      <trkpt lat="46.23656" lon="6.8579">
        <ele>1332</ele>
        <time>2011-06-26T07:31:46Z</time>
      </trkpt>
      <trkpt lat="46.23662" lon="6.85791">
        <ele>1336</ele>
        <time>2011-06-26T07:31:57Z</time>
      </trkpt>
      <trkpt lat="46.23664" lon="6.85806">
        <ele>1331</ele>
        <time>2011-06-26T07:32:07Z</time>
      </trkpt>
      <trkpt lat="46.23655" lon="6.85813">
        <ele>1324</ele>
        <time>2011-06-26T07:32:19Z</time>
      </trkpt>
      <trkpt lat="46.23634" lon="6.85822">
        <ele>1320</ele>
        <time>2011-06-26T07:32:29Z</time>
      </trkpt>
      <trkpt lat="46.23611" lon="6.85829">
        <ele>1323</ele>
        <time>2011-06-26T07:32:39Z</time>
      </trkpt>
      <trkpt lat="46.2359" lon="6.85836">
        <ele>1332</ele>
        <time>2011-06-26T07:32:49Z</time>
      </trkpt>
      <trkpt lat="46.23566" lon="6.85843">
        <ele>1339</ele>
        <time>2011-06-26T07:32:59Z</time>
      </trkpt>
      <trkpt lat="46.23543" lon="6.8585">
        <ele>1345</ele>
        <time>2011-06-26T07:33:09Z</time>
      </trkpt>
      <trkpt lat="46.23521" lon="6.85856">
        <ele>1354</ele>
        <time>2011-06-26T07:33:19Z</time>
      </trkpt>
      <trkpt lat="46.235" lon="6.85862">
        <ele>1364</ele>
        <time>2011-06-26T07:33:29Z</time>
      </trkpt>
      <trkpt lat="46.23479" lon="6.85868">
        <ele>1375</ele>
        <time>2011-06-26T07:33:40Z</time>
      </trkpt>
      <trkpt lat="46.23457" lon="6.85874">
        <ele>1392</ele>
        <time>2011-06-26T07:33:50Z</time>
      </trkpt>
      <trkpt lat="46.23438" lon="6.8588">
        <ele>1409</ele>
        <time>2011-06-26T07:34:00Z</time>
      </trkpt>
      <trkpt lat="46.23417" lon="6.85885">
        <ele>1421</ele>
        <time>2011-06-26T07:34:10Z</time>
      </trkpt>
      <trkpt lat="46.23397" lon="6.8589">
        <ele>1436</ele>
        <time>2011-06-26T07:34:20Z</time>
      </trkpt>
      <trkpt lat="46.23377" lon="6.85895">
        <ele>1452</ele>
        <time>2011-06-26T07:34:30Z</time>
      </trkpt>
      <trkpt lat="46.23357" lon="6.85901">
        <ele>1469</ele>
        <time>2011-06-26T07:34:40Z</time>
      </trkpt>
      <trkpt lat="46.23336" lon="6.85906">
        <ele>1484</ele>
        <time>2011-06-26T07:34:50Z</time>
      </trkpt>
      <trkpt lat="46.23315" lon="6.85911">
        <ele>1500</ele>
        <time>2011-06-26T07:35:00Z</time>
      </trkpt>
      <trkpt lat="46.23295" lon="6.85916">
        <ele>1515</ele>
        <time>2011-06-26T07:35:10Z</time>
      </trkpt>
      <trkpt lat="46.23275" lon="6.85921">
        <ele>1530</ele>
        <time>2011-06-26T07:35:20Z</time>
      </trkpt>
      <trkpt lat="46.23254" lon="6.85927">
        <ele>1544</ele>
        <time>2011-06-26T07:35:30Z</time>
      </trkpt>
      <trkpt lat="46.23233" lon="6.85933">
        <ele>1555</ele>
        <time>2011-06-26T07:35:40Z</time>
      </trkpt>
      <trkpt lat="46.23211" lon="6.85939">
        <ele>1566</ele>
        <time>2011-06-26T07:35:50Z</time>
      </trkpt>
      <trkpt lat="46.23188" lon="6.85945">
        <ele>1576</ele>
        <time>2011-06-26T07:36:00Z</time>
      </trkpt>
      <trkpt lat="46.23165" lon="6.85951">
        <ele>1586</ele>
        <time>2011-06-26T07:36:10Z</time>
      </trkpt>
      <trkpt lat="46.23141" lon="6.85957">
        <ele>1594</ele>
        <time>2011-06-26T07:36:20Z</time>
      </trkpt>
      <trkpt lat="46.23118" lon="6.85964">
        <ele>1600</ele>
        <time>2011-06-26T07:36:30Z</time>
      </trkpt>
      <trkpt lat="46.23095" lon="6.8597">
        <ele>1608</ele>
        <time>2011-06-26T07:36:40Z</time>
      </trkpt>
      <trkpt lat="46.23073" lon="6.85976">
        <ele>1616</ele>
        <time>2011-06-26T07:36:50Z</time>
      </trkpt>
      <trkpt lat="46.2305" lon="6.85982">
        <ele>1622</ele>
        <time>2011-06-26T07:37:00Z</time>
      </trkpt>
      <trkpt lat="46.23027" lon="6.85988">
        <ele>1628</ele>
        <time>2011-06-26T07:37:10Z</time>
      </trkpt>
      <trkpt lat="46.23004" lon="6.85994">
        <ele>1638</ele>
        <time>2011-06-26T07:37:20Z</time>
      </trkpt>
      <trkpt lat="46.22982" lon="6.85999">
        <ele>1647</ele>
        <time>2011-06-26T07:37:31Z</time>
      </trkpt>
      <trkpt lat="46.22956" lon="6.86007">
        <ele>1654</ele>
        <time>2011-06-26T07:37:41Z</time>
      </trkpt>
      <trkpt lat="46.22932" lon="6.86013">
        <ele>1660</ele>
        <time>2011-06-26T07:37:51Z</time>
      </trkpt>
      <trkpt lat="46.22909" lon="6.8602">
        <ele>1668</ele>
        <time>2011-06-26T07:38:01Z</time>
      </trkpt>
      <trkpt lat="46.22886" lon="6.86027">
        <ele>1675</ele>
        <time>2011-06-26T07:38:11Z</time>
      </trkpt>
      <trkpt lat="46.22862" lon="6.86033">
        <ele>1680</ele>
        <time>2011-06-26T07:38:21Z</time>
      </trkpt>
      <trkpt lat="46.22839" lon="6.86039">
        <ele>1688</ele>
        <time>2011-06-26T07:38:31Z</time>
      </trkpt>
      <trkpt lat="46.22816" lon="6.86046">
        <ele>1695</ele>
        <time>2011-06-26T07:38:41Z</time>
      </trkpt>
      <trkpt lat="46.22792" lon="6.86052">
        <ele>1699</ele>
        <time>2011-06-26T07:38:51Z</time>
      </trkpt>
      <trkpt lat="46.22769" lon="6.86058">
        <ele>1705</ele>
        <time>2011-06-26T07:39:01Z</time>
      </trkpt>
      <trkpt lat="46.22745" lon="6.86064">
        <ele>1710</ele>
        <time>2011-06-26T07:39:11Z</time>
      </trkpt>
      <trkpt lat="46.22723" lon="6.8607">
        <ele>1720</ele>
        <time>2011-06-26T07:39:21Z</time>
      </trkpt>
      <trkpt lat="46.22701" lon="6.86077">
        <ele>1730</ele>
        <time>2011-06-26T07:39:31Z</time>
      </trkpt>
      <trkpt lat="46.22679" lon="6.86082">
        <ele>1740</ele>
        <time>2011-06-26T07:39:41Z</time>
      </trkpt>
      <trkpt lat="46.22657" lon="6.86088">
        <ele>1750</ele>
        <time>2011-06-26T07:39:51Z</time>
      </trkpt>
      <trkpt lat="46.22636" lon="6.86094">
        <ele>1763</ele>
        <time>2011-06-26T07:40:01Z</time>
      </trkpt>
      <trkpt lat="46.22614" lon="6.861">
        <ele>1775</ele>
        <time>2011-06-26T07:40:12Z</time>
      </trkpt>
      <trkpt lat="46.22589" lon="6.86106">
        <ele>1787</ele>
        <time>2011-06-26T07:40:22Z</time>
      </trkpt>
      <trkpt lat="46.22566" lon="6.86113">
        <ele>1797</ele>
        <time>2011-06-26T07:40:32Z</time>
      </trkpt>
      <trkpt lat="46.22544" lon="6.86118">
        <ele>1807</ele>
        <time>2011-06-26T07:40:42Z</time>
      </trkpt>
      <trkpt lat="46.2252" lon="6.86124">
        <ele>1813</ele>
        <time>2011-06-26T07:40:52Z</time>
      </trkpt>
      <trkpt lat="46.22506" lon="6.86127">
        <ele>1814</ele>
        <time>2011-06-26T07:41:02Z</time>
      </trkpt>
      <trkpt lat="46.22498" lon="6.86128">
        <ele>1814</ele>
        <time>2011-06-26T07:41:14Z</time>
      </trkpt>
      <trkpt lat="46.22491" lon="6.86128">
        <ele>1814</ele>
        <time>2011-06-26T07:41:35Z</time>
      </trkpt>
      <trkpt lat="46.22483" lon="6.86136">
        <ele>1814</ele>
        <time>2011-06-26T07:41:45Z</time>
      </trkpt>
      <trkpt lat="46.22433" lon="6.86164">
        <ele>1811</ele>
        <time>2011-06-26T07:41:55Z</time>
      </trkpt>
      <trkpt lat="46.22399" lon="6.86183">
        <ele>1807</ele>
        <time>2011-06-26T07:42:05Z</time>
      </trkpt>
      <trkpt lat="46.22342" lon="6.86177">
        <ele>1798</ele>
        <time>2011-06-26T07:42:15Z</time>
      </trkpt>
      <trkpt lat="46.22299" lon="6.86169">
        <ele>1785</ele>
        <time>2011-06-26T07:42:28Z</time>
      </trkpt>
      <trkpt lat="46.22261" lon="6.86191">
        <ele>1776</ele>
        <time>2011-06-26T07:42:38Z</time>
      </trkpt>
      <trkpt lat="46.22219" lon="6.86188">
        <ele>1766</ele>
        <time>2011-06-26T07:42:48Z</time>
      </trkpt>
      <trkpt lat="46.22177" lon="6.86196">
        <ele>1756</ele>
        <time>2011-06-26T07:42:58Z</time>
      </trkpt>
      <trkpt lat="46.2214" lon="6.86228">
        <ele>1746</ele>
        <time>2011-06-26T07:43:08Z</time>
      </trkpt>
      <trkpt lat="46.22116" lon="6.86183">
        <ele>1736</ele>
        <time>2011-06-26T07:43:18Z</time>
      </trkpt>
      <trkpt lat="46.2208" lon="6.86171">
        <ele>1727</ele>
        <time>2011-06-26T07:43:28Z</time>
      </trkpt>
      <trkpt lat="46.22067" lon="6.86106">
        <ele>1727</ele>
        <time>2011-06-26T07:43:38Z</time>
      </trkpt>
      <trkpt lat="46.22046" lon="6.86048">
        <ele>1727</ele>
        <time>2011-06-26T07:43:48Z</time>
      </trkpt>
      <trkpt lat="46.22018" lon="6.86002">
        <ele>1728</ele>
        <time>2011-06-26T07:43:58Z</time>
      </trkpt>
      <trkpt lat="46.22009" lon="6.85966">
        <ele>1731</ele>
        <time>2011-06-26T07:44:08Z</time>
      </trkpt>
      <trkpt lat="46.21967" lon="6.85938">
        <ele>1733</ele>
        <time>2011-06-26T07:44:18Z</time>
      </trkpt>
      <trkpt lat="46.21906" lon="6.85938">
        <ele>1733</ele>
        <time>2011-06-26T07:44:28Z</time>
      </trkpt>
      <trkpt lat="46.21842" lon="6.85948">
        <ele>1733</ele>
        <time>2011-06-26T07:44:38Z</time>
      </trkpt>
      <trkpt lat="46.2179" lon="6.85977">
        <ele>1733</ele>
        <time>2011-06-26T07:44:48Z</time>
      </trkpt>
      <trkpt lat="46.21771" lon="6.86036">
        <ele>1734</ele>
        <time>2011-06-26T07:44:58Z</time>
      </trkpt>
      <trkpt lat="46.21741" lon="6.86076">
        <ele>1735</ele>
        <time>2011-06-26T07:45:08Z</time>
      </trkpt>
      <trkpt lat="46.21714" lon="6.86116">
        <ele>1735</ele>
        <time>2011-06-26T07:45:18Z</time>
      </trkpt>
      <trkpt lat="46.21684" lon="6.86109">
        <ele>1736</ele>
        <time>2011-06-26T07:45:28Z</time>
      </trkpt>
      <trkpt lat="46.2165" lon="6.86074">
        <ele>1736</ele>
        <time>2011-06-26T07:45:38Z</time>
      </trkpt>
      <trkpt lat="46.21623" lon="6.86036">
        <ele>1736</ele>
        <time>2011-06-26T07:45:48Z</time>
      </trkpt>
      <trkpt lat="46.21598" lon="6.85994">
        <ele>1737</ele>
        <time>2011-06-26T07:45:58Z</time>
      </trkpt>
      <trkpt lat="46.21571" lon="6.85951">
        <ele>1738</ele>
        <time>2011-06-26T07:46:08Z</time>
      </trkpt>
      <trkpt lat="46.21547" lon="6.85912">
        <ele>1739</ele>
        <time>2011-06-26T07:46:18Z</time>
      </trkpt>
      <trkpt lat="46.21533" lon="6.85861">
        <ele>1740</ele>
        <time>2011-06-26T07:46:28Z</time>
      </trkpt>
      <trkpt lat="46.21509" lon="6.85817">
        <ele>1740</ele>
        <time>2011-06-26T07:46:39Z</time>
      </trkpt>
      <trkpt lat="46.21481" lon="6.8578">
        <ele>1743</ele>
        <time>2011-06-26T07:46:49Z</time>
      </trkpt>
      <trkpt lat="46.21451" lon="6.85728">
        <ele>1744</ele>
        <time>2011-06-26T07:46:59Z</time>
      </trkpt>
      <trkpt lat="46.21413" lon="6.85676">
        <ele>1745</ele>
        <time>2011-06-26T07:47:09Z</time>
      </trkpt>
      <trkpt lat="46.21357" lon="6.85629">
        <ele>1746</ele>
        <time>2011-06-26T07:47:19Z</time>
      </trkpt>
      <trkpt lat="46.21305" lon="6.85562">
        <ele>1746</ele>
        <time>2011-06-26T07:47:29Z</time>
      </trkpt>
      <trkpt lat="46.2126" lon="6.85506">
        <ele>1746</ele>
        <time>2011-06-26T07:47:39Z</time>
      </trkpt>
      <trkpt lat="46.21221" lon="6.85453">
        <ele>1746</ele>
        <time>2011-06-26T07:47:49Z</time>
      </trkpt>
      <trkpt lat="46.21168" lon="6.8541">
        <ele>1746</ele>
        <time>2011-06-26T07:47:59Z</time>
      </trkpt>
      <trkpt lat="46.21111" lon="6.85328">
        <ele>1738</ele>
        <time>2011-06-26T07:48:09Z</time>
      </trkpt>
      <trkpt lat="46.21128" lon="6.85413">
        <ele>1729</ele>
        <time>2011-06-26T07:48:19Z</time>
      </trkpt>
      <trkpt lat="46.21114" lon="6.8548">
        <ele>1722</ele>
        <time>2011-06-26T07:48:29Z</time>
      </trkpt>
      <trkpt lat="46.21037" lon="6.85548">
        <ele>1714</ele>
        <time>2011-06-26T07:48:40Z</time>
      </trkpt>
      <trkpt lat="46.20953" lon="6.85648">
        <ele>1705</ele>
        <time>2011-06-26T07:48:50Z</time>
      </trkpt>
      <trkpt lat="46.20873" lon="6.85656">
        <ele>1697</ele>
        <time>2011-06-26T07:49:00Z</time>
      </trkpt>
      <trkpt lat="46.20816" lon="6.85671">
        <ele>1694</ele>
        <time>2011-06-26T07:49:10Z</time>
      </trkpt>
      <trkpt lat="46.20775" lon="6.8573">
        <ele>1694</ele>
        <time>2011-06-26T07:49:20Z</time>
      </trkpt>
      <trkpt lat="46.20727" lon="6.85761">
        <ele>1699</ele>
        <time>2011-06-26T07:49:30Z</time>
      </trkpt>
      <trkpt lat="46.20689" lon="6.85781">
        <ele>1705</ele>
        <time>2011-06-26T07:49:40Z</time>
      </trkpt>
      <trkpt lat="46.20663" lon="6.8582">
        <ele>1709</ele>
        <time>2011-06-26T07:49:50Z</time>
      </trkpt>
      <trkpt lat="46.20615" lon="6.85847">
        <ele>1709</ele>
        <time>2011-06-26T07:50:00Z</time>
      </trkpt>
      <trkpt lat="46.2058" lon="6.85837">
        <ele>1709</ele>
        <time>2011-06-26T07:50:10Z</time>
      </trkpt>
      <trkpt lat="46.2059" lon="6.85837">
        <ele>1709</ele>
        <time>2011-06-26T07:50:20Z</time>
      </trkpt>
      <trkpt lat="46.20604" lon="6.85849">
        <ele>1707</ele>
        <time>2011-06-26T07:50:33Z</time>
      </trkpt>
      <trkpt lat="46.20572" lon="6.85847">
        <ele>1700</ele>
        <time>2011-06-26T07:50:43Z</time>
      </trkpt>
      <trkpt lat="46.2056" lon="6.85866">
        <ele>1692</ele>
        <time>2011-06-26T07:50:53Z</time>
      </trkpt>
      <trkpt lat="46.20635" lon="6.8591">
        <ele>1683</ele>
        <time>2011-06-26T07:51:03Z</time>
      </trkpt>
      <trkpt lat="46.20734" lon="6.85946">
        <ele>1673</ele>
        <time>2011-06-26T07:51:13Z</time>
      </trkpt>
      <trkpt lat="46.20713" lon="6.86013">
        <ele>1664</ele>
        <time>2011-06-26T07:51:24Z</time>
      </trkpt>
      <trkpt lat="46.20676" lon="6.86009">
        <ele>1663</ele>
        <time>2011-06-26T07:51:35Z</time>
      </trkpt>
      <trkpt lat="46.20671" lon="6.8601">
        <ele>1661</ele>
        <time>2011-06-26T07:51:46Z</time>
      </trkpt>
      <trkpt lat="46.20668" lon="6.86015">
        <ele>1669</ele>
        <time>2011-06-26T07:51:56Z</time>
      </trkpt>
      <trkpt lat="46.20666" lon="6.86012">
        <ele>1666</ele>
        <time>2011-06-26T07:52:08Z</time>
      </trkpt>
      <trkpt lat="46.2067" lon="6.8601">
        <ele>1660</ele>
        <time>2011-06-26T07:52:19Z</time>
      </trkpt>
      <trkpt lat="46.20668" lon="6.85994">
        <ele>1649</ele>
        <time>2011-06-26T07:52:32Z</time>
      </trkpt>
      <trkpt lat="46.20662" lon="6.85975">
        <ele>1654</ele>
        <time>2011-06-26T07:52:43Z</time>
      </trkpt>
      <trkpt lat="46.20659" lon="6.85958">
        <ele>1664</ele>
        <time>2011-06-26T07:52:53Z</time>
      </trkpt>
      <trkpt lat="46.20656" lon="6.8594">
        <ele>1672</ele>
        <time>2011-06-26T07:53:04Z</time>
      </trkpt>
      <trkpt lat="46.20653" lon="6.85923">
        <ele>1679</ele>
        <time>2011-06-26T07:53:14Z</time>
      </trkpt>
      <trkpt lat="46.20651" lon="6.85909">
        <ele>1683</ele>
        <time>2011-06-26T07:53:24Z</time>
      </trkpt>
      <trkpt lat="46.20649" lon="6.85894">
        <ele>1687</ele>
        <time>2011-06-26T07:53:34Z</time>
      </trkpt>
      <trkpt lat="46.20646" lon="6.85878">
        <ele>1693</ele>
        <time>2011-06-26T07:53:45Z</time>
      </trkpt>
      <trkpt lat="46.20643" lon="6.85863">
        <ele>1704</ele>
        <time>2011-06-26T07:53:56Z</time>
      </trkpt>
      <trkpt lat="46.20641" lon="6.85846">
        <ele>1711</ele>
        <time>2011-06-26T07:54:06Z</time>
      </trkpt>
      <trkpt lat="46.20639" lon="6.8583">
        <ele>1715</ele>
        <time>2011-06-26T07:54:16Z</time>
      </trkpt>
      <trkpt lat="46.20634" lon="6.8581">
        <ele>1720</ele>
        <time>2011-06-26T07:54:27Z</time>
      </trkpt>
      <trkpt lat="46.20631" lon="6.85794">
        <ele>1721</ele>
        <time>2011-06-26T07:54:37Z</time>
      </trkpt>
      <trkpt lat="46.20628" lon="6.85776">
        <ele>1723</ele>
        <time>2011-06-26T07:54:47Z</time>
      </trkpt>
      <trkpt lat="46.20625" lon="6.85759">
        <ele>1726</ele>
        <time>2011-06-26T07:54:57Z</time>
      </trkpt>
      <trkpt lat="46.20623" lon="6.85742">
        <ele>1728</ele>
        <time>2011-06-26T07:55:07Z</time>
      </trkpt>
      <trkpt lat="46.2062" lon="6.85726">
        <ele>1730</ele>
        <time>2011-06-26T07:55:17Z</time>
      </trkpt>
      <trkpt lat="46.20617" lon="6.85709">
        <ele>1732</ele>
        <time>2011-06-26T07:55:27Z</time>
      </trkpt>
      <trkpt lat="46.20615" lon="6.85693">
        <ele>1735</ele>
        <time>2011-06-26T07:55:37Z</time>
      </trkpt>
      <trkpt lat="46.20613" lon="6.85677">
        <ele>1740</ele>
        <time>2011-06-26T07:55:47Z</time>
      </trkpt>
      <trkpt lat="46.2061" lon="6.85661">
        <ele>1748</ele>
        <time>2011-06-26T07:55:57Z</time>
      </trkpt>
      <trkpt lat="46.20608" lon="6.85646">
        <ele>1755</ele>
        <time>2011-06-26T07:56:07Z</time>
      </trkpt>
      <trkpt lat="46.20605" lon="6.85631">
        <ele>1761</ele>
        <time>2011-06-26T07:56:17Z</time>
      </trkpt>
      <trkpt lat="46.20603" lon="6.85616">
        <ele>1768</ele>
        <time>2011-06-26T07:56:27Z</time>
      </trkpt>
      <trkpt lat="46.20601" lon="6.85601">
        <ele>1773</ele>
        <time>2011-06-26T07:56:37Z</time>
      </trkpt>
      <trkpt lat="46.20598" lon="6.85585">
        <ele>1778</ele>
        <time>2011-06-26T07:56:47Z</time>
      </trkpt>
      <trkpt lat="46.20595" lon="6.8557">
        <ele>1784</ele>
        <time>2011-06-26T07:56:57Z</time>
      </trkpt>
      <trkpt lat="46.20593" lon="6.85555">
        <ele>1790</ele>
        <time>2011-06-26T07:57:07Z</time>
      </trkpt>
      <trkpt lat="46.2059" lon="6.85539">
        <ele>1796</ele>
        <time>2011-06-26T07:57:17Z</time>
      </trkpt>
      <trkpt lat="46.20588" lon="6.85525">
        <ele>1801</ele>
        <time>2011-06-26T07:57:27Z</time>
      </trkpt>
      <trkpt lat="46.20585" lon="6.8551">
        <ele>1807</ele>
        <time>2011-06-26T07:57:37Z</time>
      </trkpt>
      <trkpt lat="46.20583" lon="6.85496">
        <ele>1813</ele>
        <time>2011-06-26T07:57:47Z</time>
      </trkpt>
      <trkpt lat="46.2058" lon="6.85481">
        <ele>1819</ele>
        <time>2011-06-26T07:57:57Z</time>
      </trkpt>
      <trkpt lat="46.20577" lon="6.85465">
        <ele>1824</ele>
        <time>2011-06-26T07:58:07Z</time>
      </trkpt>
      <trkpt lat="46.20574" lon="6.85448">
        <ele>1827</ele>
        <time>2011-06-26T07:58:17Z</time>
      </trkpt>
      <trkpt lat="46.20571" lon="6.85431">
        <ele>1828</ele>
        <time>2011-06-26T07:58:27Z</time>
      </trkpt>
      <trkpt lat="46.20569" lon="6.85419">
        <ele>1831</ele>
        <time>2011-06-26T07:58:37Z</time>
      </trkpt>
      <trkpt lat="46.20567" lon="6.85408">
        <ele>1833</ele>
        <time>2011-06-26T07:58:47Z</time>
      </trkpt>
      <trkpt lat="46.20564" lon="6.85392">
        <ele>1835</ele>
        <time>2011-06-26T07:58:57Z</time>
      </trkpt>
      <trkpt lat="46.20562" lon="6.85376">
        <ele>1838</ele>
        <time>2011-06-26T07:59:07Z</time>
      </trkpt>
      <trkpt lat="46.20559" lon="6.8536">
        <ele>1841</ele>
        <time>2011-06-26T07:59:17Z</time>
      </trkpt>
      <trkpt lat="46.20557" lon="6.85344">
        <ele>1845</ele>
        <time>2011-06-26T07:59:27Z</time>
      </trkpt>
      <trkpt lat="46.20554" lon="6.85328">
        <ele>1850</ele>
        <time>2011-06-26T07:59:38Z</time>
      </trkpt>
      <trkpt lat="46.20551" lon="6.85312">
        <ele>1855</ele>
        <time>2011-06-26T07:59:48Z</time>
      </trkpt>
      <trkpt lat="46.20549" lon="6.85296">
        <ele>1861</ele>
        <time>2011-06-26T07:59:58Z</time>
      </trkpt>
      <trkpt lat="46.20546" lon="6.85281">
        <ele>1867</ele>
        <time>2011-06-26T08:00:08Z</time>
      </trkpt>
      <trkpt lat="46.20544" lon="6.85266">
        <ele>1873</ele>
        <time>2011-06-26T08:00:18Z</time>
      </trkpt>
      <trkpt lat="46.20541" lon="6.85251">
        <ele>1879</ele>
        <time>2011-06-26T08:00:29Z</time>
      </trkpt>
      <trkpt lat="46.20538" lon="6.85235">
        <ele>1886</ele>
        <time>2011-06-26T08:00:39Z</time>
      </trkpt>
      <trkpt lat="46.20536" lon="6.8522">
        <ele>1893</ele>
        <time>2011-06-26T08:00:49Z</time>
      </trkpt>
      <trkpt lat="46.20534" lon="6.85205">
        <ele>1899</ele>
        <time>2011-06-26T08:00:59Z</time>
      </trkpt>
      <trkpt lat="46.20531" lon="6.8519">
        <ele>1906</ele>
        <time>2011-06-26T08:01:09Z</time>
      </trkpt>
      <trkpt lat="46.20529" lon="6.85176">
        <ele>1913</ele>
        <time>2011-06-26T08:01:19Z</time>
      </trkpt>
      <trkpt lat="46.20527" lon="6.85161">
        <ele>1919</ele>
        <time>2011-06-26T08:01:29Z</time>
      </trkpt>
      <trkpt lat="46.20524" lon="6.85147">
        <ele>1926</ele>
        <time>2011-06-26T08:01:39Z</time>
      </trkpt>
      <trkpt lat="46.20522" lon="6.85132">
        <ele>1933</ele>
        <time>2011-06-26T08:01:50Z</time>
      </trkpt>
      <trkpt lat="46.20519" lon="6.85117">
        <ele>1941</ele>
        <time>2011-06-26T08:02:00Z</time>
      </trkpt>
      <trkpt lat="46.20517" lon="6.85103">
        <ele>1948</ele>
        <time>2011-06-26T08:02:10Z</time>
      </trkpt>
      <trkpt lat="46.20515" lon="6.85089">
        <ele>1957</ele>
        <time>2011-06-26T08:02:20Z</time>
      </trkpt>
      <trkpt lat="46.20512" lon="6.85074">
        <ele>1964</ele>
        <time>2011-06-26T08:02:30Z</time>
      </trkpt>
      <trkpt lat="46.20509" lon="6.85058">
        <ele>1969</ele>
        <time>2011-06-26T08:02:40Z</time>
      </trkpt>
      <trkpt lat="46.20507" lon="6.85042">
        <ele>1972</ele>
        <time>2011-06-26T08:02:50Z</time>
      </trkpt>
      <trkpt lat="46.20504" lon="6.85026">
        <ele>1976</ele>
        <time>2011-06-26T08:03:00Z</time>
      </trkpt>
      <trkpt lat="46.20501" lon="6.8501">
        <ele>1980</ele>
        <time>2011-06-26T08:03:11Z</time>
      </trkpt>
      <trkpt lat="46.20499" lon="6.84992">
        <ele>1985</ele>
        <time>2011-06-26T08:03:21Z</time>
      </trkpt>
      <trkpt lat="46.20496" lon="6.84979">
        <ele>1989</ele>
        <time>2011-06-26T08:03:32Z</time>
      </trkpt>
      <trkpt lat="46.20494" lon="6.84967">
        <ele>1992</ele>
        <time>2011-06-26T08:03:42Z</time>
      </trkpt>
      <trkpt lat="46.20491" lon="6.84951">
        <ele>1996</ele>
        <time>2011-06-26T08:03:52Z</time>
      </trkpt>
      <trkpt lat="46.20489" lon="6.84935">
        <ele>2001</ele>
        <time>2011-06-26T08:04:02Z</time>
      </trkpt>
      <trkpt lat="46.20486" lon="6.84919">
        <ele>2005</ele>
        <time>2011-06-26T08:04:12Z</time>
      </trkpt>
      <trkpt lat="46.20483" lon="6.84903">
        <ele>2010</ele>
        <time>2011-06-26T08:04:22Z</time>
      </trkpt>
      <trkpt lat="46.2048" lon="6.84886">
        <ele>2013</ele>
        <time>2011-06-26T08:04:32Z</time>
      </trkpt>
      <trkpt lat="46.20478" lon="6.8487">
        <ele>2015</ele>
        <time>2011-06-26T08:04:42Z</time>
      </trkpt>
      <trkpt lat="46.20474" lon="6.84853">
        <ele>2019</ele>
        <time>2011-06-26T08:04:52Z</time>
      </trkpt>
      <trkpt lat="46.20471" lon="6.84836">
        <ele>2021</ele>
        <time>2011-06-26T08:05:02Z</time>
      </trkpt>
      <trkpt lat="46.20469" lon="6.84819">
        <ele>2023</ele>
        <time>2011-06-26T08:05:13Z</time>
      </trkpt>
      <trkpt lat="46.20464" lon="6.84803">
        <ele>2024</ele>
        <time>2011-06-26T08:05:23Z</time>
      </trkpt>
      <trkpt lat="46.20464" lon="6.84791">
        <ele>2026</ele>
        <time>2011-06-26T08:05:34Z</time>
      </trkpt>
      <trkpt lat="46.20456" lon="6.84771">
        <ele>2023</ele>
        <time>2011-06-26T08:05:44Z</time>
      </trkpt>
      <trkpt lat="46.2045" lon="6.84752">
        <ele>2023</ele>
        <time>2011-06-26T08:05:54Z</time>
      </trkpt>
      <trkpt lat="46.20439" lon="6.8473">
        <ele>2023</ele>
        <time>2011-06-26T08:06:04Z</time>
      </trkpt>
      <trkpt lat="46.2043" lon="6.84708">
        <ele>2026</ele>
        <time>2011-06-26T08:06:14Z</time>
      </trkpt>
      <trkpt lat="46.20418" lon="6.84694">
        <ele>2030</ele>
        <time>2011-06-26T08:06:24Z</time>
      </trkpt>
      <trkpt lat="46.20407" lon="6.84678">
        <ele>2033</ele>
        <time>2011-06-26T08:06:35Z</time>
      </trkpt>
      <trkpt lat="46.20397" lon="6.84659">
        <ele>2035</ele>
        <time>2011-06-26T08:06:45Z</time>
      </trkpt>
      <trkpt lat="46.20384" lon="6.84642">
        <ele>2036</ele>
        <time>2011-06-26T08:06:55Z</time>
      </trkpt>
      <trkpt lat="46.2037" lon="6.84625">
        <ele>2038</ele>
        <time>2011-06-26T08:07:05Z</time>
      </trkpt>
      <trkpt lat="46.2035" lon="6.846">
        <ele>2039</ele>
        <time>2011-06-26T08:07:16Z</time>
      </trkpt>
      <trkpt lat="46.20302" lon="6.84557">
        <ele>2039</ele>
        <time>2011-06-26T08:07:26Z</time>
      </trkpt>
      <trkpt lat="46.20244" lon="6.8452">
        <ele>2033</ele>
        <time>2011-06-26T08:07:36Z</time>
      </trkpt>
      <trkpt lat="46.20208" lon="6.84484">
        <ele>2032</ele>
        <time>2011-06-26T08:07:46Z</time>
      </trkpt>
      <trkpt lat="46.20186" lon="6.84459">
        <ele>2032</ele>
        <time>2011-06-26T08:07:56Z</time>
      </trkpt>
      <trkpt lat="46.20168" lon="6.84445">
        <ele>2033</ele>
        <time>2011-06-26T08:08:06Z</time>
      </trkpt>
      <trkpt lat="46.20155" lon="6.84432">
        <ele>2039</ele>
        <time>2011-06-26T08:08:17Z</time>
      </trkpt>
      <trkpt lat="46.20133" lon="6.84422">
        <ele>2041</ele>
        <time>2011-06-26T08:08:27Z</time>
      </trkpt>
      <trkpt lat="46.20109" lon="6.84415">
        <ele>2043</ele>
        <time>2011-06-26T08:08:37Z</time>
      </trkpt>
      <trkpt lat="46.20085" lon="6.84405">
        <ele>2044</ele>
        <time>2011-06-26T08:08:47Z</time>
      </trkpt>
      <trkpt lat="46.20063" lon="6.84392">
        <ele>2047</ele>
        <time>2011-06-26T08:08:57Z</time>
      </trkpt>
      <trkpt lat="46.20044" lon="6.84391">
        <ele>2050</ele>
        <time>2011-06-26T08:09:07Z</time>
      </trkpt>
      <trkpt lat="46.20017" lon="6.84396">
        <ele>2050</ele>
        <time>2011-06-26T08:09:17Z</time>
      </trkpt>
      <trkpt lat="46.19992" lon="6.84396">
        <ele>2050</ele>
        <time>2011-06-26T08:09:27Z</time>
      </trkpt>
      <trkpt lat="46.19967" lon="6.84367">
        <ele>2050</ele>
        <time>2011-06-26T08:09:37Z</time>
      </trkpt>
      <trkpt lat="46.19941" lon="6.84349">
        <ele>2050</ele>
        <time>2011-06-26T08:09:47Z</time>
      </trkpt>
      <trkpt lat="46.19918" lon="6.84327">
        <ele>2050</ele>
        <time>2011-06-26T08:09:57Z</time>
      </trkpt>
      <trkpt lat="46.19905" lon="6.84304">
        <ele>2050</ele>
        <time>2011-06-26T08:10:07Z</time>
      </trkpt>
      <trkpt lat="46.19892" lon="6.84278">
        <ele>2050</ele>
        <time>2011-06-26T08:10:17Z</time>
      </trkpt>
      <trkpt lat="46.19862" lon="6.84263">
        <ele>2050</ele>
        <time>2011-06-26T08:10:27Z</time>
      </trkpt>
      <trkpt lat="46.19826" lon="6.84244">
        <ele>2050</ele>
        <time>2011-06-26T08:10:37Z</time>
      </trkpt>
      <trkpt lat="46.1979" lon="6.8423">
        <ele>2050</ele>
        <time>2011-06-26T08:10:47Z</time>
      </trkpt>
      <trkpt lat="46.19748" lon="6.84238">
        <ele>2048</ele>
        <time>2011-06-26T08:10:57Z</time>
      </trkpt>
      <trkpt lat="46.19714" lon="6.84239">
        <ele>2042</ele>
        <time>2011-06-26T08:11:07Z</time>
      </trkpt>
      <trkpt lat="46.19704" lon="6.84205">
        <ele>2035</ele>
        <time>2011-06-26T08:11:18Z</time>
      </trkpt>
      <trkpt lat="46.19677" lon="6.84202">
        <ele>2029</ele>
        <time>2011-06-26T08:11:29Z</time>
      </trkpt>
      <trkpt lat="46.19673" lon="6.84213">
        <ele>2027</ele>
        <time>2011-06-26T08:11:41Z</time>
      </trkpt>
      <trkpt lat="46.19636" lon="6.84244">
        <ele>2019</ele>
        <time>2011-06-26T08:11:51Z</time>
      </trkpt>
      <trkpt lat="46.19587" lon="6.84234">
        <ele>2009</ele>
        <time>2011-06-26T08:12:01Z</time>
      </trkpt>
      <trkpt lat="46.19573" lon="6.84186">
        <ele>2006</ele>
        <time>2011-06-26T08:12:11Z</time>
      </trkpt>
      <trkpt lat="46.19571" lon="6.84173">
        <ele>2006</ele>
        <time>2011-06-26T08:12:21Z</time>
      </trkpt>
      <trkpt lat="46.19561" lon="6.84105">
        <ele>2002</ele>
        <time>2011-06-26T08:12:31Z</time>
      </trkpt>
      <trkpt lat="46.19542" lon="6.84029">
        <ele>1994</ele>
        <time>2011-06-26T08:12:41Z</time>
      </trkpt>
      <trkpt lat="46.19538" lon="6.83963">
        <ele>1984</ele>
        <time>2011-06-26T08:12:51Z</time>
      </trkpt>
      <trkpt lat="46.19533" lon="6.83897">
        <ele>1980</ele>
        <time>2011-06-26T08:13:01Z</time>
      </trkpt>
      <trkpt lat="46.19521" lon="6.83838">
        <ele>1978</ele>
        <time>2011-06-26T08:13:11Z</time>
      </trkpt>
      <trkpt lat="46.19504" lon="6.83889">
        <ele>1969</ele>
        <time>2011-06-26T08:13:21Z</time>
      </trkpt>
      <trkpt lat="46.19466" lon="6.83907">
        <ele>1959</ele>
        <time>2011-06-26T08:13:31Z</time>
      </trkpt>
      <trkpt lat="46.19437" lon="6.83861">
        <ele>1953</ele>
        <time>2011-06-26T08:13:41Z</time>
      </trkpt>
      <trkpt lat="46.19412" lon="6.8382">
        <ele>1946</ele>
        <time>2011-06-26T08:13:51Z</time>
      </trkpt>
      <trkpt lat="46.19379" lon="6.83809">
        <ele>1937</ele>
        <time>2011-06-26T08:14:01Z</time>
      </trkpt>
      <trkpt lat="46.19347" lon="6.83773">
        <ele>1927</ele>
        <time>2011-06-26T08:14:11Z</time>
      </trkpt>
      <trkpt lat="46.19376" lon="6.83708">
        <ele>1917</ele>
        <time>2011-06-26T08:14:21Z</time>
      </trkpt>
      <trkpt lat="46.19373" lon="6.83673">
        <ele>1910</ele>
        <time>2011-06-26T08:14:32Z</time>
      </trkpt>
      <trkpt lat="46.1932" lon="6.83725">
        <ele>1902</ele>
        <time>2011-06-26T08:14:43Z</time>
      </trkpt>
      <trkpt lat="46.19288" lon="6.83791">
        <ele>1892</ele>
        <time>2011-06-26T08:14:53Z</time>
      </trkpt>
      <trkpt lat="46.19239" lon="6.83816">
        <ele>1883</ele>
        <time>2011-06-26T08:15:03Z</time>
      </trkpt>
      <trkpt lat="46.19223" lon="6.83711">
        <ele>1873</ele>
        <time>2011-06-26T08:15:13Z</time>
      </trkpt>
      <trkpt lat="46.1923" lon="6.83579">
        <ele>1863</ele>
        <time>2011-06-26T08:15:23Z</time>
      </trkpt>
      <trkpt lat="46.19193" lon="6.83559">
        <ele>1853</ele>
        <time>2011-06-26T08:15:33Z</time>
      </trkpt>
      <trkpt lat="46.19113" lon="6.83563">
        <ele>1843</ele>
        <time>2011-06-26T08:15:43Z</time>
      </trkpt>
      <trkpt lat="46.19063" lon="6.83648">
        <ele>1830</ele>
        <time>2011-06-26T08:15:53Z</time>
      </trkpt>
      <trkpt lat="46.19027" lon="6.83629">
        <ele>1821</ele>
        <time>2011-06-26T08:16:03Z</time>
      </trkpt>
      <trkpt lat="46.18995" lon="6.83605">
        <ele>1821</ele>
        <time>2011-06-26T08:16:13Z</time>
      </trkpt>
      <trkpt lat="46.18968" lon="6.83543">
        <ele>1819</ele>
        <time>2011-06-26T08:16:23Z</time>
      </trkpt>
      <trkpt lat="46.18929" lon="6.83451">
        <ele>1815</ele>
        <time>2011-06-26T08:16:33Z</time>
      </trkpt>
      <trkpt lat="46.18865" lon="6.8339">
        <ele>1815</ele>
        <time>2011-06-26T08:16:43Z</time>
      </trkpt>
      <trkpt lat="46.18828" lon="6.83285">
        <ele>1811</ele>
        <time>2011-06-26T08:16:53Z</time>
      </trkpt>
      <trkpt lat="46.18768" lon="6.83191">
        <ele>1810</ele>
        <time>2011-06-26T08:17:03Z</time>
      </trkpt>
      <trkpt lat="46.18731" lon="6.83115">
        <ele>1810</ele>
        <time>2011-06-26T08:17:13Z</time>
      </trkpt>
      <trkpt lat="46.18727" lon="6.83047">
        <ele>1810</ele>
        <time>2011-06-26T08:17:23Z</time>
      </trkpt>
      <trkpt lat="46.18723" lon="6.83001">
        <ele>1810</ele>
        <time>2011-06-26T08:17:33Z</time>
      </trkpt>
      <trkpt lat="46.18709" lon="6.82959">
        <ele>1810</ele>
        <time>2011-06-26T08:17:43Z</time>
      </trkpt>
      <trkpt lat="46.18708" lon="6.82911">
        <ele>1814</ele>
        <time>2011-06-26T08:17:54Z</time>
      </trkpt>
      <trkpt lat="46.18711" lon="6.82875">
        <ele>1817</ele>
        <time>2011-06-26T08:18:04Z</time>
      </trkpt>
      <trkpt lat="46.18711" lon="6.82842">
        <ele>1820</ele>
        <time>2011-06-26T08:18:14Z</time>
      </trkpt>
      <trkpt lat="46.18706" lon="6.82796">
        <ele>1823</ele>
        <time>2011-06-26T08:18:24Z</time>
      </trkpt>
      <trkpt lat="46.18706" lon="6.82752">
        <ele>1826</ele>
        <time>2011-06-26T08:18:34Z</time>
      </trkpt>
      <trkpt lat="46.18706" lon="6.827">
        <ele>1828</ele>
        <time>2011-06-26T08:18:44Z</time>
      </trkpt>
      <trkpt lat="46.18705" lon="6.82653">
        <ele>1829</ele>
        <time>2011-06-26T08:18:54Z</time>
      </trkpt>
      <trkpt lat="46.18681" lon="6.82596">
        <ele>1829</ele>
        <time>2011-06-26T08:19:04Z</time>
      </trkpt>
      <trkpt lat="46.18651" lon="6.82565">
        <ele>1828</ele>
        <time>2011-06-26T08:19:14Z</time>
      </trkpt>
      <trkpt lat="46.18607" lon="6.8254">
        <ele>1828</ele>
        <time>2011-06-26T08:19:25Z</time>
      </trkpt>
      <trkpt lat="46.18562" lon="6.82519">
        <ele>1828</ele>
        <time>2011-06-26T08:19:35Z</time>
      </trkpt>
      <trkpt lat="46.18513" lon="6.825">
        <ele>1828</ele>
        <time>2011-06-26T08:19:45Z</time>
      </trkpt>
      <trkpt lat="46.18468" lon="6.82464">
        <ele>1830</ele>
        <time>2011-06-26T08:19:55Z</time>
      </trkpt>
      <trkpt lat="46.18433" lon="6.82422">
        <ele>1831</ele>
        <time>2011-06-26T08:20:05Z</time>
      </trkpt>
      <trkpt lat="46.18399" lon="6.82468">
        <ele>1835</ele>
        <time>2011-06-26T08:20:15Z</time>
      </trkpt>
      <trkpt lat="46.18358" lon="6.82452">
        <ele>1839</ele>
        <time>2011-06-26T08:20:25Z</time>
      </trkpt>
      <trkpt lat="46.18325" lon="6.82416">
        <ele>1841</ele>
        <time>2011-06-26T08:20:35Z</time>
      </trkpt>
      <trkpt lat="46.18301" lon="6.82402">
        <ele>1843</ele>
        <time>2011-06-26T08:20:46Z</time>
      </trkpt>
      <trkpt lat="46.18283" lon="6.82385">
        <ele>1845</ele>
        <time>2011-06-26T08:20:56Z</time>
      </trkpt>
      <trkpt lat="46.18284" lon="6.82394">
        <ele>1846</ele>
        <time>2011-06-26T08:21:06Z</time>
      </trkpt>
      <trkpt lat="46.18283" lon="6.82394">
        <ele>1846</ele>
        <time>2011-06-26T08:21:16Z</time>
      </trkpt>
      <trkpt lat="46.18268" lon="6.82374">
        <ele>1846</ele>
        <time>2011-06-26T08:21:26Z</time>
      </trkpt>
      <trkpt lat="46.18244" lon="6.82369">
        <ele>1846</ele>
        <time>2011-06-26T08:21:36Z</time>
      </trkpt>
      <trkpt lat="46.18216" lon="6.82326">
        <ele>1846</ele>
        <time>2011-06-26T08:21:46Z</time>
      </trkpt>
      <trkpt lat="46.18188" lon="6.82333">
        <ele>1846</ele>
        <time>2011-06-26T08:21:56Z</time>
      </trkpt>
      <trkpt lat="46.18168" lon="6.82369">
        <ele>1847</ele>
        <time>2011-06-26T08:22:06Z</time>
      </trkpt>
      <trkpt lat="46.18109" lon="6.82434">
        <ele>1840</ele>
        <time>2011-06-26T08:22:16Z</time>
      </trkpt>
      <trkpt lat="46.1802" lon="6.82463">
        <ele>1830</ele>
        <time>2011-06-26T08:22:26Z</time>
      </trkpt>
      <trkpt lat="46.17964" lon="6.82511">
        <ele>1830</ele>
        <time>2011-06-26T08:22:36Z</time>
      </trkpt>
      <trkpt lat="46.17928" lon="6.82561">
        <ele>1830</ele>
        <time>2011-06-26T08:22:46Z</time>
      </trkpt>
      <trkpt lat="46.17911" lon="6.82547">
        <ele>1830</ele>
        <time>2011-06-26T08:22:56Z</time>
      </trkpt>
      <trkpt lat="46.1789" lon="6.825">
        <ele>1830</ele>
        <time>2011-06-26T08:23:06Z</time>
      </trkpt>
      <trkpt lat="46.17887" lon="6.82448">
        <ele>1833</ele>
        <time>2011-06-26T08:23:16Z</time>
      </trkpt>
      <trkpt lat="46.17879" lon="6.824">
        <ele>1837</ele>
        <time>2011-06-26T08:23:26Z</time>
      </trkpt>
      <trkpt lat="46.17877" lon="6.82352">
        <ele>1840</ele>
        <time>2011-06-26T08:23:36Z</time>
      </trkpt>
      <trkpt lat="46.17877" lon="6.82309">
        <ele>1844</ele>
        <time>2011-06-26T08:23:46Z</time>
      </trkpt>
      <trkpt lat="46.17866" lon="6.8226">
        <ele>1846</ele>
        <time>2011-06-26T08:23:56Z</time>
      </trkpt>
      <trkpt lat="46.17855" lon="6.82214">
        <ele>1849</ele>
        <time>2011-06-26T08:24:06Z</time>
      </trkpt>
      <trkpt lat="46.17841" lon="6.82161">
        <ele>1851</ele>
        <time>2011-06-26T08:24:16Z</time>
      </trkpt>
      <trkpt lat="46.17821" lon="6.8211">
        <ele>1851</ele>
        <time>2011-06-26T08:24:26Z</time>
      </trkpt>
      <trkpt lat="46.17795" lon="6.82059">
        <ele>1853</ele>
        <time>2011-06-26T08:24:36Z</time>
      </trkpt>
      <trkpt lat="46.17792" lon="6.81997">
        <ele>1853</ele>
        <time>2011-06-26T08:24:46Z</time>
      </trkpt>
      <trkpt lat="46.17779" lon="6.81916">
        <ele>1853</ele>
        <time>2011-06-26T08:24:56Z</time>
      </trkpt>
      <trkpt lat="46.17776" lon="6.81825">
        <ele>1853</ele>
        <time>2011-06-26T08:25:06Z</time>
      </trkpt>
      <trkpt lat="46.17772" lon="6.81746">
        <ele>1853</ele>
        <time>2011-06-26T08:25:16Z</time>
      </trkpt>
      <trkpt lat="46.1774" lon="6.81689">
        <ele>1853</ele>
        <time>2011-06-26T08:25:26Z</time>
      </trkpt>
      <trkpt lat="46.17729" lon="6.81604">
        <ele>1854</ele>
        <time>2011-06-26T08:25:36Z</time>
      </trkpt>
      <trkpt lat="46.17747" lon="6.81486">
        <ele>1854</ele>
        <time>2011-06-26T08:25:46Z</time>
      </trkpt>
      <trkpt lat="46.17713" lon="6.81391">
        <ele>1851</ele>
        <time>2011-06-26T08:25:56Z</time>
      </trkpt>
      <trkpt lat="46.17653" lon="6.8136">
        <ele>1851</ele>
        <time>2011-06-26T08:26:06Z</time>
      </trkpt>
      <trkpt lat="46.17613" lon="6.8132">
        <ele>1851</ele>
        <time>2011-06-26T08:26:16Z</time>
      </trkpt>
      <trkpt lat="46.17561" lon="6.81297">
        <ele>1851</ele>
        <time>2011-06-26T08:26:26Z</time>
      </trkpt>
      <trkpt lat="46.17492" lon="6.81307">
        <ele>1851</ele>
        <time>2011-06-26T08:26:36Z</time>
      </trkpt>
      <trkpt lat="46.17433" lon="6.81391">
        <ele>1848</ele>
        <time>2011-06-26T08:26:46Z</time>
      </trkpt>
      <trkpt lat="46.17367" lon="6.81488">
        <ele>1840</ele>
        <time>2011-06-26T08:26:56Z</time>
      </trkpt>
      <trkpt lat="46.17307" lon="6.81579">
        <ele>1831</ele>
        <time>2011-06-26T08:27:06Z</time>
      </trkpt>
      <trkpt lat="46.17234" lon="6.81589">
        <ele>1827</ele>
        <time>2011-06-26T08:27:16Z</time>
      </trkpt>
      <trkpt lat="46.1717" lon="6.81579">
        <ele>1827</ele>
        <time>2011-06-26T08:27:26Z</time>
      </trkpt>
      <trkpt lat="46.17137" lon="6.81639">
        <ele>1827</ele>
        <time>2011-06-26T08:27:36Z</time>
      </trkpt>
      <trkpt lat="46.1708" lon="6.81668">
        <ele>1827</ele>
        <time>2011-06-26T08:27:46Z</time>
      </trkpt>
      <trkpt lat="46.17025" lon="6.81678">
        <ele>1827</ele>
        <time>2011-06-26T08:27:56Z</time>
      </trkpt>
      <trkpt lat="46.1698" lon="6.81623">
        <ele>1827</ele>
        <time>2011-06-26T08:28:06Z</time>
      </trkpt>
      <trkpt lat="46.16963" lon="6.81541">
        <ele>1827</ele>
        <time>2011-06-26T08:28:16Z</time>
      </trkpt>
      <trkpt lat="46.1693" lon="6.81449">
        <ele>1823</ele>
        <time>2011-06-26T08:28:26Z</time>
      </trkpt>
      <trkpt lat="46.16877" lon="6.8135">
        <ele>1818</ele>
        <time>2011-06-26T08:28:36Z</time>
      </trkpt>
      <trkpt lat="46.16821" lon="6.81246">
        <ele>1813</ele>
        <time>2011-06-26T08:28:46Z</time>
      </trkpt>
      <trkpt lat="46.16756" lon="6.81188">
        <ele>1808</ele>
        <time>2011-06-26T08:28:56Z</time>
      </trkpt>
      <trkpt lat="46.16694" lon="6.8111">
        <ele>1800</ele>
        <time>2011-06-26T08:29:06Z</time>
      </trkpt>
      <trkpt lat="46.16647" lon="6.81054">
        <ele>1795</ele>
        <time>2011-06-26T08:29:16Z</time>
      </trkpt>
      <trkpt lat="46.16679" lon="6.81128">
        <ele>1789</ele>
        <time>2011-06-26T08:29:26Z</time>
      </trkpt>
      <trkpt lat="46.16701" lon="6.81252">
        <ele>1780</ele>
        <time>2011-06-26T08:29:36Z</time>
      </trkpt>
      <trkpt lat="46.16714" lon="6.81365">
        <ele>1772</ele>
        <time>2011-06-26T08:29:46Z</time>
      </trkpt>
      <trkpt lat="46.16706" lon="6.81493">
        <ele>1767</ele>
        <time>2011-06-26T08:29:56Z</time>
      </trkpt>
      <trkpt lat="46.16671" lon="6.81589">
        <ele>1757</ele>
        <time>2011-06-26T08:30:06Z</time>
      </trkpt>
      <trkpt lat="46.16618" lon="6.81568">
        <ele>1751</ele>
        <time>2011-06-26T08:30:16Z</time>
      </trkpt>
      <trkpt lat="46.16606" lon="6.81504">
        <ele>1746</ele>
        <time>2011-06-26T08:30:26Z</time>
      </trkpt>
      <trkpt lat="46.16602" lon="6.81438">
        <ele>1741</ele>
        <time>2011-06-26T08:30:36Z</time>
      </trkpt>
      <trkpt lat="46.16598" lon="6.81371">
        <ele>1741</ele>
        <time>2011-06-26T08:30:46Z</time>
      </trkpt>
      <trkpt lat="46.16598" lon="6.81296">
        <ele>1740</ele>
        <time>2011-06-26T08:30:56Z</time>
      </trkpt>
      <trkpt lat="46.16553" lon="6.81229">
        <ele>1738</ele>
        <time>2011-06-26T08:31:06Z</time>
      </trkpt>
      <trkpt lat="46.16501" lon="6.81208">
        <ele>1736</ele>
        <time>2011-06-26T08:31:16Z</time>
      </trkpt>
      <trkpt lat="46.16434" lon="6.81167">
        <ele>1732</ele>
        <time>2011-06-26T08:31:26Z</time>
      </trkpt>
      <trkpt lat="46.16428" lon="6.81072">
        <ele>1726</ele>
        <time>2011-06-26T08:31:36Z</time>
      </trkpt>
      <trkpt lat="46.16406" lon="6.80956">
        <ele>1719</ele>
        <time>2011-06-26T08:31:46Z</time>
      </trkpt>
      <trkpt lat="46.1639" lon="6.8083">
        <ele>1712</ele>
        <time>2011-06-26T08:31:56Z</time>
      </trkpt>
      <trkpt lat="46.16409" lon="6.8076">
        <ele>1704</ele>
        <time>2011-06-26T08:32:06Z</time>
      </trkpt>
      <trkpt lat="46.16405" lon="6.80669">
        <ele>1700</ele>
        <time>2011-06-26T08:32:16Z</time>
      </trkpt>
      <trkpt lat="46.16393" lon="6.80552">
        <ele>1693</ele>
        <time>2011-06-26T08:32:26Z</time>
      </trkpt>
      <trkpt lat="46.16356" lon="6.80445">
        <ele>1688</ele>
        <time>2011-06-26T08:32:36Z</time>
      </trkpt>
      <trkpt lat="46.16322" lon="6.8037">
        <ele>1683</ele>
        <time>2011-06-26T08:32:46Z</time>
      </trkpt>
      <trkpt lat="46.16312" lon="6.80367">
        <ele>1680</ele>
        <time>2011-06-26T08:32:57Z</time>
      </trkpt>
      <trkpt lat="46.16285" lon="6.80347">
        <ele>1681</ele>
        <time>2011-06-26T08:33:08Z</time>
      </trkpt>
      <trkpt lat="46.16261" lon="6.80308">
        <ele>1683</ele>
        <time>2011-06-26T08:33:19Z</time>
      </trkpt>
      <trkpt lat="46.16235" lon="6.80269">
        <ele>1684</ele>
        <time>2011-06-26T08:33:30Z</time>
      </trkpt>
      <trkpt lat="46.16199" lon="6.80242">
        <ele>1684</ele>
        <time>2011-06-26T08:33:40Z</time>
      </trkpt>
      <trkpt lat="46.16161" lon="6.80205">
        <ele>1684</ele>
        <time>2011-06-26T08:33:50Z</time>
      </trkpt>
      <trkpt lat="46.16113" lon="6.80187">
        <ele>1684</ele>
        <time>2011-06-26T08:34:00Z</time>
      </trkpt>
      <trkpt lat="46.16059" lon="6.80207">
        <ele>1684</ele>
        <time>2011-06-26T08:34:10Z</time>
      </trkpt>
      <trkpt lat="46.16007" lon="6.80251">
        <ele>1680</ele>
        <time>2011-06-26T08:34:21Z</time>
      </trkpt>
      <trkpt lat="46.15937" lon="6.80219">
        <ele>1670</ele>
        <time>2011-06-26T08:34:31Z</time>
      </trkpt>
      <trkpt lat="46.15884" lon="6.80205">
        <ele>1665</ele>
        <time>2011-06-26T08:34:41Z</time>
      </trkpt>
      <trkpt lat="46.15834" lon="6.80124">
        <ele>1659</ele>
        <time>2011-06-26T08:34:51Z</time>
      </trkpt>
      <trkpt lat="46.15806" lon="6.80111">
        <ele>1656</ele>
        <time>2011-06-26T08:35:01Z</time>
      </trkpt>
      <trkpt lat="46.15831" lon="6.80235">
        <ele>1648</ele>
        <time>2011-06-26T08:35:12Z</time>
      </trkpt>
      <trkpt lat="46.15829" lon="6.80355">
        <ele>1639</ele>
        <time>2011-06-26T08:35:22Z</time>
      </trkpt>
      <trkpt lat="46.1588" lon="6.80419">
        <ele>1629</ele>
        <time>2011-06-26T08:35:32Z</time>
      </trkpt>
      <trkpt lat="46.15921" lon="6.80473">
        <ele>1619</ele>
        <time>2011-06-26T08:35:42Z</time>
      </trkpt>
      <trkpt lat="46.15974" lon="6.80514">
        <ele>1606</ele>
        <time>2011-06-26T08:35:53Z</time>
      </trkpt>
      <trkpt lat="46.15989" lon="6.80535">
        <ele>1596</ele>
        <time>2011-06-26T08:36:03Z</time>
      </trkpt>
      <trkpt lat="46.15937" lon="6.80539">
        <ele>1586</ele>
        <time>2011-06-26T08:36:13Z</time>
      </trkpt>
      <trkpt lat="46.15876" lon="6.80505">
        <ele>1575</ele>
        <time>2011-06-26T08:36:24Z</time>
      </trkpt>
      <trkpt lat="46.15823" lon="6.80491">
        <ele>1565</ele>
        <time>2011-06-26T08:36:34Z</time>
      </trkpt>
      <trkpt lat="46.1586" lon="6.80535">
        <ele>1555</ele>
        <time>2011-06-26T08:36:44Z</time>
      </trkpt>
      <trkpt lat="46.15885" lon="6.80618">
        <ele>1546</ele>
        <time>2011-06-26T08:36:54Z</time>
      </trkpt>
      <trkpt lat="46.15917" lon="6.80699">
        <ele>1535</ele>
        <time>2011-06-26T08:37:05Z</time>
      </trkpt>
      <trkpt lat="46.15964" lon="6.80749">
        <ele>1520</ele>
        <time>2011-06-26T08:37:15Z</time>
      </trkpt>
      <trkpt lat="46.15966" lon="6.80866">
        <ele>1508</ele>
        <time>2011-06-26T08:37:25Z</time>
      </trkpt>
      <trkpt lat="46.15966" lon="6.80968">
        <ele>1497</ele>
        <time>2011-06-26T08:37:35Z</time>
      </trkpt>
      <trkpt lat="46.15974" lon="6.81096">
        <ele>1487</ele>
        <time>2011-06-26T08:37:45Z</time>
      </trkpt>
      <trkpt lat="46.15978" lon="6.81202">
        <ele>1477</ele>
        <time>2011-06-26T08:37:55Z</time>
      </trkpt>
      <trkpt lat="46.1598" lon="6.81295">
        <ele>1465</ele>
        <time>2011-06-26T08:38:05Z</time>
      </trkpt>
      <trkpt lat="46.15968" lon="6.81402">
        <ele>1453</ele>
        <time>2011-06-26T08:38:15Z</time>
      </trkpt>
      <trkpt lat="46.15955" lon="6.81517">
        <ele>1438</ele>
        <time>2011-06-26T08:38:25Z</time>
      </trkpt>
      <trkpt lat="46.15957" lon="6.81626">
        <ele>1426</ele>
        <time>2011-06-26T08:38:35Z</time>
      </trkpt>
      <trkpt lat="46.15965" lon="6.81728">
        <ele>1417</ele>
        <time>2011-06-26T08:38:45Z</time>
      </trkpt>
      <trkpt lat="46.15969" lon="6.81843">
        <ele>1410</ele>
        <time>2011-06-26T08:38:55Z</time>
      </trkpt>
      <trkpt lat="46.15972" lon="6.8194">
        <ele>1403</ele>
        <time>2011-06-26T08:39:05Z</time>
      </trkpt>
      <trkpt lat="46.15985" lon="6.82061">
        <ele>1396</ele>
        <time>2011-06-26T08:39:15Z</time>
      </trkpt>
      <trkpt lat="46.16003" lon="6.8219">
        <ele>1390</ele>
        <time>2011-06-26T08:39:26Z</time>
      </trkpt>
      <trkpt lat="46.15995" lon="6.82335">
        <ele>1381</ele>
        <time>2011-06-26T08:39:37Z</time>
      </trkpt>
      <trkpt lat="46.15997" lon="6.82487">
        <ele>1371</ele>
        <time>2011-06-26T08:39:47Z</time>
      </trkpt>
      <trkpt lat="46.16033" lon="6.82577">
        <ele>1367</ele>
        <time>2011-06-26T08:39:57Z</time>
      </trkpt>
      <trkpt lat="46.1609" lon="6.82683">
        <ele>1362</ele>
        <time>2011-06-26T08:40:07Z</time>
      </trkpt>
      <trkpt lat="46.16097" lon="6.82821">
        <ele>1356</ele>
        <time>2011-06-26T08:40:17Z</time>
      </trkpt>
      <trkpt lat="46.16089" lon="6.82948">
        <ele>1354</ele>
        <time>2011-06-26T08:40:27Z</time>
      </trkpt>
      <trkpt lat="46.16076" lon="6.83065">
        <ele>1354</ele>
        <time>2011-06-26T08:40:37Z</time>
      </trkpt>
      <trkpt lat="46.1612" lon="6.83173">
        <ele>1350</ele>
        <time>2011-06-26T08:40:47Z</time>
      </trkpt>
      <trkpt lat="46.16166" lon="6.83285">
        <ele>1343</ele>
        <time>2011-06-26T08:40:58Z</time>
      </trkpt>
      <trkpt lat="46.16207" lon="6.83362">
        <ele>1343</ele>
        <time>2011-06-26T08:41:09Z</time>
      </trkpt>
      <trkpt lat="46.16251" lon="6.83421">
        <ele>1343</ele>
        <time>2011-06-26T08:41:20Z</time>
      </trkpt>
      <trkpt lat="46.16286" lon="6.83476">
        <ele>1343</ele>
        <time>2011-06-26T08:41:30Z</time>
      </trkpt>
      <trkpt lat="46.16319" lon="6.83531">
        <ele>1345</ele>
        <time>2011-06-26T08:41:40Z</time>
      </trkpt>
      <trkpt lat="46.1636" lon="6.83563">
        <ele>1347</ele>
        <time>2011-06-26T08:41:50Z</time>
      </trkpt>
      <trkpt lat="46.16402" lon="6.83598">
        <ele>1352</ele>
        <time>2011-06-26T08:42:00Z</time>
      </trkpt>
      <trkpt lat="46.16397" lon="6.83605">
        <ele>1363</ele>
        <time>2011-06-26T08:42:11Z</time>
      </trkpt>
      <trkpt lat="46.16392" lon="6.83595">
        <ele>1364</ele>
        <time>2011-06-26T08:42:23Z</time>
      </trkpt>
      <trkpt lat="46.16387" lon="6.83583">
        <ele>1373</ele>
        <time>2011-06-26T08:42:35Z</time>
      </trkpt>
      <trkpt lat="46.16387" lon="6.83588">
        <ele>1389</ele>
        <time>2011-06-26T08:42:45Z</time>
      </trkpt>
      <trkpt lat="46.1638" lon="6.83596">
        <ele>1393</ele>
        <time>2011-06-26T08:42:56Z</time>
      </trkpt>
      <trkpt lat="46.16382" lon="6.83596">
        <ele>1421</ele>
        <time>2011-06-26T08:43:07Z</time>
      </trkpt>
      <trkpt lat="46.16375" lon="6.83599">
        <ele>1412</ele>
        <time>2011-06-26T08:43:17Z</time>
      </trkpt>
      <trkpt lat="46.16373" lon="6.83599">
        <ele>1434</ele>
        <time>2011-06-26T08:43:28Z</time>
      </trkpt>
      <trkpt lat="46.1635" lon="6.83605">
        <ele>1430</ele>
        <time>2011-06-26T08:43:38Z</time>
      </trkpt>
      <trkpt lat="46.16329" lon="6.83634">
        <ele>1414</ele>
        <time>2011-06-26T08:43:48Z</time>
      </trkpt>
      <trkpt lat="46.16323" lon="6.8371">
        <ele>1390</ele>
        <time>2011-06-26T08:43:59Z</time>
      </trkpt>
      <trkpt lat="46.16308" lon="6.83779">
        <ele>1373</ele>
        <time>2011-06-26T08:44:09Z</time>
      </trkpt>
      <trkpt lat="46.16287" lon="6.83852">
        <ele>1371</ele>
        <time>2011-06-26T08:44:20Z</time>
      </trkpt>
      <trkpt lat="46.16267" lon="6.83924">
        <ele>1372</ele>
        <time>2011-06-26T08:44:30Z</time>
      </trkpt>
      <trkpt lat="46.16259" lon="6.84002">
        <ele>1359</ele>
        <time>2011-06-26T08:44:40Z</time>
      </trkpt>
      <trkpt lat="46.16243" lon="6.84084">
        <ele>1345</ele>
        <time>2011-06-26T08:44:50Z</time>
      </trkpt>
      <trkpt lat="46.16229" lon="6.84163">
        <ele>1345</ele>
        <time>2011-06-26T08:45:00Z</time>
      </trkpt>
      <trkpt lat="46.16238" lon="6.8424">
        <ele>1345</ele>
        <time>2011-06-26T08:45:10Z</time>
      </trkpt>
      <trkpt lat="46.16216" lon="6.84327">
        <ele>1345</ele>
        <time>2011-06-26T08:45:20Z</time>
      </trkpt>
      <trkpt lat="46.16213" lon="6.84444">
        <ele>1344</ele>
        <time>2011-06-26T08:45:30Z</time>
      </trkpt>
      <trkpt lat="46.16208" lon="6.84529">
        <ele>1344</ele>
        <time>2011-06-26T08:45:40Z</time>
      </trkpt>
      <trkpt lat="46.16219" lon="6.84684">
        <ele>1337</ele>
        <time>2011-06-26T08:45:51Z</time>
      </trkpt>
      <trkpt lat="46.1623" lon="6.84825">
        <ele>1323</ele>
        <time>2011-06-26T08:46:01Z</time>
      </trkpt>
      <trkpt lat="46.16261" lon="6.84952">
        <ele>1309</ele>
        <time>2011-06-26T08:46:11Z</time>
      </trkpt>
      <trkpt lat="46.16301" lon="6.85066">
        <ele>1298</ele>
        <time>2011-06-26T08:46:21Z</time>
      </trkpt>
      <trkpt lat="46.16348" lon="6.85185">
        <ele>1288</ele>
        <time>2011-06-26T08:46:31Z</time>
      </trkpt>
      <trkpt lat="46.16407" lon="6.85255">
        <ele>1279</ele>
        <time>2011-06-26T08:46:41Z</time>
      </trkpt>
      <trkpt lat="46.16449" lon="6.85348">
        <ele>1271</ele>
        <time>2011-06-26T08:46:51Z</time>
      </trkpt>
      <trkpt lat="46.16499" lon="6.8544">
        <ele>1261</ele>
        <time>2011-06-26T08:47:01Z</time>
      </trkpt>
      <trkpt lat="46.16553" lon="6.85495">
        <ele>1251</ele>
        <time>2011-06-26T08:47:11Z</time>
      </trkpt>
      <trkpt lat="46.16604" lon="6.85571">
        <ele>1243</ele>
        <time>2011-06-26T08:47:21Z</time>
      </trkpt>
      <trkpt lat="46.16646" lon="6.85618">
        <ele>1235</ele>
        <time>2011-06-26T08:47:31Z</time>
      </trkpt>
      <trkpt lat="46.16674" lon="6.85704">
        <ele>1226</ele>
        <time>2011-06-26T08:47:41Z</time>
      </trkpt>
      <trkpt lat="46.1674" lon="6.85808">
        <ele>1216</ele>
        <time>2011-06-26T08:47:51Z</time>
      </trkpt>
      <trkpt lat="46.16816" lon="6.85897">
        <ele>1218</ele>
        <time>2011-06-26T08:48:01Z</time>
      </trkpt>
      <trkpt lat="46.16839" lon="6.85961">
        <ele>1212</ele>
        <time>2011-06-26T08:48:11Z</time>
      </trkpt>
      <trkpt lat="46.16893" lon="6.86024">
        <ele>1195</ele>
        <time>2011-06-26T08:48:21Z</time>
      </trkpt>
      <trkpt lat="46.16989" lon="6.86095">
        <ele>1178</ele>
        <time>2011-06-26T08:48:31Z</time>
      </trkpt>
      <trkpt lat="46.17091" lon="6.86185">
        <ele>1161</ele>
        <time>2011-06-26T08:48:41Z</time>
      </trkpt>
      <trkpt lat="46.17179" lon="6.86262">
        <ele>1145</ele>
        <time>2011-06-26T08:48:51Z</time>
      </trkpt>
      <trkpt lat="46.17272" lon="6.86313">
        <ele>1128</ele>
        <time>2011-06-26T08:49:01Z</time>
      </trkpt>
      <trkpt lat="46.17333" lon="6.86401">
        <ele>1115</ele>
        <time>2011-06-26T08:49:11Z</time>
      </trkpt>
      <trkpt lat="46.17364" lon="6.86481">
        <ele>1105</ele>
        <time>2011-06-26T08:49:21Z</time>
      </trkpt>
      <trkpt lat="46.1739" lon="6.86583">
        <ele>1095</ele>
        <time>2011-06-26T08:49:31Z</time>
      </trkpt>
      <trkpt lat="46.17442" lon="6.86627">
        <ele>1086</ele>
        <time>2011-06-26T08:49:41Z</time>
      </trkpt>
      <trkpt lat="46.17525" lon="6.86656">
        <ele>1080</ele>
        <time>2011-06-26T08:49:51Z</time>
      </trkpt>
      <trkpt lat="46.17462" lon="6.86738">
        <ele>1071</ele>
        <time>2011-06-26T08:50:01Z</time>
      </trkpt>
      <trkpt lat="46.17466" lon="6.86846">
        <ele>1063</ele>
        <time>2011-06-26T08:50:12Z</time>
      </trkpt>
      <trkpt lat="46.17531" lon="6.86955">
        <ele>1053</ele>
        <time>2011-06-26T08:50:22Z</time>
      </trkpt>
      <trkpt lat="46.17514" lon="6.87036">
        <ele>1045</ele>
        <time>2011-06-26T08:50:32Z</time>
      </trkpt>
      <trkpt lat="46.17513" lon="6.87068">
        <ele>1044</ele>
        <time>2011-06-26T08:50:42Z</time>
      </trkpt>
      <trkpt lat="46.1751" lon="6.87097">
        <ele>1044</ele>
        <time>2011-06-26T08:50:52Z</time>
      </trkpt>
      <trkpt lat="46.17503" lon="6.87118">
        <ele>1045</ele>
        <time>2011-06-26T08:51:03Z</time>
      </trkpt>
      <trkpt lat="46.17506" lon="6.87117">
        <ele>1045</ele>
        <time>2011-06-26T08:51:13Z</time>
      </trkpt>
      <trkpt lat="46.17506" lon="6.8712">
        <ele>1045</ele>
        <time>2011-06-26T08:51:23Z</time>
      </trkpt>
      <trkpt lat="46.17507" lon="6.87113">
        <ele>1045</ele>
        <time>2011-06-26T08:51:34Z</time>
      </trkpt>
      <trkpt lat="46.17509" lon="6.87115">
        <ele>1041</ele>
        <time>2011-06-26T08:51:44Z</time>
      </trkpt>
      <trkpt lat="46.1751" lon="6.87121">
        <ele>1041</ele>
        <time>2011-06-26T08:51:59Z</time>
      </trkpt>
      <trkpt lat="46.17502" lon="6.87122">
        <ele>1043</ele>
        <time>2011-06-26T08:52:11Z</time>
      </trkpt>
      <trkpt lat="46.17507" lon="6.8712">
        <ele>1046</ele>
        <time>2011-06-26T08:52:27Z</time>
      </trkpt>
      <trkpt lat="46.1751" lon="6.87119">
        <ele>1046</ele>
        <time>2011-06-26T08:52:37Z</time>
      </trkpt>
      <trkpt lat="46.17513" lon="6.8712">
        <ele>1048</ele>
        <time>2011-06-26T08:52:48Z</time>
      </trkpt>
      <trkpt lat="46.17512" lon="6.87117">
        <ele>1051</ele>
        <time>2011-06-26T08:53:02Z</time>
      </trkpt>
      <trkpt lat="46.17513" lon="6.87119">
        <ele>1050</ele>
        <time>2011-06-26T08:53:12Z</time>
      </trkpt>
      <trkpt lat="46.17511" lon="6.87119">
        <ele>1047</ele>
        <time>2011-06-26T08:53:31Z</time>
      </trkpt>
      <trkpt lat="46.17508" lon="6.87119">
        <ele>1048</ele>
        <time>2011-06-26T08:53:43Z</time>
      </trkpt>
      <trkpt lat="46.17506" lon="6.87121">
        <ele>1042</ele>
        <time>2011-06-26T08:53:55Z</time>
      </trkpt>
      <trkpt lat="46.17508" lon="6.87121">
        <ele>1048</ele>
        <time>2011-06-26T08:54:08Z</time>
      </trkpt>
      <trkpt lat="46.17506" lon="6.87126">
        <ele>1048</ele>
        <time>2011-06-26T08:54:22Z</time>
      </trkpt>
      <trkpt lat="46.17512" lon="6.87123">
        <ele>1048</ele>
        <time>2011-06-26T08:54:32Z</time>
      </trkpt>
      <trkpt lat="46.17516" lon="6.87117">
        <ele>1048</ele>
        <time>2011-06-26T08:54:47Z</time>
      </trkpt>
      <trkpt lat="46.17518" lon="6.87115">
        <ele>1046</ele>
        <time>2011-06-26T08:55:00Z</time>
      </trkpt>
      <trkpt lat="46.1752" lon="6.87117">
        <ele>1047</ele>
        <time>2011-06-26T08:55:20Z</time>
      </trkpt>
      <trkpt lat="46.17515" lon="6.8712">
        <ele>1047</ele>
        <time>2011-06-26T08:55:30Z</time>
      </trkpt>
      <trkpt lat="46.17512" lon="6.87124">
        <ele>1050</ele>
        <time>2011-06-26T08:55:42Z</time>
      </trkpt>
      <trkpt lat="46.17516" lon="6.87118">
        <ele>1047</ele>
        <time>2011-06-26T08:55:57Z</time>
      </trkpt>
      <trkpt lat="46.1751" lon="6.87127">
        <ele>1044</ele>
        <time>2011-06-26T08:56:13Z</time>
      </trkpt>
      <trkpt lat="46.175" lon="6.87131">
        <ele>1041</ele>
        <time>2011-06-26T08:56:23Z</time>
      </trkpt>
      <trkpt lat="46.17507" lon="6.87129">
        <ele>1042</ele>
        <time>2011-06-26T08:56:34Z</time>
      </trkpt>
      <trkpt lat="46.1751" lon="6.87118">
        <ele>1045</ele>
        <time>2011-06-26T08:56:44Z</time>
      </trkpt>
      <trkpt lat="46.17512" lon="6.87114">
        <ele>1045</ele>
        <time>2011-06-26T08:56:54Z</time>
      </trkpt>
      <trkpt lat="46.17516" lon="6.87114">
        <ele>1044</ele>
        <time>2011-06-26T08:57:06Z</time>
      </trkpt>
      <trkpt lat="46.17521" lon="6.8711">
        <ele>1044</ele>
        <time>2011-06-26T08:57:16Z</time>
      </trkpt>
      <trkpt lat="46.17522" lon="6.87099">
        <ele>1046</ele>
        <time>2011-06-26T08:57:26Z</time>
      </trkpt>
      <trkpt lat="46.17512" lon="6.871">
        <ele>1046</ele>
        <time>2011-06-26T08:57:40Z</time>
      </trkpt>
      <trkpt lat="46.17518" lon="6.87105">
        <ele>1047</ele>
        <time>2011-06-26T08:57:50Z</time>
      </trkpt>
      <trkpt lat="46.17519" lon="6.87118">
        <ele>1048</ele>
        <time>2011-06-26T08:58:00Z</time>
      </trkpt>
      <trkpt lat="46.17512" lon="6.87133">
        <ele>1049</ele>
        <time>2011-06-26T08:58:10Z</time>
      </trkpt>
      <trkpt lat="46.17495" lon="6.87139">
        <ele>1048</ele>
        <time>2011-06-26T08:58:20Z</time>
      </trkpt>
      <trkpt lat="46.17461" lon="6.87002">
        <ele>1048</ele>
        <time>2011-06-26T08:59:29Z</time>
      </trkpt>
      <trkpt lat="46.1747" lon="6.87076">
        <ele>1044</ele>
        <time>2011-06-26T08:59:39Z</time>
      </trkpt>
      <trkpt lat="46.17483" lon="6.87083">
        <ele>1026</ele>
        <time>2011-06-26T08:59:53Z</time>
      </trkpt>
      <trkpt lat="46.17492" lon="6.87102">
        <ele>1023</ele>
        <time>2011-06-26T09:00:14Z</time>
      </trkpt>
      <trkpt lat="46.17501" lon="6.87099">
        <ele>1018</ele>
        <time>2011-06-26T09:00:24Z</time>
      </trkpt>
      <trkpt lat="46.17495" lon="6.87099">
        <ele>1013</ele>
        <time>2011-06-26T09:00:34Z</time>
      </trkpt>
      <trkpt lat="46.17483" lon="6.87105">
        <ele>1016</ele>
        <time>2011-06-26T09:00:44Z</time>
      </trkpt>
      <trkpt lat="46.17482" lon="6.87096">
        <ele>1027</ele>
        <time>2011-06-26T09:00:54Z</time>
      </trkpt>
      <trkpt lat="46.17484" lon="6.87106">
        <ele>1034</ele>
        <time>2011-06-26T09:01:06Z</time>
      </trkpt>
      <trkpt lat="46.17483" lon="6.87097">
        <ele>1031</ele>
        <time>2011-06-26T09:01:16Z</time>
      </trkpt>
      <trkpt lat="46.17476" lon="6.87102">
        <ele>1030</ele>
        <time>2011-06-26T09:01:26Z</time>
      </trkpt>
      <trkpt lat="46.17475" lon="6.8709">
        <ele>1029</ele>
        <time>2011-06-26T09:01:40Z</time>
      </trkpt>
      <trkpt lat="46.17478" lon="6.87082">
        <ele>1024</ele>
        <time>2011-06-26T09:01:51Z</time>
      </trkpt>
      <trkpt lat="46.17478" lon="6.87074">
        <ele>1015</ele>
        <time>2011-06-26T09:02:02Z</time>
      </trkpt>
      <trkpt lat="46.1746" lon="6.87073">
        <ele>1014</ele>
        <time>2011-06-26T09:02:33Z</time>
      </trkpt>
      <trkpt lat="46.17467" lon="6.87066">
        <ele>1022</ele>
        <time>2011-06-26T09:02:43Z</time>
      </trkpt>
      <trkpt lat="46.1748" lon="6.87054">
        <ele>1038</ele>
        <time>2011-06-26T09:02:53Z</time>
      </trkpt>
      <trkpt lat="46.17484" lon="6.86984">
        <ele>1045</ele>
        <time>2011-06-26T09:03:03Z</time>
      </trkpt>
      <trkpt lat="46.17492" lon="6.86871">
        <ele>1047</ele>
        <time>2011-06-26T09:03:13Z</time>
      </trkpt>
      <trkpt lat="46.17493" lon="6.86752">
        <ele>1050</ele>
        <time>2011-06-26T09:03:23Z</time>
      </trkpt>
      <trkpt lat="46.17499" lon="6.86624">
        <ele>1069</ele>
        <time>2011-06-26T09:03:33Z</time>
      </trkpt>
      <trkpt lat="46.17508" lon="6.86487">
        <ele>1089</ele>
        <time>2011-06-26T09:03:43Z</time>
      </trkpt>
      <trkpt lat="46.17512" lon="6.86362">
        <ele>1101</ele>
        <time>2011-06-26T09:03:53Z</time>
      </trkpt>
      <trkpt lat="46.17497" lon="6.86271">
        <ele>1144</ele>
        <time>2011-06-26T09:04:03Z</time>
      </trkpt>
      <trkpt lat="46.17514" lon="6.86146">
        <ele>1209</ele>
        <time>2011-06-26T09:04:13Z</time>
      </trkpt>
      <trkpt lat="46.17508" lon="6.86058">
        <ele>1253</ele>
        <time>2011-06-26T09:04:23Z</time>
      </trkpt>
      <trkpt lat="46.17501" lon="6.85978">
        <ele>1293</ele>
        <time>2011-06-26T09:04:33Z</time>
      </trkpt>
      <trkpt lat="46.17495" lon="6.85879">
        <ele>1342</ele>
        <time>2011-06-26T09:04:43Z</time>
      </trkpt>
      <trkpt lat="46.17503" lon="6.85704">
        <ele>1407</ele>
        <time>2011-06-26T09:04:57Z</time>
      </trkpt>
      <trkpt lat="46.17508" lon="6.85606">
        <ele>1455</ele>
        <time>2011-06-26T09:05:07Z</time>
      </trkpt>
      <trkpt lat="46.17515" lon="6.85525">
        <ele>1498</ele>
        <time>2011-06-26T09:05:17Z</time>
      </trkpt>
      <trkpt lat="46.1752" lon="6.85413">
        <ele>1527</ele>
        <time>2011-06-26T09:05:27Z</time>
      </trkpt>
      <trkpt lat="46.17511" lon="6.85302">
        <ele>1552</ele>
        <time>2011-06-26T09:05:37Z</time>
      </trkpt>
      <trkpt lat="46.17514" lon="6.85186">
        <ele>1594</ele>
        <time>2011-06-26T09:05:47Z</time>
      </trkpt>
      <trkpt lat="46.17512" lon="6.85078">
        <ele>1648</ele>
        <time>2011-06-26T09:05:57Z</time>
      </trkpt>
      <trkpt lat="46.17517" lon="6.84961">
        <ele>1698</ele>
        <time>2011-06-26T09:06:07Z</time>
      </trkpt>
      <trkpt lat="46.17518" lon="6.84851">
        <ele>1753</ele>
        <time>2011-06-26T09:06:17Z</time>
      </trkpt>
      <trkpt lat="46.17518" lon="6.84748">
        <ele>1807</ele>
        <time>2011-06-26T09:06:27Z</time>
      </trkpt>
      <trkpt lat="46.17513" lon="6.84682">
        <ele>1864</ele>
        <time>2011-06-26T09:06:37Z</time>
      </trkpt>
      <trkpt lat="46.17512" lon="6.84634">
        <ele>1905</ele>
        <time>2011-06-26T09:06:47Z</time>
      </trkpt>
      <trkpt lat="46.17512" lon="6.84615">
        <ele>1925</ele>
        <time>2011-06-26T09:06:57Z</time>
      </trkpt>
      <trkpt lat="46.17514" lon="6.8461">
        <ele>1926</ele>
        <time>2011-06-26T09:07:07Z</time>
      </trkpt>
      <trkpt lat="46.17502" lon="6.84614">
        <ele>1926</ele>
        <time>2011-06-26T09:07:19Z</time>
      </trkpt>
      <trkpt lat="46.17513" lon="6.84594">
        <ele>1925</ele>
        <time>2011-06-26T09:07:29Z</time>
      </trkpt>
      <trkpt lat="46.17524" lon="6.84576">
        <ele>1917</ele>
        <time>2011-06-26T09:07:39Z</time>
      </trkpt>
      <trkpt lat="46.17506" lon="6.84601">
        <ele>1919</ele>
        <time>2011-06-26T09:07:49Z</time>
      </trkpt>
      <trkpt lat="46.17513" lon="6.84522">
        <ele>1932</ele>
        <time>2011-06-26T09:08:30Z</time>
      </trkpt>
      <trkpt lat="46.17518" lon="6.84513">
        <ele>1946</ele>
        <time>2011-06-26T09:08:40Z</time>
      </trkpt>
      <trkpt lat="46.17525" lon="6.84489">
        <ele>1942</ele>
        <time>2011-06-26T09:08:52Z</time>
      </trkpt>
      <trkpt lat="46.17551" lon="6.84461">
        <ele>1940</ele>
        <time>2011-06-26T09:09:02Z</time>
      </trkpt>
      <trkpt lat="46.17571" lon="6.84448">
        <ele>1937</ele>
        <time>2011-06-26T09:09:12Z</time>
      </trkpt>
      <trkpt lat="46.17575" lon="6.844">
        <ele>1931</ele>
        <time>2011-06-26T09:09:22Z</time>
      </trkpt>
      <trkpt lat="46.17579" lon="6.84334">
        <ele>1922</ele>
        <time>2011-06-26T09:09:32Z</time>
      </trkpt>
      <trkpt lat="46.1757" lon="6.84251">
        <ele>1915</ele>
        <time>2011-06-26T09:09:46Z</time>
      </trkpt>
      <trkpt lat="46.17574" lon="6.84182">
        <ele>1912</ele>
        <time>2011-06-26T09:09:56Z</time>
      </trkpt>
      <trkpt lat="46.17593" lon="6.84077">
        <ele>1906</ele>
        <time>2011-06-26T09:10:06Z</time>
      </trkpt>
      <trkpt lat="46.17611" lon="6.83992">
        <ele>1901</ele>
        <time>2011-06-26T09:10:16Z</time>
      </trkpt>
      <trkpt lat="46.17622" lon="6.83901">
        <ele>1891</ele>
        <time>2011-06-26T09:10:26Z</time>
      </trkpt>
      <trkpt lat="46.17647" lon="6.83808">
        <ele>1883</ele>
        <time>2011-06-26T09:10:36Z</time>
      </trkpt>
      <trkpt lat="46.17684" lon="6.83752">
        <ele>1874</ele>
        <time>2011-06-26T09:10:46Z</time>
      </trkpt>
      <trkpt lat="46.17738" lon="6.8374">
        <ele>1868</ele>
        <time>2011-06-26T09:10:56Z</time>
      </trkpt>
      <trkpt lat="46.17768" lon="6.83688">
        <ele>1860</ele>
        <time>2011-06-26T09:11:06Z</time>
      </trkpt>
      <trkpt lat="46.17743" lon="6.8363">
        <ele>1850</ele>
        <time>2011-06-26T09:11:16Z</time>
      </trkpt>
      <trkpt lat="46.17751" lon="6.83555">
        <ele>1841</ele>
        <time>2011-06-26T09:11:26Z</time>
      </trkpt>
      <trkpt lat="46.1777" lon="6.83485">
        <ele>1835</ele>
        <time>2011-06-26T09:11:36Z</time>
      </trkpt>
      <trkpt lat="46.17778" lon="6.83451">
        <ele>1834</ele>
        <time>2011-06-26T09:11:47Z</time>
      </trkpt>
      <trkpt lat="46.17756" lon="6.83368">
        <ele>1828</ele>
        <time>2011-06-26T09:11:58Z</time>
      </trkpt>
      <trkpt lat="46.1777" lon="6.83314">
        <ele>1819</ele>
        <time>2011-06-26T09:12:08Z</time>
      </trkpt>
      <trkpt lat="46.17788" lon="6.83264">
        <ele>1819</ele>
        <time>2011-06-26T09:12:18Z</time>
      </trkpt>
      <trkpt lat="46.17804" lon="6.83219">
        <ele>1819</ele>
        <time>2011-06-26T09:12:29Z</time>
      </trkpt>
      <trkpt lat="46.17814" lon="6.83173">
        <ele>1818</ele>
        <time>2011-06-26T09:12:39Z</time>
      </trkpt>
      <trkpt lat="46.17824" lon="6.83124">
        <ele>1818</ele>
        <time>2011-06-26T09:12:49Z</time>
      </trkpt>
      <trkpt lat="46.17842" lon="6.83056">
        <ele>1817</ele>
        <time>2011-06-26T09:12:59Z</time>
      </trkpt>
      <trkpt lat="46.1788" lon="6.83018">
        <ele>1815</ele>
        <time>2011-06-26T09:13:10Z</time>
      </trkpt>
      <trkpt lat="46.17908" lon="6.82951">
        <ele>1810</ele>
        <time>2011-06-26T09:13:20Z</time>
      </trkpt>
      <trkpt lat="46.17924" lon="6.8299">
        <ele>1804</ele>
        <time>2011-06-26T09:13:30Z</time>
      </trkpt>
      <trkpt lat="46.1793" lon="6.83068">
        <ele>1799</ele>
        <time>2011-06-26T09:13:40Z</time>
      </trkpt>
      <trkpt lat="46.17939" lon="6.83098">
        <ele>1792</ele>
        <time>2011-06-26T09:13:50Z</time>
      </trkpt>
      <trkpt lat="46.17953" lon="6.83019">
        <ele>1786</ele>
        <time>2011-06-26T09:14:00Z</time>
      </trkpt>
      <trkpt lat="46.17972" lon="6.82937">
        <ele>1779</ele>
        <time>2011-06-26T09:14:10Z</time>
      </trkpt>
      <trkpt lat="46.18032" lon="6.82922">
        <ele>1774</ele>
        <time>2011-06-26T09:14:20Z</time>
      </trkpt>
      <trkpt lat="46.18089" lon="6.82894">
        <ele>1769</ele>
        <time>2011-06-26T09:14:30Z</time>
      </trkpt>
      <trkpt lat="46.18142" lon="6.8288">
        <ele>1765</ele>
        <time>2011-06-26T09:14:40Z</time>
      </trkpt>
      <trkpt lat="46.18122" lon="6.82939">
        <ele>1760</ele>
        <time>2011-06-26T09:14:50Z</time>
      </trkpt>
      <trkpt lat="46.18085" lon="6.82999">
        <ele>1755</ele>
        <time>2011-06-26T09:15:00Z</time>
      </trkpt>
      <trkpt lat="46.18084" lon="6.83071">
        <ele>1746</ele>
        <time>2011-06-26T09:15:11Z</time>
      </trkpt>
      <trkpt lat="46.18111" lon="6.8314">
        <ele>1736</ele>
        <time>2011-06-26T09:15:21Z</time>
      </trkpt>
      <trkpt lat="46.18172" lon="6.83199">
        <ele>1725</ele>
        <time>2011-06-26T09:15:32Z</time>
      </trkpt>
      <trkpt lat="46.18213" lon="6.83213">
        <ele>1717</ele>
        <time>2011-06-26T09:15:42Z</time>
      </trkpt>
      <trkpt lat="46.18203" lon="6.83153">
        <ele>1710</ele>
        <time>2011-06-26T09:15:52Z</time>
      </trkpt>
      <trkpt lat="46.18256" lon="6.83123">
        <ele>1703</ele>
        <time>2011-06-26T09:16:02Z</time>
      </trkpt>
      <trkpt lat="46.18304" lon="6.83162">
        <ele>1700</ele>
        <time>2011-06-26T09:16:12Z</time>
      </trkpt>
      <trkpt lat="46.18327" lon="6.83254">
        <ele>1693</ele>
        <time>2011-06-26T09:16:22Z</time>
      </trkpt>
      <trkpt lat="46.18341" lon="6.83372">
        <ele>1689</ele>
        <time>2011-06-26T09:16:32Z</time>
      </trkpt>
      <trkpt lat="46.18359" lon="6.83432">
        <ele>1688</ele>
        <time>2011-06-26T09:16:43Z</time>
      </trkpt>
      <trkpt lat="46.18377" lon="6.83422">
        <ele>1688</ele>
        <time>2011-06-26T09:16:56Z</time>
      </trkpt>
      <trkpt lat="46.18376" lon="6.83415">
        <ele>1688</ele>
        <time>2011-06-26T09:17:07Z</time>
      </trkpt>
      <trkpt lat="46.18378" lon="6.83408">
        <ele>1687</ele>
        <time>2011-06-26T09:17:18Z</time>
      </trkpt>
      <trkpt lat="46.1839" lon="6.83385">
        <ele>1685</ele>
        <time>2011-06-26T09:17:28Z</time>
      </trkpt>
      <trkpt lat="46.18406" lon="6.83353">
        <ele>1685</ele>
        <time>2011-06-26T09:17:38Z</time>
      </trkpt>
      <trkpt lat="46.1842" lon="6.83322">
        <ele>1693</ele>
        <time>2011-06-26T09:17:48Z</time>
      </trkpt>
      <trkpt lat="46.18433" lon="6.83291">
        <ele>1701</ele>
        <time>2011-06-26T09:17:58Z</time>
      </trkpt>
      <trkpt lat="46.18447" lon="6.8326">
        <ele>1704</ele>
        <time>2011-06-26T09:18:08Z</time>
      </trkpt>
      <trkpt lat="46.18461" lon="6.83228">
        <ele>1708</ele>
        <time>2011-06-26T09:18:18Z</time>
      </trkpt>
      <trkpt lat="46.18475" lon="6.83197">
        <ele>1713</ele>
        <time>2011-06-26T09:18:28Z</time>
      </trkpt>
      <trkpt lat="46.1849" lon="6.83166">
        <ele>1721</ele>
        <time>2011-06-26T09:18:38Z</time>
      </trkpt>
      <trkpt lat="46.18504" lon="6.83135">
        <ele>1726</ele>
        <time>2011-06-26T09:18:48Z</time>
      </trkpt>
      <trkpt lat="46.18518" lon="6.83104">
        <ele>1731</ele>
        <time>2011-06-26T09:18:58Z</time>
      </trkpt>
      <trkpt lat="46.18533" lon="6.83073">
        <ele>1737</ele>
        <time>2011-06-26T09:19:08Z</time>
      </trkpt>
      <trkpt lat="46.18546" lon="6.83041">
        <ele>1741</ele>
        <time>2011-06-26T09:19:18Z</time>
      </trkpt>
      <trkpt lat="46.18561" lon="6.83011">
        <ele>1745</ele>
        <time>2011-06-26T09:19:28Z</time>
      </trkpt>
      <trkpt lat="46.18574" lon="6.8298">
        <ele>1750</ele>
        <time>2011-06-26T09:19:38Z</time>
      </trkpt>
      <trkpt lat="46.18588" lon="6.82949">
        <ele>1757</ele>
        <time>2011-06-26T09:19:48Z</time>
      </trkpt>
      <trkpt lat="46.18602" lon="6.82919">
        <ele>1766</ele>
        <time>2011-06-26T09:19:58Z</time>
      </trkpt>
      <trkpt lat="46.18615" lon="6.82888">
        <ele>1776</ele>
        <time>2011-06-26T09:20:08Z</time>
      </trkpt>
      <trkpt lat="46.1863" lon="6.82856">
        <ele>1787</ele>
        <time>2011-06-26T09:20:19Z</time>
      </trkpt>
      <trkpt lat="46.18642" lon="6.82826">
        <ele>1797</ele>
        <time>2011-06-26T09:20:29Z</time>
      </trkpt>
      <trkpt lat="46.18655" lon="6.82795">
        <ele>1807</ele>
        <time>2011-06-26T09:20:39Z</time>
      </trkpt>
      <trkpt lat="46.18668" lon="6.82765">
        <ele>1817</ele>
        <time>2011-06-26T09:20:49Z</time>
      </trkpt>
      <trkpt lat="46.18681" lon="6.82735">
        <ele>1827</ele>
        <time>2011-06-26T09:20:59Z</time>
      </trkpt>
      <trkpt lat="46.18695" lon="6.82705">
        <ele>1837</ele>
        <time>2011-06-26T09:21:09Z</time>
      </trkpt>
      <trkpt lat="46.18708" lon="6.82674">
        <ele>1845</ele>
        <time>2011-06-26T09:21:19Z</time>
      </trkpt>
      <trkpt lat="46.18721" lon="6.82643">
        <ele>1855</ele>
        <time>2011-06-26T09:21:29Z</time>
      </trkpt>
      <trkpt lat="46.18737" lon="6.8261">
        <ele>1866</ele>
        <time>2011-06-26T09:21:40Z</time>
      </trkpt>
      <trkpt lat="46.1875" lon="6.82581">
        <ele>1876</ele>
        <time>2011-06-26T09:21:50Z</time>
      </trkpt>
      <trkpt lat="46.18763" lon="6.82553">
        <ele>1886</ele>
        <time>2011-06-26T09:22:00Z</time>
      </trkpt>
      <trkpt lat="46.18776" lon="6.82524">
        <ele>1896</ele>
        <time>2011-06-26T09:22:10Z</time>
      </trkpt>
      <trkpt lat="46.18789" lon="6.82496">
        <ele>1908</ele>
        <time>2011-06-26T09:22:20Z</time>
      </trkpt>
      <trkpt lat="46.18802" lon="6.82467">
        <ele>1919</ele>
        <time>2011-06-26T09:22:30Z</time>
      </trkpt>
      <trkpt lat="46.18816" lon="6.82437">
        <ele>1933</ele>
        <time>2011-06-26T09:22:40Z</time>
      </trkpt>
      <trkpt lat="46.18829" lon="6.82409">
        <ele>1946</ele>
        <time>2011-06-26T09:22:50Z</time>
      </trkpt>
      <trkpt lat="46.18843" lon="6.82377">
        <ele>1960</ele>
        <time>2011-06-26T09:23:01Z</time>
      </trkpt>
      <trkpt lat="46.18856" lon="6.82345">
        <ele>1970</ele>
        <time>2011-06-26T09:23:11Z</time>
      </trkpt>
      <trkpt lat="46.18869" lon="6.82314">
        <ele>1979</ele>
        <time>2011-06-26T09:23:21Z</time>
      </trkpt>
      <trkpt lat="46.18882" lon="6.82283">
        <ele>1985</ele>
        <time>2011-06-26T09:23:31Z</time>
      </trkpt>
      <trkpt lat="46.18896" lon="6.82251">
        <ele>1989</ele>
        <time>2011-06-26T09:23:41Z</time>
      </trkpt>
      <trkpt lat="46.1891" lon="6.8222">
        <ele>1993</ele>
        <time>2011-06-26T09:23:51Z</time>
      </trkpt>
      <trkpt lat="46.18924" lon="6.82189">
        <ele>1998</ele>
        <time>2011-06-26T09:24:01Z</time>
      </trkpt>
      <trkpt lat="46.18938" lon="6.82158">
        <ele>2004</ele>
        <time>2011-06-26T09:24:11Z</time>
      </trkpt>
      <trkpt lat="46.18952" lon="6.82127">
        <ele>2011</ele>
        <time>2011-06-26T09:24:21Z</time>
      </trkpt>
      <trkpt lat="46.18965" lon="6.82097">
        <ele>2019</ele>
        <time>2011-06-26T09:24:31Z</time>
      </trkpt>
      <trkpt lat="46.18978" lon="6.82068">
        <ele>2029</ele>
        <time>2011-06-26T09:24:41Z</time>
      </trkpt>
      <trkpt lat="46.18989" lon="6.82041">
        <ele>2043</ele>
        <time>2011-06-26T09:24:51Z</time>
      </trkpt>
      <trkpt lat="46.19" lon="6.82013">
        <ele>2059</ele>
        <time>2011-06-26T09:25:01Z</time>
      </trkpt>
      <trkpt lat="46.19011" lon="6.81984">
        <ele>2075</ele>
        <time>2011-06-26T09:25:11Z</time>
      </trkpt>
      <trkpt lat="46.19024" lon="6.81957">
        <ele>2090</ele>
        <time>2011-06-26T09:25:21Z</time>
      </trkpt>
      <trkpt lat="46.19036" lon="6.8193">
        <ele>2108</ele>
        <time>2011-06-26T09:25:31Z</time>
      </trkpt>
      <trkpt lat="46.19048" lon="6.81904">
        <ele>2125</ele>
        <time>2011-06-26T09:25:41Z</time>
      </trkpt>
      <trkpt lat="46.1906" lon="6.81878">
        <ele>2142</ele>
        <time>2011-06-26T09:25:51Z</time>
      </trkpt>
      <trkpt lat="46.19072" lon="6.8185">
        <ele>2158</ele>
        <time>2011-06-26T09:26:01Z</time>
      </trkpt>
      <trkpt lat="46.19086" lon="6.81823">
        <ele>2171</ele>
        <time>2011-06-26T09:26:11Z</time>
      </trkpt>
      <trkpt lat="46.19098" lon="6.81796">
        <ele>2186</ele>
        <time>2011-06-26T09:26:21Z</time>
      </trkpt>
      <trkpt lat="46.19112" lon="6.81765">
        <ele>2197</ele>
        <time>2011-06-26T09:26:31Z</time>
      </trkpt>
      <trkpt lat="46.19125" lon="6.81734">
        <ele>2207</ele>
        <time>2011-06-26T09:26:41Z</time>
      </trkpt>
      <trkpt lat="46.19138" lon="6.81704">
        <ele>2217</ele>
        <time>2011-06-26T09:26:51Z</time>
      </trkpt>
      <trkpt lat="46.19152" lon="6.81671">
        <ele>2228</ele>
        <time>2011-06-26T09:27:02Z</time>
      </trkpt>
      <trkpt lat="46.19166" lon="6.81641">
        <ele>2238</ele>
        <time>2011-06-26T09:27:12Z</time>
      </trkpt>
      <trkpt lat="46.19178" lon="6.8161">
        <ele>2248</ele>
        <time>2011-06-26T09:27:22Z</time>
      </trkpt>
      <trkpt lat="46.19188" lon="6.81584">
        <ele>2249</ele>
        <time>2011-06-26T09:27:32Z</time>
      </trkpt>
      <trkpt lat="46.19187" lon="6.81545">
        <ele>2251</ele>
        <time>2011-06-26T09:27:42Z</time>
      </trkpt>
      <trkpt lat="46.19186" lon="6.81508">
        <ele>2250</ele>
        <time>2011-06-26T09:27:53Z</time>
      </trkpt>
      <trkpt lat="46.19191" lon="6.81508">
        <ele>2250</ele>
        <time>2011-06-26T09:28:04Z</time>
      </trkpt>
      <trkpt lat="46.19178" lon="6.81504">
        <ele>2247</ele>
        <time>2011-06-26T09:28:16Z</time>
      </trkpt>
      <trkpt lat="46.19162" lon="6.81482">
        <ele>2247</ele>
        <time>2011-06-26T09:28:26Z</time>
      </trkpt>
      <trkpt lat="46.19141" lon="6.81476">
        <ele>2244</ele>
        <time>2011-06-26T09:28:47Z</time>
      </trkpt>
      <trkpt lat="46.19097" lon="6.81481">
        <ele>2239</ele>
        <time>2011-06-26T09:28:57Z</time>
      </trkpt>
      <trkpt lat="46.19045" lon="6.81528">
        <ele>2232</ele>
        <time>2011-06-26T09:29:07Z</time>
      </trkpt>
      <trkpt lat="46.19003" lon="6.81608">
        <ele>2224</ele>
        <time>2011-06-26T09:29:17Z</time>
      </trkpt>
      <trkpt lat="46.18957" lon="6.81662">
        <ele>2216</ele>
        <time>2011-06-26T09:29:27Z</time>
      </trkpt>
      <trkpt lat="46.18907" lon="6.81695">
        <ele>2206</ele>
        <time>2011-06-26T09:29:37Z</time>
      </trkpt>
      <trkpt lat="46.18846" lon="6.81703">
        <ele>2196</ele>
        <time>2011-06-26T09:29:47Z</time>
      </trkpt>
      <trkpt lat="46.18864" lon="6.81715">
        <ele>2188</ele>
        <time>2011-06-26T09:29:57Z</time>
      </trkpt>
      <trkpt lat="46.18905" lon="6.81722">
        <ele>2187</ele>
        <time>2011-06-26T09:30:07Z</time>
      </trkpt>
      <trkpt lat="46.18954" lon="6.81766">
        <ele>2183</ele>
        <time>2011-06-26T09:30:17Z</time>
      </trkpt>
      <trkpt lat="46.19009" lon="6.81785">
        <ele>2177</ele>
        <time>2011-06-26T09:30:27Z</time>
      </trkpt>
      <trkpt lat="46.19053" lon="6.81814">
        <ele>2169</ele>
        <time>2011-06-26T09:30:37Z</time>
      </trkpt>
      <trkpt lat="46.19087" lon="6.81872">
        <ele>2159</ele>
        <time>2011-06-26T09:30:47Z</time>
      </trkpt>
      <trkpt lat="46.19126" lon="6.81929">
        <ele>2149</ele>
        <time>2011-06-26T09:30:57Z</time>
      </trkpt>
      <trkpt lat="46.19136" lon="6.81987">
        <ele>2139</ele>
        <time>2011-06-26T09:31:07Z</time>
      </trkpt>
      <trkpt lat="46.19152" lon="6.82044">
        <ele>2126</ele>
        <time>2011-06-26T09:31:17Z</time>
      </trkpt>
      <trkpt lat="46.19178" lon="6.82106">
        <ele>2115</ele>
        <time>2011-06-26T09:31:27Z</time>
      </trkpt>
      <trkpt lat="46.19199" lon="6.82124">
        <ele>2102</ele>
        <time>2011-06-26T09:31:38Z</time>
      </trkpt>
      <trkpt lat="46.1923" lon="6.82129">
        <ele>2095</ele>
        <time>2011-06-26T09:31:48Z</time>
      </trkpt>
      <trkpt lat="46.19223" lon="6.82077">
        <ele>2087</ele>
        <time>2011-06-26T09:31:58Z</time>
      </trkpt>
      <trkpt lat="46.19242" lon="6.82079">
        <ele>2078</ele>
        <time>2011-06-26T09:32:08Z</time>
      </trkpt>
      <trkpt lat="46.19273" lon="6.82108">
        <ele>2073</ele>
        <time>2011-06-26T09:32:18Z</time>
      </trkpt>
      <trkpt lat="46.19315" lon="6.82098">
        <ele>2067</ele>
        <time>2011-06-26T09:32:28Z</time>
      </trkpt>
      <trkpt lat="46.19363" lon="6.82092">
        <ele>2058</ele>
        <time>2011-06-26T09:32:38Z</time>
      </trkpt>
      <trkpt lat="46.19405" lon="6.82074">
        <ele>2048</ele>
        <time>2011-06-26T09:32:48Z</time>
      </trkpt>
      <trkpt lat="46.19455" lon="6.8206">
        <ele>2042</ele>
        <time>2011-06-26T09:32:58Z</time>
      </trkpt>
      <trkpt lat="46.19499" lon="6.82045">
        <ele>2032</ele>
        <time>2011-06-26T09:33:08Z</time>
      </trkpt>
      <trkpt lat="46.19538" lon="6.82018">
        <ele>2022</ele>
        <time>2011-06-26T09:33:18Z</time>
      </trkpt>
      <trkpt lat="46.19583" lon="6.81985">
        <ele>2012</ele>
        <time>2011-06-26T09:33:28Z</time>
      </trkpt>
      <trkpt lat="46.19639" lon="6.81926">
        <ele>2002</ele>
        <time>2011-06-26T09:33:38Z</time>
      </trkpt>
      <trkpt lat="46.19671" lon="6.81841">
        <ele>1998</ele>
        <time>2011-06-26T09:33:48Z</time>
      </trkpt>
      <trkpt lat="46.19701" lon="6.81742">
        <ele>1994</ele>
        <time>2011-06-26T09:33:58Z</time>
      </trkpt>
      <trkpt lat="46.19705" lon="6.81673">
        <ele>1994</ele>
        <time>2011-06-26T09:34:08Z</time>
      </trkpt>
      <trkpt lat="46.19704" lon="6.81637">
        <ele>1994</ele>
        <time>2011-06-26T09:34:18Z</time>
      </trkpt>
      <trkpt lat="46.19707" lon="6.81568">
        <ele>1989</ele>
        <time>2011-06-26T09:34:28Z</time>
      </trkpt>
      <trkpt lat="46.1969" lon="6.81505">
        <ele>1982</ele>
        <time>2011-06-26T09:34:38Z</time>
      </trkpt>
      <trkpt lat="46.19678" lon="6.81421">
        <ele>1977</ele>
        <time>2011-06-26T09:34:48Z</time>
      </trkpt>
      <trkpt lat="46.19663" lon="6.81366">
        <ele>1977</ele>
        <time>2011-06-26T09:34:58Z</time>
      </trkpt>
      <trkpt lat="46.19651" lon="6.81333">
        <ele>1977</ele>
        <time>2011-06-26T09:35:08Z</time>
      </trkpt>
      <trkpt lat="46.19658" lon="6.81308">
        <ele>1980</ele>
        <time>2011-06-26T09:35:18Z</time>
      </trkpt>
      <trkpt lat="46.19666" lon="6.81294">
        <ele>1981</ele>
        <time>2011-06-26T09:35:28Z</time>
      </trkpt>
      <trkpt lat="46.19682" lon="6.81292">
        <ele>1984</ele>
        <time>2011-06-26T09:35:38Z</time>
      </trkpt>
      <trkpt lat="46.19707" lon="6.81289">
        <ele>1984</ele>
        <time>2011-06-26T09:35:48Z</time>
      </trkpt>
      <trkpt lat="46.19732" lon="6.81289">
        <ele>1984</ele>
        <time>2011-06-26T09:35:58Z</time>
      </trkpt>
      <trkpt lat="46.19762" lon="6.81269">
        <ele>1978</ele>
        <time>2011-06-26T09:36:08Z</time>
      </trkpt>
      <trkpt lat="46.19791" lon="6.81224">
        <ele>1975</ele>
        <time>2011-06-26T09:36:18Z</time>
      </trkpt>
      <trkpt lat="46.1982" lon="6.81169">
        <ele>1973</ele>
        <time>2011-06-26T09:36:28Z</time>
      </trkpt>
      <trkpt lat="46.19792" lon="6.8112">
        <ele>1972</ele>
        <time>2011-06-26T09:36:38Z</time>
      </trkpt>
      <trkpt lat="46.1977" lon="6.81076">
        <ele>1972</ele>
        <time>2011-06-26T09:36:48Z</time>
      </trkpt>
      <trkpt lat="46.19777" lon="6.81031">
        <ele>1972</ele>
        <time>2011-06-26T09:36:58Z</time>
      </trkpt>
      <trkpt lat="46.19801" lon="6.80981">
        <ele>1971</ele>
        <time>2011-06-26T09:37:08Z</time>
      </trkpt>
      <trkpt lat="46.19793" lon="6.80944">
        <ele>1971</ele>
        <time>2011-06-26T09:37:18Z</time>
      </trkpt>
      <trkpt lat="46.19779" lon="6.80921">
        <ele>1971</ele>
        <time>2011-06-26T09:37:28Z</time>
      </trkpt>
      <trkpt lat="46.19774" lon="6.809">
        <ele>1971</ele>
        <time>2011-06-26T09:37:38Z</time>
      </trkpt>
      <trkpt lat="46.19778" lon="6.80891">
        <ele>1971</ele>
        <time>2011-06-26T09:37:48Z</time>
      </trkpt>
      <trkpt lat="46.1978" lon="6.80881">
        <ele>1971</ele>
        <time>2011-06-26T09:37:59Z</time>
      </trkpt>
      <trkpt lat="46.19785" lon="6.80868">
        <ele>1973</ele>
        <time>2011-06-26T09:38:09Z</time>
      </trkpt>
      <trkpt lat="46.1978" lon="6.80847">
        <ele>1974</ele>
        <time>2011-06-26T09:38:19Z</time>
      </trkpt>
      <trkpt lat="46.19761" lon="6.80836">
        <ele>1974</ele>
        <time>2011-06-26T09:38:29Z</time>
      </trkpt>
      <trkpt lat="46.19756" lon="6.80809">
        <ele>1976</ele>
        <time>2011-06-26T09:38:39Z</time>
      </trkpt>
      <trkpt lat="46.1975" lon="6.80785">
        <ele>1977</ele>
        <time>2011-06-26T09:38:49Z</time>
      </trkpt>
      <trkpt lat="46.1974" lon="6.80764">
        <ele>1980</ele>
        <time>2011-06-26T09:38:59Z</time>
      </trkpt>
      <trkpt lat="46.19733" lon="6.80745">
        <ele>1983</ele>
        <time>2011-06-26T09:39:09Z</time>
      </trkpt>
      <trkpt lat="46.19725" lon="6.80724">
        <ele>1985</ele>
        <time>2011-06-26T09:39:19Z</time>
      </trkpt>
      <trkpt lat="46.19709" lon="6.80708">
        <ele>1985</ele>
        <time>2011-06-26T09:39:29Z</time>
      </trkpt>
      <trkpt lat="46.19698" lon="6.80679">
        <ele>1985</ele>
        <time>2011-06-26T09:39:39Z</time>
      </trkpt>
      <trkpt lat="46.197" lon="6.80648">
        <ele>1989</ele>
        <time>2011-06-26T09:39:49Z</time>
      </trkpt>
      <trkpt lat="46.19696" lon="6.80623">
        <ele>1993</ele>
        <time>2011-06-26T09:39:59Z</time>
      </trkpt>
      <trkpt lat="46.1969" lon="6.80598">
        <ele>1996</ele>
        <time>2011-06-26T09:40:09Z</time>
      </trkpt>
      <trkpt lat="46.19688" lon="6.80568">
        <ele>1997</ele>
        <time>2011-06-26T09:40:19Z</time>
      </trkpt>
      <trkpt lat="46.19695" lon="6.80525">
        <ele>1997</ele>
        <time>2011-06-26T09:40:29Z</time>
      </trkpt>
      <trkpt lat="46.19697" lon="6.8049">
        <ele>1997</ele>
        <time>2011-06-26T09:40:39Z</time>
      </trkpt>
      <trkpt lat="46.19713" lon="6.80468">
        <ele>1996</ele>
        <time>2011-06-26T09:40:49Z</time>
      </trkpt>
      <trkpt lat="46.19757" lon="6.80403">
        <ele>1992</ele>
        <time>2011-06-26T09:40:59Z</time>
      </trkpt>
      <trkpt lat="46.19797" lon="6.8032">
        <ele>1990</ele>
        <time>2011-06-26T09:41:09Z</time>
      </trkpt>
      <trkpt lat="46.19823" lon="6.80231">
        <ele>1987</ele>
        <time>2011-06-26T09:41:19Z</time>
      </trkpt>
      <trkpt lat="46.19835" lon="6.80138">
        <ele>1982</ele>
        <time>2011-06-26T09:41:29Z</time>
      </trkpt>
      <trkpt lat="46.19865" lon="6.80052">
        <ele>1978</ele>
        <time>2011-06-26T09:41:39Z</time>
      </trkpt>
      <trkpt lat="46.19902" lon="6.79984">
        <ele>1970</ele>
        <time>2011-06-26T09:41:49Z</time>
      </trkpt>
      <trkpt lat="46.19938" lon="6.79922">
        <ele>1960</ele>
        <time>2011-06-26T09:41:59Z</time>
      </trkpt>
      <trkpt lat="46.19995" lon="6.79884">
        <ele>1950</ele>
        <time>2011-06-26T09:42:09Z</time>
      </trkpt>
      <trkpt lat="46.20042" lon="6.7981">
        <ele>1939</ele>
        <time>2011-06-26T09:42:19Z</time>
      </trkpt>
      <trkpt lat="46.2009" lon="6.79761">
        <ele>1929</ele>
        <time>2011-06-26T09:42:29Z</time>
      </trkpt>
      <trkpt lat="46.20098" lon="6.79724">
        <ele>1922</ele>
        <time>2011-06-26T09:42:39Z</time>
      </trkpt>
      <trkpt lat="46.20098" lon="6.79708">
        <ele>1918</ele>
        <time>2011-06-26T09:42:49Z</time>
      </trkpt>
      <trkpt lat="46.20079" lon="6.79689">
        <ele>1914</ele>
        <time>2011-06-26T09:42:59Z</time>
      </trkpt>
      <trkpt lat="46.20108" lon="6.79671">
        <ele>1911</ele>
        <time>2011-06-26T09:43:09Z</time>
      </trkpt>
      <trkpt lat="46.20123" lon="6.79638">
        <ele>1909</ele>
        <time>2011-06-26T09:43:19Z</time>
      </trkpt>
      <trkpt lat="46.20142" lon="6.79609">
        <ele>1902</ele>
        <time>2011-06-26T09:43:29Z</time>
      </trkpt>
      <trkpt lat="46.20157" lon="6.79559">
        <ele>1897</ele>
        <time>2011-06-26T09:43:39Z</time>
      </trkpt>
      <trkpt lat="46.20192" lon="6.79503">
        <ele>1892</ele>
        <time>2011-06-26T09:43:49Z</time>
      </trkpt>
      <trkpt lat="46.20225" lon="6.79455">
        <ele>1888</ele>
        <time>2011-06-26T09:43:59Z</time>
      </trkpt>
      <trkpt lat="46.2026" lon="6.79401">
        <ele>1883</ele>
        <time>2011-06-26T09:44:09Z</time>
      </trkpt>
      <trkpt lat="46.20291" lon="6.79348">
        <ele>1877</ele>
        <time>2011-06-26T09:44:19Z</time>
      </trkpt>
      <trkpt lat="46.20324" lon="6.79306">
        <ele>1873</ele>
        <time>2011-06-26T09:44:29Z</time>
      </trkpt>
      <trkpt lat="46.20355" lon="6.79258">
        <ele>1870</ele>
        <time>2011-06-26T09:44:39Z</time>
      </trkpt>
      <trkpt lat="46.20405" lon="6.79249">
        <ele>1869</ele>
        <time>2011-06-26T09:44:49Z</time>
      </trkpt>
      <trkpt lat="46.20451" lon="6.79225">
        <ele>1863</ele>
        <time>2011-06-26T09:44:59Z</time>
      </trkpt>
      <trkpt lat="46.205" lon="6.79195">
        <ele>1853</ele>
        <time>2011-06-26T09:45:09Z</time>
      </trkpt>
      <trkpt lat="46.20544" lon="6.79149">
        <ele>1845</ele>
        <time>2011-06-26T09:45:19Z</time>
      </trkpt>
      <trkpt lat="46.20587" lon="6.7911">
        <ele>1841</ele>
        <time>2011-06-26T09:45:29Z</time>
      </trkpt>
      <trkpt lat="46.2062" lon="6.79056">
        <ele>1840</ele>
        <time>2011-06-26T09:45:39Z</time>
      </trkpt>
      <trkpt lat="46.20669" lon="6.79009">
        <ele>1834</ele>
        <time>2011-06-26T09:45:49Z</time>
      </trkpt>
      <trkpt lat="46.207" lon="6.78971">
        <ele>1824</ele>
        <time>2011-06-26T09:45:59Z</time>
      </trkpt>
      <trkpt lat="46.2072" lon="6.78887">
        <ele>1815</ele>
        <time>2011-06-26T09:46:09Z</time>
      </trkpt>
      <trkpt lat="46.20745" lon="6.78834">
        <ele>1813</ele>
        <time>2011-06-26T09:46:19Z</time>
      </trkpt>
      <trkpt lat="46.20748" lon="6.78786">
        <ele>1811</ele>
        <time>2011-06-26T09:46:33Z</time>
      </trkpt>
      <trkpt lat="46.20777" lon="6.78763">
        <ele>1803</ele>
        <time>2011-06-26T09:46:43Z</time>
      </trkpt>
      <trkpt lat="46.20815" lon="6.78744">
        <ele>1797</ele>
        <time>2011-06-26T09:46:53Z</time>
      </trkpt>
      <trkpt lat="46.20854" lon="6.78725">
        <ele>1789</ele>
        <time>2011-06-26T09:47:03Z</time>
      </trkpt>
      <trkpt lat="46.20905" lon="6.7869">
        <ele>1779</ele>
        <time>2011-06-26T09:47:14Z</time>
      </trkpt>
      <trkpt lat="46.20944" lon="6.78674">
        <ele>1771</ele>
        <time>2011-06-26T09:47:24Z</time>
      </trkpt>
      <trkpt lat="46.20953" lon="6.78606">
        <ele>1766</ele>
        <time>2011-06-26T09:47:34Z</time>
      </trkpt>
      <trkpt lat="46.21013" lon="6.78575">
        <ele>1758</ele>
        <time>2011-06-26T09:47:44Z</time>
      </trkpt>
      <trkpt lat="46.21054" lon="6.78502">
        <ele>1748</ele>
        <time>2011-06-26T09:47:54Z</time>
      </trkpt>
      <trkpt lat="46.21079" lon="6.78405">
        <ele>1743</ele>
        <time>2011-06-26T09:48:04Z</time>
      </trkpt>
      <trkpt lat="46.21095" lon="6.78305">
        <ele>1735</ele>
        <time>2011-06-26T09:48:14Z</time>
      </trkpt>
      <trkpt lat="46.21117" lon="6.78228">
        <ele>1726</ele>
        <time>2011-06-26T09:48:24Z</time>
      </trkpt>
      <trkpt lat="46.21125" lon="6.78147">
        <ele>1716</ele>
        <time>2011-06-26T09:48:34Z</time>
      </trkpt>
      <trkpt lat="46.21139" lon="6.78069">
        <ele>1705</ele>
        <time>2011-06-26T09:48:44Z</time>
      </trkpt>
      <trkpt lat="46.21161" lon="6.77996">
        <ele>1692</ele>
        <time>2011-06-26T09:48:54Z</time>
      </trkpt>
      <trkpt lat="46.21185" lon="6.77915">
        <ele>1680</ele>
        <time>2011-06-26T09:49:04Z</time>
      </trkpt>
      <trkpt lat="46.21232" lon="6.77839">
        <ele>1664</ele>
        <time>2011-06-26T09:49:14Z</time>
      </trkpt>
      <trkpt lat="46.21277" lon="6.77773">
        <ele>1649</ele>
        <time>2011-06-26T09:49:24Z</time>
      </trkpt>
      <trkpt lat="46.21228" lon="6.77764">
        <ele>1633</ele>
        <time>2011-06-26T09:49:34Z</time>
      </trkpt>
      <trkpt lat="46.21151" lon="6.77801">
        <ele>1623</ele>
        <time>2011-06-26T09:49:44Z</time>
      </trkpt>
      <trkpt lat="46.21075" lon="6.77858">
        <ele>1610</ele>
        <time>2011-06-26T09:49:55Z</time>
      </trkpt>
      <trkpt lat="46.21011" lon="6.77912">
        <ele>1597</ele>
        <time>2011-06-26T09:50:05Z</time>
      </trkpt>
      <trkpt lat="46.20959" lon="6.77986">
        <ele>1585</ele>
        <time>2011-06-26T09:50:16Z</time>
      </trkpt>
      <trkpt lat="46.20899" lon="6.78021">
        <ele>1574</ele>
        <time>2011-06-26T09:50:26Z</time>
      </trkpt>
      <trkpt lat="46.20842" lon="6.78053">
        <ele>1563</ele>
        <time>2011-06-26T09:50:36Z</time>
      </trkpt>
      <trkpt lat="46.20786" lon="6.78048">
        <ele>1552</ele>
        <time>2011-06-26T09:50:46Z</time>
      </trkpt>
      <trkpt lat="46.20731" lon="6.78052">
        <ele>1542</ele>
        <time>2011-06-26T09:50:56Z</time>
      </trkpt>
      <trkpt lat="46.20726" lon="6.77998">
        <ele>1530</ele>
        <time>2011-06-26T09:51:07Z</time>
      </trkpt>
      <trkpt lat="46.20744" lon="6.7793">
        <ele>1521</ele>
        <time>2011-06-26T09:51:17Z</time>
      </trkpt>
      <trkpt lat="46.20736" lon="6.77855">
        <ele>1514</ele>
        <time>2011-06-26T09:51:27Z</time>
      </trkpt>
      <trkpt lat="46.20708" lon="6.77773">
        <ele>1507</ele>
        <time>2011-06-26T09:51:37Z</time>
      </trkpt>
      <trkpt lat="46.20729" lon="6.77705">
        <ele>1505</ele>
        <time>2011-06-26T09:51:47Z</time>
      </trkpt>
      <trkpt lat="46.20754" lon="6.77688">
        <ele>1505</ele>
        <time>2011-06-26T09:51:58Z</time>
      </trkpt>
      <trkpt lat="46.20758" lon="6.77666">
        <ele>1505</ele>
        <time>2011-06-26T09:52:08Z</time>
      </trkpt>
      <trkpt lat="46.20741" lon="6.77656">
        <ele>1503</ele>
        <time>2011-06-26T09:52:18Z</time>
      </trkpt>
      <trkpt lat="46.2073" lon="6.77657">
        <ele>1502</ele>
        <time>2011-06-26T09:52:29Z</time>
      </trkpt>
      <trkpt lat="46.20724" lon="6.77655">
        <ele>1498</ele>
        <time>2011-06-26T09:52:46Z</time>
      </trkpt>
      <trkpt lat="46.20743" lon="6.77661">
        <ele>1492</ele>
        <time>2011-06-26T09:53:00Z</time>
      </trkpt>
      <trkpt lat="46.20758" lon="6.77671">
        <ele>1492</ele>
        <time>2011-06-26T09:53:11Z</time>
      </trkpt>
      <trkpt lat="46.20746" lon="6.77692">
        <ele>1492</ele>
        <time>2011-06-26T09:53:21Z</time>
      </trkpt>
      <trkpt lat="46.20739" lon="6.77688">
        <ele>1492</ele>
        <time>2011-06-26T09:53:31Z</time>
      </trkpt>
      <trkpt lat="46.20736" lon="6.7768">
        <ele>1492</ele>
        <time>2011-06-26T09:53:44Z</time>
      </trkpt>
      <trkpt lat="46.20731" lon="6.77678">
        <ele>1492</ele>
        <time>2011-06-26T09:53:55Z</time>
      </trkpt>
      <trkpt lat="46.20697" lon="6.77666">
        <ele>1492</ele>
        <time>2011-06-26T09:54:05Z</time>
      </trkpt>
      <trkpt lat="46.20664" lon="6.77653">
        <ele>1496</ele>
        <time>2011-06-26T09:54:15Z</time>
      </trkpt>
      <trkpt lat="46.20631" lon="6.77641">
        <ele>1506</ele>
        <time>2011-06-26T09:54:25Z</time>
      </trkpt>
      <trkpt lat="46.20598" lon="6.77629">
        <ele>1516</ele>
        <time>2011-06-26T09:54:35Z</time>
      </trkpt>
      <trkpt lat="46.20565" lon="6.77617">
        <ele>1526</ele>
        <time>2011-06-26T09:54:45Z</time>
      </trkpt>
      <trkpt lat="46.20533" lon="6.77606">
        <ele>1535</ele>
        <time>2011-06-26T09:54:55Z</time>
      </trkpt>
      <trkpt lat="46.205" lon="6.77595">
        <ele>1545</ele>
        <time>2011-06-26T09:55:05Z</time>
      </trkpt>
      <trkpt lat="46.20468" lon="6.77584">
        <ele>1555</ele>
        <time>2011-06-26T09:55:15Z</time>
      </trkpt>
      <trkpt lat="46.20436" lon="6.77574">
        <ele>1564</ele>
        <time>2011-06-26T09:55:25Z</time>
      </trkpt>
      <trkpt lat="46.20403" lon="6.77562">
        <ele>1575</ele>
        <time>2011-06-26T09:55:36Z</time>
      </trkpt>
      <trkpt lat="46.20372" lon="6.77551">
        <ele>1590</ele>
        <time>2011-06-26T09:55:46Z</time>
      </trkpt>
      <trkpt lat="46.2034" lon="6.7754">
        <ele>1606</ele>
        <time>2011-06-26T09:55:56Z</time>
      </trkpt>
      <trkpt lat="46.2031" lon="6.77529">
        <ele>1620</ele>
        <time>2011-06-26T09:56:06Z</time>
      </trkpt>
      <trkpt lat="46.20279" lon="6.77518">
        <ele>1637</ele>
        <time>2011-06-26T09:56:16Z</time>
      </trkpt>
      <trkpt lat="46.2025" lon="6.77508">
        <ele>1655</ele>
        <time>2011-06-26T09:56:26Z</time>
      </trkpt>
      <trkpt lat="46.20217" lon="6.77497">
        <ele>1665</ele>
        <time>2011-06-26T09:56:36Z</time>
      </trkpt>
      <trkpt lat="46.20185" lon="6.77487">
        <ele>1675</ele>
        <time>2011-06-26T09:56:46Z</time>
      </trkpt>
      <trkpt lat="46.20149" lon="6.77474">
        <ele>1686</ele>
        <time>2011-06-26T09:56:57Z</time>
      </trkpt>
      <trkpt lat="46.20116" lon="6.77462">
        <ele>1696</ele>
        <time>2011-06-26T09:57:07Z</time>
      </trkpt>
      <trkpt lat="46.20083" lon="6.7745">
        <ele>1706</ele>
        <time>2011-06-26T09:57:17Z</time>
      </trkpt>
      <trkpt lat="46.20051" lon="6.77439">
        <ele>1716</ele>
        <time>2011-06-26T09:57:27Z</time>
      </trkpt>
      <trkpt lat="46.20019" lon="6.77428">
        <ele>1726</ele>
        <time>2011-06-26T09:57:37Z</time>
      </trkpt>
      <trkpt lat="46.19987" lon="6.77417">
        <ele>1736</ele>
        <time>2011-06-26T09:57:47Z</time>
      </trkpt>
      <trkpt lat="46.19955" lon="6.77407">
        <ele>1743</ele>
        <time>2011-06-26T09:57:57Z</time>
      </trkpt>
      <trkpt lat="46.19925" lon="6.77396">
        <ele>1753</ele>
        <time>2011-06-26T09:58:07Z</time>
      </trkpt>
      <trkpt lat="46.19891" lon="6.77384">
        <ele>1764</ele>
        <time>2011-06-26T09:58:18Z</time>
      </trkpt>
      <trkpt lat="46.19859" lon="6.77373">
        <ele>1774</ele>
        <time>2011-06-26T09:58:28Z</time>
      </trkpt>
      <trkpt lat="46.19828" lon="6.77361">
        <ele>1787</ele>
        <time>2011-06-26T09:58:38Z</time>
      </trkpt>
      <trkpt lat="46.19797" lon="6.77351">
        <ele>1802</ele>
        <time>2011-06-26T09:58:48Z</time>
      </trkpt>
      <trkpt lat="46.19768" lon="6.77341">
        <ele>1821</ele>
        <time>2011-06-26T09:58:58Z</time>
      </trkpt>
      <trkpt lat="46.19741" lon="6.77331">
        <ele>1841</ele>
        <time>2011-06-26T09:59:08Z</time>
      </trkpt>
      <trkpt lat="46.19712" lon="6.77321">
        <ele>1861</ele>
        <time>2011-06-26T09:59:18Z</time>
      </trkpt>
      <trkpt lat="46.19691" lon="6.77316">
        <ele>1877</ele>
        <time>2011-06-26T09:59:29Z</time>
      </trkpt>
      <trkpt lat="46.19673" lon="6.77316">
        <ele>1879</ele>
        <time>2011-06-26T09:59:42Z</time>
      </trkpt>
      <trkpt lat="46.19651" lon="6.77323">
        <ele>1879</ele>
        <time>2011-06-26T09:59:52Z</time>
      </trkpt>
      <trkpt lat="46.1963" lon="6.77328">
        <ele>1879</ele>
        <time>2011-06-26T10:00:02Z</time>
      </trkpt>
      <trkpt lat="46.19604" lon="6.77317">
        <ele>1874</ele>
        <time>2011-06-26T10:00:12Z</time>
      </trkpt>
      <trkpt lat="46.19532" lon="6.77303">
        <ele>1865</ele>
        <time>2011-06-26T10:00:22Z</time>
      </trkpt>
      <trkpt lat="46.19441" lon="6.77283">
        <ele>1850</ele>
        <time>2011-06-26T10:00:32Z</time>
      </trkpt>
      <trkpt lat="46.19395" lon="6.77277">
        <ele>1838</ele>
        <time>2011-06-26T10:00:42Z</time>
      </trkpt>
      <trkpt lat="46.19402" lon="6.77266">
        <ele>1833</ele>
        <time>2011-06-26T10:00:52Z</time>
      </trkpt>
      <trkpt lat="46.19438" lon="6.77215">
        <ele>1833</ele>
        <time>2011-06-26T10:01:03Z</time>
      </trkpt>
      <trkpt lat="46.19475" lon="6.7715">
        <ele>1832</ele>
        <time>2011-06-26T10:01:13Z</time>
      </trkpt>
      <trkpt lat="46.19505" lon="6.77066">
        <ele>1831</ele>
        <time>2011-06-26T10:01:23Z</time>
      </trkpt>
      <trkpt lat="46.19533" lon="6.76985">
        <ele>1829</ele>
        <time>2011-06-26T10:01:33Z</time>
      </trkpt>
      <trkpt lat="46.19544" lon="6.76896">
        <ele>1826</ele>
        <time>2011-06-26T10:01:43Z</time>
      </trkpt>
      <trkpt lat="46.19576" lon="6.7682">
        <ele>1823</ele>
        <time>2011-06-26T10:01:53Z</time>
      </trkpt>
      <trkpt lat="46.19624" lon="6.76775">
        <ele>1818</ele>
        <time>2011-06-26T10:02:03Z</time>
      </trkpt>
      <trkpt lat="46.19629" lon="6.76714">
        <ele>1815</ele>
        <time>2011-06-26T10:02:13Z</time>
      </trkpt>
      <trkpt lat="46.19667" lon="6.76677">
        <ele>1812</ele>
        <time>2011-06-26T10:02:23Z</time>
      </trkpt>
      <trkpt lat="46.19742" lon="6.76648">
        <ele>1804</ele>
        <time>2011-06-26T10:02:33Z</time>
      </trkpt>
      <trkpt lat="46.19836" lon="6.76578">
        <ele>1794</ele>
        <time>2011-06-26T10:02:43Z</time>
      </trkpt>
      <trkpt lat="46.1988" lon="6.76449">
        <ele>1784</ele>
        <time>2011-06-26T10:02:53Z</time>
      </trkpt>
      <trkpt lat="46.19889" lon="6.76308">
        <ele>1776</ele>
        <time>2011-06-26T10:03:03Z</time>
      </trkpt>
      <trkpt lat="46.19895" lon="6.76174">
        <ele>1771</ele>
        <time>2011-06-26T10:03:13Z</time>
      </trkpt>
      <trkpt lat="46.19933" lon="6.76044">
        <ele>1766</ele>
        <time>2011-06-26T10:03:23Z</time>
      </trkpt>
      <trkpt lat="46.19967" lon="6.75922">
        <ele>1761</ele>
        <time>2011-06-26T10:03:33Z</time>
      </trkpt>
      <trkpt lat="46.20011" lon="6.75829">
        <ele>1757</ele>
        <time>2011-06-26T10:03:43Z</time>
      </trkpt>
      <trkpt lat="46.20048" lon="6.75784">
        <ele>1757</ele>
        <time>2011-06-26T10:03:53Z</time>
      </trkpt>
      <trkpt lat="46.20058" lon="6.75775">
        <ele>1757</ele>
        <time>2011-06-26T10:04:05Z</time>
      </trkpt>
      <trkpt lat="46.2008" lon="6.75731">
        <ele>1757</ele>
        <time>2011-06-26T10:04:15Z</time>
      </trkpt>
      <trkpt lat="46.20097" lon="6.7568">
        <ele>1757</ele>
        <time>2011-06-26T10:04:25Z</time>
      </trkpt>
      <trkpt lat="46.20102" lon="6.75625">
        <ele>1757</ele>
        <time>2011-06-26T10:04:35Z</time>
      </trkpt>
      <trkpt lat="46.20103" lon="6.75561">
        <ele>1757</ele>
        <time>2011-06-26T10:04:45Z</time>
      </trkpt>
      <trkpt lat="46.20103" lon="6.75471">
        <ele>1757</ele>
        <time>2011-06-26T10:04:55Z</time>
      </trkpt>
      <trkpt lat="46.20116" lon="6.7537">
        <ele>1757</ele>
        <time>2011-06-26T10:05:05Z</time>
      </trkpt>
      <trkpt lat="46.20124" lon="6.75282">
        <ele>1756</ele>
        <time>2011-06-26T10:05:15Z</time>
      </trkpt>
      <trkpt lat="46.20127" lon="6.75199">
        <ele>1756</ele>
        <time>2011-06-26T10:05:25Z</time>
      </trkpt>
      <trkpt lat="46.20119" lon="6.75115">
        <ele>1756</ele>
        <time>2011-06-26T10:05:35Z</time>
      </trkpt>
      <trkpt lat="46.20108" lon="6.75024">
        <ele>1755</ele>
        <time>2011-06-26T10:05:45Z</time>
      </trkpt>
      <trkpt lat="46.2009" lon="6.74918">
        <ele>1750</ele>
        <time>2011-06-26T10:05:55Z</time>
      </trkpt>
      <trkpt lat="46.20081" lon="6.74806">
        <ele>1748</ele>
        <time>2011-06-26T10:06:05Z</time>
      </trkpt>
      <trkpt lat="46.20068" lon="6.74687">
        <ele>1747</ele>
        <time>2011-06-26T10:06:16Z</time>
      </trkpt>
      <trkpt lat="46.20064" lon="6.74612">
        <ele>1747</ele>
        <time>2011-06-26T10:06:27Z</time>
      </trkpt>
      <trkpt lat="46.20056" lon="6.7456">
        <ele>1747</ele>
        <time>2011-06-26T10:06:37Z</time>
      </trkpt>
      <trkpt lat="46.20049" lon="6.74509">
        <ele>1747</ele>
        <time>2011-06-26T10:06:47Z</time>
      </trkpt>
      <trkpt lat="46.20047" lon="6.74477">
        <ele>1748</ele>
        <time>2011-06-26T10:06:57Z</time>
      </trkpt>
      <trkpt lat="46.20043" lon="6.7445">
        <ele>1751</ele>
        <time>2011-06-26T10:07:07Z</time>
      </trkpt>
      <trkpt lat="46.20039" lon="6.74422">
        <ele>1754</ele>
        <time>2011-06-26T10:07:17Z</time>
      </trkpt>
      <trkpt lat="46.20034" lon="6.74394">
        <ele>1759</ele>
        <time>2011-06-26T10:07:27Z</time>
      </trkpt>
      <trkpt lat="46.20027" lon="6.74359">
        <ele>1764</ele>
        <time>2011-06-26T10:07:37Z</time>
      </trkpt>
      <trkpt lat="46.20032" lon="6.74317">
        <ele>1769</ele>
        <time>2011-06-26T10:07:47Z</time>
      </trkpt>
      <trkpt lat="46.20036" lon="6.74278">
        <ele>1771</ele>
        <time>2011-06-26T10:07:57Z</time>
      </trkpt>
      <trkpt lat="46.20036" lon="6.74257">
        <ele>1771</ele>
        <time>2011-06-26T10:08:07Z</time>
      </trkpt>
      <trkpt lat="46.2002" lon="6.74217">
        <ele>1766</ele>
        <time>2011-06-26T10:08:18Z</time>
      </trkpt>
      <trkpt lat="46.20015" lon="6.74203">
        <ele>1766</ele>
        <time>2011-06-26T10:08:28Z</time>
      </trkpt>
      <trkpt lat="46.20033" lon="6.74205">
        <ele>1760</ele>
        <time>2011-06-26T10:08:38Z</time>
      </trkpt>
      <trkpt lat="46.20088" lon="6.74246">
        <ele>1751</ele>
        <time>2011-06-26T10:08:48Z</time>
      </trkpt>
      <trkpt lat="46.2014" lon="6.7422">
        <ele>1741</ele>
        <time>2011-06-26T10:08:58Z</time>
      </trkpt>
      <trkpt lat="46.20181" lon="6.74157">
        <ele>1737</ele>
        <time>2011-06-26T10:09:08Z</time>
      </trkpt>
      <trkpt lat="46.20224" lon="6.74143">
        <ele>1732</ele>
        <time>2011-06-26T10:09:18Z</time>
      </trkpt>
      <trkpt lat="46.20251" lon="6.74143">
        <ele>1730</ele>
        <time>2011-06-26T10:09:28Z</time>
      </trkpt>
      <trkpt lat="46.20289" lon="6.74139">
        <ele>1720</ele>
        <time>2011-06-26T10:09:38Z</time>
      </trkpt>
      <trkpt lat="46.20333" lon="6.74133">
        <ele>1711</ele>
        <time>2011-06-26T10:09:48Z</time>
      </trkpt>
      <trkpt lat="46.20355" lon="6.74122">
        <ele>1703</ele>
        <time>2011-06-26T10:09:58Z</time>
      </trkpt>
      <trkpt lat="46.20336" lon="6.74086">
        <ele>1697</ele>
        <time>2011-06-26T10:10:08Z</time>
      </trkpt>
      <trkpt lat="46.20319" lon="6.74062">
        <ele>1690</ele>
        <time>2011-06-26T10:10:18Z</time>
      </trkpt>
      <trkpt lat="46.20277" lon="6.74032">
        <ele>1683</ele>
        <time>2011-06-26T10:10:28Z</time>
      </trkpt>
      <trkpt lat="46.20243" lon="6.74008">
        <ele>1680</ele>
        <time>2011-06-26T10:10:38Z</time>
      </trkpt>
      <trkpt lat="46.2023" lon="6.73994">
        <ele>1678</ele>
        <time>2011-06-26T10:10:48Z</time>
      </trkpt>
      <trkpt lat="46.20214" lon="6.73986">
        <ele>1678</ele>
        <time>2011-06-26T10:10:58Z</time>
      </trkpt>
      <trkpt lat="46.20194" lon="6.73973">
        <ele>1678</ele>
        <time>2011-06-26T10:11:08Z</time>
      </trkpt>
      <trkpt lat="46.20175" lon="6.73959">
        <ele>1675</ele>
        <time>2011-06-26T10:11:18Z</time>
      </trkpt>
      <trkpt lat="46.20152" lon="6.73942">
        <ele>1672</ele>
        <time>2011-06-26T10:11:28Z</time>
      </trkpt>
      <trkpt lat="46.20125" lon="6.73911">
        <ele>1669</ele>
        <time>2011-06-26T10:11:38Z</time>
      </trkpt>
      <trkpt lat="46.20125" lon="6.73873">
        <ele>1667</ele>
        <time>2011-06-26T10:11:48Z</time>
      </trkpt>
      <trkpt lat="46.2014" lon="6.73844">
        <ele>1667</ele>
        <time>2011-06-26T10:11:58Z</time>
      </trkpt>
      <trkpt lat="46.20149" lon="6.73811">
        <ele>1667</ele>
        <time>2011-06-26T10:12:08Z</time>
      </trkpt>
      <trkpt lat="46.20161" lon="6.73772">
        <ele>1667</ele>
        <time>2011-06-26T10:12:18Z</time>
      </trkpt>
      <trkpt lat="46.20173" lon="6.73749">
        <ele>1669</ele>
        <time>2011-06-26T10:12:28Z</time>
      </trkpt>
      <trkpt lat="46.20181" lon="6.73719">
        <ele>1672</ele>
        <time>2011-06-26T10:12:38Z</time>
      </trkpt>
      <trkpt lat="46.20182" lon="6.73684">
        <ele>1674</ele>
        <time>2011-06-26T10:12:48Z</time>
      </trkpt>
      <trkpt lat="46.20181" lon="6.73658">
        <ele>1676</ele>
        <time>2011-06-26T10:12:58Z</time>
      </trkpt>
      <trkpt lat="46.20179" lon="6.73608">
        <ele>1679</ele>
        <time>2011-06-26T10:13:08Z</time>
      </trkpt>
      <trkpt lat="46.2018" lon="6.73565">
        <ele>1679</ele>
        <time>2011-06-26T10:13:19Z</time>
      </trkpt>
      <trkpt lat="46.20183" lon="6.73551">
        <ele>1677</ele>
        <time>2011-06-26T10:13:30Z</time>
      </trkpt>
      <trkpt lat="46.2018" lon="6.73542">
        <ele>1674</ele>
        <time>2011-06-26T10:13:40Z</time>
      </trkpt>
      <trkpt lat="46.20183" lon="6.73544">
        <ele>1672</ele>
        <time>2011-06-26T10:13:50Z</time>
      </trkpt>
      <trkpt lat="46.20177" lon="6.73546">
        <ele>1671</ele>
        <time>2011-06-26T10:14:00Z</time>
      </trkpt>
      <trkpt lat="46.20168" lon="6.73514">
        <ele>1669</ele>
        <time>2011-06-26T10:14:10Z</time>
      </trkpt>
      <trkpt lat="46.20152" lon="6.73485">
        <ele>1668</ele>
        <time>2011-06-26T10:14:20Z</time>
      </trkpt>
      <trkpt lat="46.20136" lon="6.73459">
        <ele>1664</ele>
        <time>2011-06-26T10:14:30Z</time>
      </trkpt>
      <trkpt lat="46.20116" lon="6.73434">
        <ele>1659</ele>
        <time>2011-06-26T10:14:40Z</time>
      </trkpt>
      <trkpt lat="46.20092" lon="6.73403">
        <ele>1649</ele>
        <time>2011-06-26T10:14:50Z</time>
      </trkpt>
      <trkpt lat="46.2006" lon="6.73388">
        <ele>1638</ele>
        <time>2011-06-26T10:15:01Z</time>
      </trkpt>
      <trkpt lat="46.20003" lon="6.73377">
        <ele>1632</ele>
        <time>2011-06-26T10:15:11Z</time>
      </trkpt>
      <trkpt lat="46.19944" lon="6.73357">
        <ele>1630</ele>
        <time>2011-06-26T10:15:21Z</time>
      </trkpt>
      <trkpt lat="46.19924" lon="6.73334">
        <ele>1629</ele>
        <time>2011-06-26T10:15:31Z</time>
      </trkpt>
      <trkpt lat="46.19909" lon="6.73302">
        <ele>1629</ele>
        <time>2011-06-26T10:15:41Z</time>
      </trkpt>
      <trkpt lat="46.19889" lon="6.73266">
        <ele>1629</ele>
        <time>2011-06-26T10:15:51Z</time>
      </trkpt>
      <trkpt lat="46.19877" lon="6.7323">
        <ele>1629</ele>
        <time>2011-06-26T10:16:01Z</time>
      </trkpt>
      <trkpt lat="46.19878" lon="6.73204">
        <ele>1629</ele>
        <time>2011-06-26T10:16:11Z</time>
      </trkpt>
      <trkpt lat="46.19884" lon="6.73176">
        <ele>1629</ele>
        <time>2011-06-26T10:16:22Z</time>
      </trkpt>
      <trkpt lat="46.19883" lon="6.73138">
        <ele>1629</ele>
        <time>2011-06-26T10:16:32Z</time>
      </trkpt>
      <trkpt lat="46.19891" lon="6.73084">
        <ele>1629</ele>
        <time>2011-06-26T10:16:42Z</time>
      </trkpt>
      <trkpt lat="46.1989" lon="6.73047">
        <ele>1629</ele>
        <time>2011-06-26T10:16:52Z</time>
      </trkpt>
      <trkpt lat="46.19888" lon="6.73005">
        <ele>1629</ele>
        <time>2011-06-26T10:17:02Z</time>
      </trkpt>
      <trkpt lat="46.19886" lon="6.72972">
        <ele>1629</ele>
        <time>2011-06-26T10:17:12Z</time>
      </trkpt>
      <trkpt lat="46.19881" lon="6.72919">
        <ele>1630</ele>
        <time>2011-06-26T10:17:22Z</time>
      </trkpt>
      <trkpt lat="46.19881" lon="6.7287">
        <ele>1633</ele>
        <time>2011-06-26T10:17:32Z</time>
      </trkpt>
      <trkpt lat="46.19892" lon="6.72836">
        <ele>1636</ele>
        <time>2011-06-26T10:17:42Z</time>
      </trkpt>
      <trkpt lat="46.19897" lon="6.728">
        <ele>1638</ele>
        <time>2011-06-26T10:17:52Z</time>
      </trkpt>
      <trkpt lat="46.19897" lon="6.72763">
        <ele>1639</ele>
        <time>2011-06-26T10:18:02Z</time>
      </trkpt>
      <trkpt lat="46.19892" lon="6.7271">
        <ele>1639</ele>
        <time>2011-06-26T10:18:12Z</time>
      </trkpt>
      <trkpt lat="46.19884" lon="6.72668">
        <ele>1639</ele>
        <time>2011-06-26T10:18:22Z</time>
      </trkpt>
      <trkpt lat="46.19876" lon="6.72648">
        <ele>1642</ele>
        <time>2011-06-26T10:18:32Z</time>
      </trkpt>
      <trkpt lat="46.19886" lon="6.72616">
        <ele>1642</ele>
        <time>2011-06-26T10:18:42Z</time>
      </trkpt>
      <trkpt lat="46.19906" lon="6.72588">
        <ele>1641</ele>
        <time>2011-06-26T10:18:52Z</time>
      </trkpt>
      <trkpt lat="46.19911" lon="6.72513">
        <ele>1636</ele>
        <time>2011-06-26T10:19:02Z</time>
      </trkpt>
      <trkpt lat="46.19921" lon="6.72481">
        <ele>1635</ele>
        <time>2011-06-26T10:19:12Z</time>
      </trkpt>
      <trkpt lat="46.19946" lon="6.72457">
        <ele>1635</ele>
        <time>2011-06-26T10:19:22Z</time>
      </trkpt>
      <trkpt lat="46.19977" lon="6.72393">
        <ele>1635</ele>
        <time>2011-06-26T10:19:32Z</time>
      </trkpt>
      <trkpt lat="46.19987" lon="6.72326">
        <ele>1635</ele>
        <time>2011-06-26T10:19:42Z</time>
      </trkpt>
      <trkpt lat="46.19967" lon="6.72259">
        <ele>1632</ele>
        <time>2011-06-26T10:19:52Z</time>
      </trkpt>
      <trkpt lat="46.19944" lon="6.72307">
        <ele>1622</ele>
        <time>2011-06-26T10:20:02Z</time>
      </trkpt>
      <trkpt lat="46.19933" lon="6.72292">
        <ele>1614</ele>
        <time>2011-06-26T10:20:12Z</time>
      </trkpt>
      <trkpt lat="46.19938" lon="6.72206">
        <ele>1614</ele>
        <time>2011-06-26T10:20:22Z</time>
      </trkpt>
      <trkpt lat="46.19933" lon="6.7215">
        <ele>1614</ele>
        <time>2011-06-26T10:20:32Z</time>
      </trkpt>
      <trkpt lat="46.19904" lon="6.72167">
        <ele>1609</ele>
        <time>2011-06-26T10:20:42Z</time>
      </trkpt>
      <trkpt lat="46.19942" lon="6.72105">
        <ele>1599</ele>
        <time>2011-06-26T10:20:52Z</time>
      </trkpt>
      <trkpt lat="46.19983" lon="6.72022">
        <ele>1597</ele>
        <time>2011-06-26T10:21:02Z</time>
      </trkpt>
      <trkpt lat="46.20028" lon="6.71972">
        <ele>1598</ele>
        <time>2011-06-26T10:21:12Z</time>
      </trkpt>
      <trkpt lat="46.20084" lon="6.71907">
        <ele>1596</ele>
        <time>2011-06-26T10:21:22Z</time>
      </trkpt>
      <trkpt lat="46.20105" lon="6.71829">
        <ele>1592</ele>
        <time>2011-06-26T10:21:32Z</time>
      </trkpt>
      <trkpt lat="46.2011" lon="6.718">
        <ele>1585</ele>
        <time>2011-06-26T10:21:42Z</time>
      </trkpt>
      <trkpt lat="46.201" lon="6.71755">
        <ele>1577</ele>
        <time>2011-06-26T10:21:52Z</time>
      </trkpt>
      <trkpt lat="46.2009" lon="6.71727">
        <ele>1570</ele>
        <time>2011-06-26T10:22:02Z</time>
      </trkpt>
      <trkpt lat="46.20069" lon="6.7166">
        <ele>1558</ele>
        <time>2011-06-26T10:22:12Z</time>
      </trkpt>
      <trkpt lat="46.20057" lon="6.71565">
        <ele>1548</ele>
        <time>2011-06-26T10:22:22Z</time>
      </trkpt>
      <trkpt lat="46.20039" lon="6.71503">
        <ele>1546</ele>
        <time>2011-06-26T10:22:32Z</time>
      </trkpt>
      <trkpt lat="46.20024" lon="6.71447">
        <ele>1543</ele>
        <time>2011-06-26T10:22:42Z</time>
      </trkpt>
      <trkpt lat="46.20035" lon="6.71373">
        <ele>1534</ele>
        <time>2011-06-26T10:22:52Z</time>
      </trkpt>
      <trkpt lat="46.20017" lon="6.71323">
        <ele>1526</ele>
        <time>2011-06-26T10:23:02Z</time>
      </trkpt>
      <trkpt lat="46.20005" lon="6.71299">
        <ele>1517</ele>
        <time>2011-06-26T10:23:14Z</time>
      </trkpt>
      <trkpt lat="46.20003" lon="6.71295">
        <ele>1517</ele>
        <time>2011-06-26T10:23:24Z</time>
      </trkpt>
      <trkpt lat="46.19992" lon="6.71272">
        <ele>1517</ele>
        <time>2011-06-26T10:23:34Z</time>
      </trkpt>
      <trkpt lat="46.19979" lon="6.7123">
        <ele>1511</ele>
        <time>2011-06-26T10:23:44Z</time>
      </trkpt>
      <trkpt lat="46.19971" lon="6.71187">
        <ele>1504</ele>
        <time>2011-06-26T10:23:54Z</time>
      </trkpt>
      <trkpt lat="46.19955" lon="6.71134">
        <ele>1494</ele>
        <time>2011-06-26T10:24:04Z</time>
      </trkpt>
      <trkpt lat="46.19953" lon="6.71066">
        <ele>1491</ele>
        <time>2011-06-26T10:24:14Z</time>
      </trkpt>
      <trkpt lat="46.19949" lon="6.71035">
        <ele>1481</ele>
        <time>2011-06-26T10:24:24Z</time>
      </trkpt>
      <trkpt lat="46.19935" lon="6.71041">
        <ele>1469</ele>
        <time>2011-06-26T10:24:34Z</time>
      </trkpt>
      <trkpt lat="46.1992" lon="6.71067">
        <ele>1459</ele>
        <time>2011-06-26T10:24:44Z</time>
      </trkpt>
      <trkpt lat="46.19906" lon="6.71094">
        <ele>1453</ele>
        <time>2011-06-26T10:24:54Z</time>
      </trkpt>
      <trkpt lat="46.19879" lon="6.71145">
        <ele>1445</ele>
        <time>2011-06-26T10:25:04Z</time>
      </trkpt>
      <trkpt lat="46.19864" lon="6.71188">
        <ele>1445</ele>
        <time>2011-06-26T10:25:14Z</time>
      </trkpt>
      <trkpt lat="46.19858" lon="6.71228">
        <ele>1439</ele>
        <time>2011-06-26T10:25:24Z</time>
      </trkpt>
      <trkpt lat="46.19856" lon="6.71205">
        <ele>1433</ele>
        <time>2011-06-26T10:25:34Z</time>
      </trkpt>
      <trkpt lat="46.19829" lon="6.71258">
        <ele>1426</ele>
        <time>2011-06-26T10:25:44Z</time>
      </trkpt>
      <trkpt lat="46.19808" lon="6.71324">
        <ele>1418</ele>
        <time>2011-06-26T10:25:54Z</time>
      </trkpt>
      <trkpt lat="46.19773" lon="6.71324">
        <ele>1410</ele>
        <time>2011-06-26T10:26:04Z</time>
      </trkpt>
      <trkpt lat="46.19767" lon="6.71248">
        <ele>1406</ele>
        <time>2011-06-26T10:26:14Z</time>
      </trkpt>
      <trkpt lat="46.19771" lon="6.71178">
        <ele>1397</ele>
        <time>2011-06-26T10:26:24Z</time>
      </trkpt>
      <trkpt lat="46.19762" lon="6.71113">
        <ele>1393</ele>
        <time>2011-06-26T10:26:34Z</time>
      </trkpt>
      <trkpt lat="46.19754" lon="6.71047">
        <ele>1381</ele>
        <time>2011-06-26T10:26:44Z</time>
      </trkpt>
      <trkpt lat="46.19735" lon="6.71042">
        <ele>1367</ele>
        <time>2011-06-26T10:26:54Z</time>
      </trkpt>
      <trkpt lat="46.19689" lon="6.71046">
        <ele>1358</ele>
        <time>2011-06-26T10:27:04Z</time>
      </trkpt>
      <trkpt lat="46.19681" lon="6.71003">
        <ele>1357</ele>
        <time>2011-06-26T10:27:14Z</time>
      </trkpt>
      <trkpt lat="46.19685" lon="6.70948">
        <ele>1347</ele>
        <time>2011-06-26T10:27:24Z</time>
      </trkpt>
      <trkpt lat="46.19681" lon="6.70867">
        <ele>1344</ele>
        <time>2011-06-26T10:27:34Z</time>
      </trkpt>
      <trkpt lat="46.19672" lon="6.70816">
        <ele>1337</ele>
        <time>2011-06-26T10:27:44Z</time>
      </trkpt>
      <trkpt lat="46.19667" lon="6.70759">
        <ele>1318</ele>
        <time>2011-06-26T10:27:54Z</time>
      </trkpt>
      <trkpt lat="46.19649" lon="6.70704">
        <ele>1300</ele>
        <time>2011-06-26T10:28:04Z</time>
      </trkpt>
      <trkpt lat="46.1964" lon="6.70653">
        <ele>1290</ele>
        <time>2011-06-26T10:28:14Z</time>
      </trkpt>
      <trkpt lat="46.19639" lon="6.70592">
        <ele>1280</ele>
        <time>2011-06-26T10:28:24Z</time>
      </trkpt>
      <trkpt lat="46.19628" lon="6.70596">
        <ele>1274</ele>
        <time>2011-06-26T10:28:34Z</time>
      </trkpt>
      <trkpt lat="46.19608" lon="6.70581">
        <ele>1268</ele>
        <time>2011-06-26T10:28:44Z</time>
      </trkpt>
      <trkpt lat="46.19607" lon="6.70503">
        <ele>1259</ele>
        <time>2011-06-26T10:28:54Z</time>
      </trkpt>
      <trkpt lat="46.19568" lon="6.70545">
        <ele>1251</ele>
        <time>2011-06-26T10:29:04Z</time>
      </trkpt>
      <trkpt lat="46.19537" lon="6.70548">
        <ele>1241</ele>
        <time>2011-06-26T10:29:14Z</time>
      </trkpt>
      <trkpt lat="46.19529" lon="6.70466">
        <ele>1232</ele>
        <time>2011-06-26T10:29:24Z</time>
      </trkpt>
      <trkpt lat="46.19528" lon="6.70397">
        <ele>1224</ele>
        <time>2011-06-26T10:29:34Z</time>
      </trkpt>
      <trkpt lat="46.19493" lon="6.7041">
        <ele>1219</ele>
        <time>2011-06-26T10:29:44Z</time>
      </trkpt>
      <trkpt lat="46.19469" lon="6.70469">
        <ele>1204</ele>
        <time>2011-06-26T10:29:54Z</time>
      </trkpt>
      <trkpt lat="46.19454" lon="6.70518">
        <ele>1193</ele>
        <time>2011-06-26T10:30:04Z</time>
      </trkpt>
      <trkpt lat="46.19437" lon="6.7056">
        <ele>1185</ele>
        <time>2011-06-26T10:30:14Z</time>
      </trkpt>
      <trkpt lat="46.19424" lon="6.70497">
        <ele>1180</ele>
        <time>2011-06-26T10:30:25Z</time>
      </trkpt>
      <trkpt lat="46.19422" lon="6.70432">
        <ele>1179</ele>
        <time>2011-06-26T10:30:35Z</time>
      </trkpt>
      <trkpt lat="46.1941" lon="6.70382">
        <ele>1174</ele>
        <time>2011-06-26T10:30:45Z</time>
      </trkpt>
      <trkpt lat="46.19423" lon="6.70325">
        <ele>1164</ele>
        <time>2011-06-26T10:30:55Z</time>
      </trkpt>
      <trkpt lat="46.19405" lon="6.70328">
        <ele>1158</ele>
        <time>2011-06-26T10:31:05Z</time>
      </trkpt>
      <trkpt lat="46.19376" lon="6.70362">
        <ele>1139</ele>
        <time>2011-06-26T10:31:15Z</time>
      </trkpt>
      <trkpt lat="46.1935" lon="6.70413">
        <ele>1126</ele>
        <time>2011-06-26T10:31:25Z</time>
      </trkpt>
      <trkpt lat="46.19338" lon="6.70475">
        <ele>1116</ele>
        <time>2011-06-26T10:31:36Z</time>
      </trkpt>
      <trkpt lat="46.19326" lon="6.70446">
        <ele>1113</ele>
        <time>2011-06-26T10:31:46Z</time>
      </trkpt>
      <trkpt lat="46.1931" lon="6.70407">
        <ele>1108</ele>
        <time>2011-06-26T10:31:56Z</time>
      </trkpt>
      <trkpt lat="46.193" lon="6.70366">
        <ele>1098</ele>
        <time>2011-06-26T10:32:06Z</time>
      </trkpt>
      <trkpt lat="46.19297" lon="6.70314">
        <ele>1093</ele>
        <time>2011-06-26T10:32:16Z</time>
      </trkpt>
      <trkpt lat="46.19302" lon="6.70266">
        <ele>1085</ele>
        <time>2011-06-26T10:32:27Z</time>
      </trkpt>
      <trkpt lat="46.1932" lon="6.70229">
        <ele>1080</ele>
        <time>2011-06-26T10:32:38Z</time>
      </trkpt>
      <trkpt lat="46.19341" lon="6.70178">
        <ele>1073</ele>
        <time>2011-06-26T10:32:48Z</time>
      </trkpt>
      <trkpt lat="46.19342" lon="6.70151">
        <ele>1069</ele>
        <time>2011-06-26T10:32:59Z</time>
      </trkpt>
      <trkpt lat="46.19317" lon="6.70173">
        <ele>1060</ele>
        <time>2011-06-26T10:33:09Z</time>
      </trkpt>
      <trkpt lat="46.19281" lon="6.7019">
        <ele>1057</ele>
        <time>2011-06-26T10:33:20Z</time>
      </trkpt>
      <trkpt lat="46.19249" lon="6.70218">
        <ele>1047</ele>
        <time>2011-06-26T10:33:31Z</time>
      </trkpt>
      <trkpt lat="46.19217" lon="6.70249">
        <ele>1036</ele>
        <time>2011-06-26T10:33:42Z</time>
      </trkpt>
      <trkpt lat="46.19221" lon="6.70213">
        <ele>1026</ele>
        <time>2011-06-26T10:33:52Z</time>
      </trkpt>
      <trkpt lat="46.19263" lon="6.70104">
        <ele>1015</ele>
        <time>2011-06-26T10:34:03Z</time>
      </trkpt>
      <trkpt lat="46.1926" lon="6.70094">
        <ele>1000</ele>
        <time>2011-06-26T10:34:14Z</time>
      </trkpt>
      <trkpt lat="46.19225" lon="6.70117">
        <ele>998</ele>
        <time>2011-06-26T10:34:24Z</time>
      </trkpt>
      <trkpt lat="46.19169" lon="6.70161">
        <ele>992</ele>
        <time>2011-06-26T10:34:34Z</time>
      </trkpt>
      <trkpt lat="46.19169" lon="6.70144">
        <ele>988</ele>
        <time>2011-06-26T10:34:44Z</time>
      </trkpt>
      <trkpt lat="46.19183" lon="6.70123">
        <ele>988</ele>
        <time>2011-06-26T10:34:54Z</time>
      </trkpt>
      <trkpt lat="46.19213" lon="6.70074">
        <ele>986</ele>
        <time>2011-06-26T10:35:04Z</time>
      </trkpt>
      <trkpt lat="46.1926" lon="6.69996">
        <ele>983</ele>
        <time>2011-06-26T10:35:14Z</time>
      </trkpt>
      <trkpt lat="46.19323" lon="6.69919">
        <ele>978</ele>
        <time>2011-06-26T10:35:24Z</time>
      </trkpt>
      <trkpt lat="46.19382" lon="6.69838">
        <ele>974</ele>
        <time>2011-06-26T10:35:34Z</time>
      </trkpt>
      <trkpt lat="46.19348" lon="6.69838">
        <ele>968</ele>
        <time>2011-06-26T10:35:44Z</time>
      </trkpt>
      <trkpt lat="46.19292" lon="6.6986">
        <ele>959</ele>
        <time>2011-06-26T10:35:54Z</time>
      </trkpt>
      <trkpt lat="46.19315" lon="6.6981">
        <ele>957</ele>
        <time>2011-06-26T10:36:04Z</time>
      </trkpt>
      <trkpt lat="46.19333" lon="6.69769">
        <ele>956</ele>
        <time>2011-06-26T10:36:14Z</time>
      </trkpt>
      <trkpt lat="46.19308" lon="6.69785">
        <ele>956</ele>
        <time>2011-06-26T10:36:24Z</time>
      </trkpt>
      <trkpt lat="46.19281" lon="6.69812">
        <ele>956</ele>
        <time>2011-06-26T10:36:34Z</time>
      </trkpt>
      <trkpt lat="46.19249" lon="6.69845">
        <ele>956</ele>
        <time>2011-06-26T10:36:44Z</time>
      </trkpt>
      <trkpt lat="46.19214" lon="6.69881">
        <ele>956</ele>
        <time>2011-06-26T10:36:54Z</time>
      </trkpt>
      <trkpt lat="46.19177" lon="6.69916">
        <ele>956</ele>
        <time>2011-06-26T10:37:04Z</time>
      </trkpt>
      <trkpt lat="46.1914" lon="6.69957">
        <ele>958</ele>
        <time>2011-06-26T10:37:14Z</time>
      </trkpt>
      <trkpt lat="46.191" lon="6.70005">
        <ele>958</ele>
        <time>2011-06-26T10:37:24Z</time>
      </trkpt>
      <trkpt lat="46.19056" lon="6.70052">
        <ele>960</ele>
        <time>2011-06-26T10:37:34Z</time>
      </trkpt>
      <trkpt lat="46.19009" lon="6.70081">
        <ele>961</ele>
        <time>2011-06-26T10:37:44Z</time>
      </trkpt>
      <trkpt lat="46.18958" lon="6.70089">
        <ele>964</ele>
        <time>2011-06-26T10:37:54Z</time>
      </trkpt>
      <trkpt lat="46.18909" lon="6.70115">
        <ele>966</ele>
        <time>2011-06-26T10:38:04Z</time>
      </trkpt>
      <trkpt lat="46.18866" lon="6.70159">
        <ele>966</ele>
        <time>2011-06-26T10:38:14Z</time>
      </trkpt>
      <trkpt lat="46.18824" lon="6.70211">
        <ele>966</ele>
        <time>2011-06-26T10:38:24Z</time>
      </trkpt>
      <trkpt lat="46.18776" lon="6.70261">
        <ele>968</ele>
        <time>2011-06-26T10:38:34Z</time>
      </trkpt>
      <trkpt lat="46.18722" lon="6.70318">
        <ele>968</ele>
        <time>2011-06-26T10:38:44Z</time>
      </trkpt>
      <trkpt lat="46.18666" lon="6.70373">
        <ele>968</ele>
        <time>2011-06-26T10:38:54Z</time>
      </trkpt>
      <trkpt lat="46.18603" lon="6.7042">
        <ele>968</ele>
        <time>2011-06-26T10:39:04Z</time>
      </trkpt>
      <trkpt lat="46.1854" lon="6.70469">
        <ele>970</ele>
        <time>2011-06-26T10:39:14Z</time>
      </trkpt>
      <trkpt lat="46.18483" lon="6.70521">
        <ele>973</ele>
        <time>2011-06-26T10:39:24Z</time>
      </trkpt>
      <trkpt lat="46.18442" lon="6.70553">
        <ele>973</ele>
        <time>2011-06-26T10:39:34Z</time>
      </trkpt>
      <trkpt lat="46.18425" lon="6.70577">
        <ele>973</ele>
        <time>2011-06-26T10:39:44Z</time>
      </trkpt>
      <trkpt lat="46.18396" lon="6.7061">
        <ele>973</ele>
        <time>2011-06-26T10:39:54Z</time>
      </trkpt>
      <trkpt lat="46.18356" lon="6.70631">
        <ele>973</ele>
        <time>2011-06-26T10:40:04Z</time>
      </trkpt>
      <trkpt lat="46.18307" lon="6.70651">
        <ele>973</ele>
        <time>2011-06-26T10:40:14Z</time>
      </trkpt>
      <trkpt lat="46.18255" lon="6.70686">
        <ele>973</ele>
        <time>2011-06-26T10:40:24Z</time>
      </trkpt>
      <trkpt lat="46.18253" lon="6.70693">
        <ele>973</ele>
        <time>2011-06-26T10:40:34Z</time>
      </trkpt>
      <trkpt lat="46.18293" lon="6.70668">
        <ele>973</ele>
        <time>2011-06-26T10:40:44Z</time>
      </trkpt>
      <trkpt lat="46.18338" lon="6.70645">
        <ele>973</ele>
        <time>2011-06-26T10:40:54Z</time>
      </trkpt>
      <trkpt lat="46.18385" lon="6.70624">
        <ele>973</ele>
        <time>2011-06-26T10:41:04Z</time>
      </trkpt>
      <trkpt lat="46.18426" lon="6.70587">
        <ele>973</ele>
        <time>2011-06-26T10:41:14Z</time>
      </trkpt>
      <trkpt lat="46.1846" lon="6.70543">
        <ele>973</ele>
        <time>2011-06-26T10:41:24Z</time>
      </trkpt>
      <trkpt lat="46.18445" lon="6.70507">
        <ele>973</ele>
        <time>2011-06-26T10:41:34Z</time>
      </trkpt>
      <trkpt lat="46.18419" lon="6.70456">
        <ele>973</ele>
        <time>2011-06-26T10:41:44Z</time>
      </trkpt>
      <trkpt lat="46.1839" lon="6.70398">
        <ele>973</ele>
        <time>2011-06-26T10:41:54Z</time>
      </trkpt>
      <trkpt lat="46.18356" lon="6.70336">
        <ele>972</ele>
        <time>2011-06-26T10:42:04Z</time>
      </trkpt>
      <trkpt lat="46.1833" lon="6.70306">
        <ele>970</ele>
        <time>2011-06-26T10:42:14Z</time>
      </trkpt>
      <trkpt lat="46.18314" lon="6.70278">
        <ele>970</ele>
        <time>2011-06-26T10:42:24Z</time>
      </trkpt>
      <trkpt lat="46.183" lon="6.70256">
        <ele>970</ele>
        <time>2011-06-26T10:42:35Z</time>
      </trkpt>
      <trkpt lat="46.18314" lon="6.70281">
        <ele>970</ele>
        <time>2011-06-26T10:42:45Z</time>
      </trkpt>
      <trkpt lat="46.18314" lon="6.70285">
        <ele>970</ele>
        <time>2011-06-26T10:43:00Z</time>
      </trkpt>
      <trkpt lat="46.18292" lon="6.70245">
        <ele>970</ele>
        <time>2011-06-26T10:43:10Z</time>
      </trkpt>
      <trkpt lat="46.18277" lon="6.70231">
        <ele>970</ele>
        <time>2011-06-26T10:43:20Z</time>
      </trkpt>
      <trkpt lat="46.18255" lon="6.70261">
        <ele>970</ele>
        <time>2011-06-26T10:43:30Z</time>
      </trkpt>
      <trkpt lat="46.18233" lon="6.70288">
        <ele>970</ele>
        <time>2011-06-26T10:43:40Z</time>
      </trkpt>
      <trkpt lat="46.1821" lon="6.70315">
        <ele>972</ele>
        <time>2011-06-26T10:43:50Z</time>
      </trkpt>
      <trkpt lat="46.1819" lon="6.70345">
        <ele>977</ele>
        <time>2011-06-26T10:44:00Z</time>
      </trkpt>
      <trkpt lat="46.18173" lon="6.70375">
        <ele>980</ele>
        <time>2011-06-26T10:44:10Z</time>
      </trkpt>
      <trkpt lat="46.18164" lon="6.70358">
        <ele>980</ele>
        <time>2011-06-26T10:44:20Z</time>
      </trkpt>
      <trkpt lat="46.18151" lon="6.70343">
        <ele>980</ele>
        <time>2011-06-26T10:44:30Z</time>
      </trkpt>
      <trkpt lat="46.18148" lon="6.70356">
        <ele>974</ele>
        <time>2011-06-26T10:44:42Z</time>
      </trkpt>
      <trkpt lat="46.18163" lon="6.70355">
        <ele>972</ele>
        <time>2011-06-26T10:44:52Z</time>
      </trkpt>
      <trkpt lat="46.18181" lon="6.70367">
        <ele>971</ele>
        <time>2011-06-26T10:45:02Z</time>
      </trkpt>
      <trkpt lat="46.18206" lon="6.70334">
        <ele>971</ele>
        <time>2011-06-26T10:45:12Z</time>
      </trkpt>
      <trkpt lat="46.18234" lon="6.70297">
        <ele>971</ele>
        <time>2011-06-26T10:45:22Z</time>
      </trkpt>
      <trkpt lat="46.18267" lon="6.7025">
        <ele>971</ele>
        <time>2011-06-26T10:45:32Z</time>
      </trkpt>
      <trkpt lat="46.18295" lon="6.70242">
        <ele>971</ele>
        <time>2011-06-26T10:45:42Z</time>
      </trkpt>
      <trkpt lat="46.18325" lon="6.70295">
        <ele>971</ele>
        <time>2011-06-26T10:45:52Z</time>
      </trkpt>
      <trkpt lat="46.18346" lon="6.70335">
        <ele>971</ele>
        <time>2011-06-26T10:46:03Z</time>
      </trkpt>
      <trkpt lat="46.18353" lon="6.70343">
        <ele>972</ele>
        <time>2011-06-26T10:46:14Z</time>
      </trkpt>
      <trkpt lat="46.18366" lon="6.70375">
        <ele>970</ele>
        <time>2011-06-26T10:46:24Z</time>
      </trkpt>
      <trkpt lat="46.18394" lon="6.70431">
        <ele>968</ele>
        <time>2011-06-26T10:46:34Z</time>
      </trkpt>
      <trkpt lat="46.1842" lon="6.70483">
        <ele>968</ele>
        <time>2011-06-26T10:46:44Z</time>
      </trkpt>
      <trkpt lat="46.18449" lon="6.70533">
        <ele>968</ele>
        <time>2011-06-26T10:46:54Z</time>
      </trkpt>
      <trkpt lat="46.18478" lon="6.70582">
        <ele>976</ele>
        <time>2011-06-26T10:47:04Z</time>
      </trkpt>
      <trkpt lat="46.18503" lon="6.70634">
        <ele>981</ele>
        <time>2011-06-26T10:47:14Z</time>
      </trkpt>
      <trkpt lat="46.18527" lon="6.7068">
        <ele>991</ele>
        <time>2011-06-26T10:47:24Z</time>
      </trkpt>
      <trkpt lat="46.18554" lon="6.70726">
        <ele>1013</ele>
        <time>2011-06-26T10:47:34Z</time>
      </trkpt>
      <trkpt lat="46.18578" lon="6.7077">
        <ele>1037</ele>
        <time>2011-06-26T10:47:44Z</time>
      </trkpt>
      <trkpt lat="46.18603" lon="6.70813">
        <ele>1059</ele>
        <time>2011-06-26T10:47:54Z</time>
      </trkpt>
      <trkpt lat="46.18627" lon="6.70855">
        <ele>1082</ele>
        <time>2011-06-26T10:48:04Z</time>
      </trkpt>
      <trkpt lat="46.1865" lon="6.70901">
        <ele>1110</ele>
        <time>2011-06-26T10:48:14Z</time>
      </trkpt>
      <trkpt lat="46.18673" lon="6.70945">
        <ele>1134</ele>
        <time>2011-06-26T10:48:24Z</time>
      </trkpt>
      <trkpt lat="46.18696" lon="6.70987">
        <ele>1162</ele>
        <time>2011-06-26T10:48:34Z</time>
      </trkpt>
      <trkpt lat="46.18721" lon="6.71032">
        <ele>1185</ele>
        <time>2011-06-26T10:48:44Z</time>
      </trkpt>
      <trkpt lat="46.18744" lon="6.71074">
        <ele>1211</ele>
        <time>2011-06-26T10:48:54Z</time>
      </trkpt>
      <trkpt lat="46.18768" lon="6.71119">
        <ele>1237</ele>
        <time>2011-06-26T10:49:04Z</time>
      </trkpt>
      <trkpt lat="46.1879" lon="6.71164">
        <ele>1262</ele>
        <time>2011-06-26T10:49:14Z</time>
      </trkpt>
      <trkpt lat="46.18815" lon="6.71209">
        <ele>1284</ele>
        <time>2011-06-26T10:49:24Z</time>
      </trkpt>
      <trkpt lat="46.1884" lon="6.71258">
        <ele>1302</ele>
        <time>2011-06-26T10:49:34Z</time>
      </trkpt>
      <trkpt lat="46.18865" lon="6.71306">
        <ele>1317</ele>
        <time>2011-06-26T10:49:44Z</time>
      </trkpt>
      <trkpt lat="46.18891" lon="6.71356">
        <ele>1327</ele>
        <time>2011-06-26T10:49:54Z</time>
      </trkpt>
      <trkpt lat="46.18914" lon="6.71406">
        <ele>1339</ele>
        <time>2011-06-26T10:50:04Z</time>
      </trkpt>
      <trkpt lat="46.18937" lon="6.71455">
        <ele>1352</ele>
        <time>2011-06-26T10:50:14Z</time>
      </trkpt>
      <trkpt lat="46.18964" lon="6.71504">
        <ele>1365</ele>
        <time>2011-06-26T10:50:24Z</time>
      </trkpt>
      <trkpt lat="46.18989" lon="6.71553">
        <ele>1379</ele>
        <time>2011-06-26T10:50:34Z</time>
      </trkpt>
      <trkpt lat="46.19016" lon="6.71601">
        <ele>1396</ele>
        <time>2011-06-26T10:50:44Z</time>
      </trkpt>
      <trkpt lat="46.19041" lon="6.71651">
        <ele>1410</ele>
        <time>2011-06-26T10:50:54Z</time>
      </trkpt>
      <trkpt lat="46.19066" lon="6.717">
        <ele>1424</ele>
        <time>2011-06-26T10:51:04Z</time>
      </trkpt>
      <trkpt lat="46.19091" lon="6.7175">
        <ele>1437</ele>
        <time>2011-06-26T10:51:14Z</time>
      </trkpt>
      <trkpt lat="46.19116" lon="6.71785">
        <ele>1447</ele>
        <time>2011-06-26T10:51:24Z</time>
      </trkpt>
      <trkpt lat="46.19109" lon="6.71776">
        <ele>1448</ele>
        <time>2011-06-26T10:51:37Z</time>
      </trkpt>
      <trkpt lat="46.19103" lon="6.71778">
        <ele>1442</ele>
        <time>2011-06-26T10:51:47Z</time>
      </trkpt>
      <trkpt lat="46.191" lon="6.71785">
        <ele>1442</ele>
        <time>2011-06-26T10:51:58Z</time>
      </trkpt>
      <trkpt lat="46.19101" lon="6.71803">
        <ele>1442</ele>
        <time>2011-06-26T10:52:08Z</time>
      </trkpt>
      <trkpt lat="46.19049" lon="6.7179">
        <ele>1442</ele>
        <time>2011-06-26T10:52:18Z</time>
      </trkpt>
      <trkpt lat="46.19023" lon="6.71787">
        <ele>1442</ele>
        <time>2011-06-26T10:52:28Z</time>
      </trkpt>
      <trkpt lat="46.19034" lon="6.71812">
        <ele>1446</ele>
        <time>2011-06-26T10:52:47Z</time>
      </trkpt>
      <trkpt lat="46.19038" lon="6.71826">
        <ele>1443</ele>
        <time>2011-06-26T10:52:57Z</time>
      </trkpt>
      <trkpt lat="46.19054" lon="6.71864">
        <ele>1446</ele>
        <time>2011-06-26T10:53:07Z</time>
      </trkpt>
      <trkpt lat="46.1907" lon="6.71898">
        <ele>1463</ele>
        <time>2011-06-26T10:53:17Z</time>
      </trkpt>
      <trkpt lat="46.19085" lon="6.71938">
        <ele>1477</ele>
        <time>2011-06-26T10:53:27Z</time>
      </trkpt>
      <trkpt lat="46.19096" lon="6.71964">
        <ele>1487</ele>
        <time>2011-06-26T10:53:37Z</time>
      </trkpt>
      <trkpt lat="46.19109" lon="6.71995">
        <ele>1492</ele>
        <time>2011-06-26T10:53:47Z</time>
      </trkpt>
      <trkpt lat="46.19126" lon="6.72034">
        <ele>1501</ele>
        <time>2011-06-26T10:53:57Z</time>
      </trkpt>
      <trkpt lat="46.19142" lon="6.72073">
        <ele>1508</ele>
        <time>2011-06-26T10:54:07Z</time>
      </trkpt>
      <trkpt lat="46.19159" lon="6.72111">
        <ele>1517</ele>
        <time>2011-06-26T10:54:17Z</time>
      </trkpt>
      <trkpt lat="46.19174" lon="6.72148">
        <ele>1527</ele>
        <time>2011-06-26T10:54:27Z</time>
      </trkpt>
      <trkpt lat="46.19189" lon="6.72185">
        <ele>1538</ele>
        <time>2011-06-26T10:54:37Z</time>
      </trkpt>
      <trkpt lat="46.19205" lon="6.72221">
        <ele>1553</ele>
        <time>2011-06-26T10:54:47Z</time>
      </trkpt>
      <trkpt lat="46.19221" lon="6.7226">
        <ele>1564</ele>
        <time>2011-06-26T10:54:57Z</time>
      </trkpt>
      <trkpt lat="46.19237" lon="6.72297">
        <ele>1575</ele>
        <time>2011-06-26T10:55:07Z</time>
      </trkpt>
      <trkpt lat="46.19252" lon="6.72334">
        <ele>1588</ele>
        <time>2011-06-26T10:55:17Z</time>
      </trkpt>
      <trkpt lat="46.19267" lon="6.72373">
        <ele>1599</ele>
        <time>2011-06-26T10:55:27Z</time>
      </trkpt>
      <trkpt lat="46.19284" lon="6.72411">
        <ele>1609</ele>
        <time>2011-06-26T10:55:37Z</time>
      </trkpt>
      <trkpt lat="46.19301" lon="6.7245">
        <ele>1619</ele>
        <time>2011-06-26T10:55:47Z</time>
      </trkpt>
      <trkpt lat="46.19318" lon="6.7249">
        <ele>1627</ele>
        <time>2011-06-26T10:55:57Z</time>
      </trkpt>
      <trkpt lat="46.19334" lon="6.72528">
        <ele>1635</ele>
        <time>2011-06-26T10:56:07Z</time>
      </trkpt>
      <trkpt lat="46.19349" lon="6.72567">
        <ele>1639</ele>
        <time>2011-06-26T10:56:17Z</time>
      </trkpt>
      <trkpt lat="46.19366" lon="6.72608">
        <ele>1644</ele>
        <time>2011-06-26T10:56:27Z</time>
      </trkpt>
      <trkpt lat="46.19384" lon="6.72648">
        <ele>1650</ele>
        <time>2011-06-26T10:56:37Z</time>
      </trkpt>
      <trkpt lat="46.194" lon="6.72687">
        <ele>1657</ele>
        <time>2011-06-26T10:56:47Z</time>
      </trkpt>
      <trkpt lat="46.19416" lon="6.72727">
        <ele>1662</ele>
        <time>2011-06-26T10:56:57Z</time>
      </trkpt>
      <trkpt lat="46.19435" lon="6.7277">
        <ele>1669</ele>
        <time>2011-06-26T10:57:08Z</time>
      </trkpt>
      <trkpt lat="46.19452" lon="6.72809">
        <ele>1675</ele>
        <time>2011-06-26T10:57:18Z</time>
      </trkpt>
      <trkpt lat="46.19469" lon="6.72848">
        <ele>1682</ele>
        <time>2011-06-26T10:57:28Z</time>
      </trkpt>
      <trkpt lat="46.19484" lon="6.72887">
        <ele>1690</ele>
        <time>2011-06-26T10:57:38Z</time>
      </trkpt>
      <trkpt lat="46.195" lon="6.72926">
        <ele>1696</ele>
        <time>2011-06-26T10:57:48Z</time>
      </trkpt>
      <trkpt lat="46.19518" lon="6.72969">
        <ele>1703</ele>
        <time>2011-06-26T10:57:59Z</time>
      </trkpt>
      <trkpt lat="46.19535" lon="6.73008">
        <ele>1711</ele>
        <time>2011-06-26T10:58:09Z</time>
      </trkpt>
      <trkpt lat="46.19551" lon="6.73047">
        <ele>1720</ele>
        <time>2011-06-26T10:58:19Z</time>
      </trkpt>
      <trkpt lat="46.19567" lon="6.73086">
        <ele>1727</ele>
        <time>2011-06-26T10:58:29Z</time>
      </trkpt>
      <trkpt lat="46.19586" lon="6.7313">
        <ele>1735</ele>
        <time>2011-06-26T10:58:40Z</time>
      </trkpt>
      <trkpt lat="46.19602" lon="6.73168">
        <ele>1743</ele>
        <time>2011-06-26T10:58:50Z</time>
      </trkpt>
      <trkpt lat="46.19617" lon="6.73206">
        <ele>1751</ele>
        <time>2011-06-26T10:59:00Z</time>
      </trkpt>
      <trkpt lat="46.19628" lon="6.73227">
        <ele>1754</ele>
        <time>2011-06-26T10:59:12Z</time>
      </trkpt>
      <trkpt lat="46.19638" lon="6.73237">
        <ele>1754</ele>
        <time>2011-06-26T10:59:23Z</time>
      </trkpt>
      <trkpt lat="46.19648" lon="6.7322">
        <ele>1754</ele>
        <time>2011-06-26T10:59:33Z</time>
      </trkpt>
      <trkpt lat="46.19655" lon="6.73202">
        <ele>1754</ele>
        <time>2011-06-26T10:59:44Z</time>
      </trkpt>
      <trkpt lat="46.19656" lon="6.73223">
        <ele>1756</ele>
        <time>2011-06-26T10:59:54Z</time>
      </trkpt>
      <trkpt lat="46.19656" lon="6.73253">
        <ele>1758</ele>
        <time>2011-06-26T11:00:05Z</time>
      </trkpt>
      <trkpt lat="46.19655" lon="6.73277">
        <ele>1759</ele>
        <time>2011-06-26T11:00:15Z</time>
      </trkpt>
      <trkpt lat="46.19652" lon="6.73296">
        <ele>1761</ele>
        <time>2011-06-26T11:00:26Z</time>
      </trkpt>
      <trkpt lat="46.19647" lon="6.73331">
        <ele>1761</ele>
        <time>2011-06-26T11:00:37Z</time>
      </trkpt>
      <trkpt lat="46.19643" lon="6.73396">
        <ele>1760</ele>
        <time>2011-06-26T11:00:47Z</time>
      </trkpt>
      <trkpt lat="46.19659" lon="6.7348">
        <ele>1758</ele>
        <time>2011-06-26T11:00:57Z</time>
      </trkpt>
      <trkpt lat="46.19674" lon="6.7355">
        <ele>1758</ele>
        <time>2011-06-26T11:01:07Z</time>
      </trkpt>
      <trkpt lat="46.19707" lon="6.73626">
        <ele>1755</ele>
        <time>2011-06-26T11:01:17Z</time>
      </trkpt>
      <trkpt lat="46.19741" lon="6.73676">
        <ele>1754</ele>
        <time>2011-06-26T11:01:27Z</time>
      </trkpt>
      <trkpt lat="46.19764" lon="6.73706">
        <ele>1754</ele>
        <time>2011-06-26T11:01:37Z</time>
      </trkpt>
      <trkpt lat="46.19782" lon="6.73731">
        <ele>1754</ele>
        <time>2011-06-26T11:01:47Z</time>
      </trkpt>
      <trkpt lat="46.19803" lon="6.73746">
        <ele>1756</ele>
        <time>2011-06-26T11:01:57Z</time>
      </trkpt>
      <trkpt lat="46.19824" lon="6.73766">
        <ele>1758</ele>
        <time>2011-06-26T11:02:07Z</time>
      </trkpt>
      <trkpt lat="46.19841" lon="6.73782">
        <ele>1760</ele>
        <time>2011-06-26T11:02:17Z</time>
      </trkpt>
      <trkpt lat="46.19859" lon="6.73799">
        <ele>1762</ele>
        <time>2011-06-26T11:02:27Z</time>
      </trkpt>
      <trkpt lat="46.19876" lon="6.73819">
        <ele>1765</ele>
        <time>2011-06-26T11:02:37Z</time>
      </trkpt>
      <trkpt lat="46.19885" lon="6.73842">
        <ele>1768</ele>
        <time>2011-06-26T11:02:47Z</time>
      </trkpt>
      <trkpt lat="46.19902" lon="6.73889">
        <ele>1768</ele>
        <time>2011-06-26T11:02:57Z</time>
      </trkpt>
      <trkpt lat="46.19908" lon="6.7396">
        <ele>1768</ele>
        <time>2011-06-26T11:03:08Z</time>
      </trkpt>
      <trkpt lat="46.19918" lon="6.74014">
        <ele>1767</ele>
        <time>2011-06-26T11:03:18Z</time>
      </trkpt>
      <trkpt lat="46.19949" lon="6.74071">
        <ele>1766</ele>
        <time>2011-06-26T11:03:28Z</time>
      </trkpt>
      <trkpt lat="46.19976" lon="6.741">
        <ele>1766</ele>
        <time>2011-06-26T11:03:38Z</time>
      </trkpt>
      <trkpt lat="46.19988" lon="6.74123">
        <ele>1767</ele>
        <time>2011-06-26T11:03:48Z</time>
      </trkpt>
      <trkpt lat="46.20035" lon="6.74239">
        <ele>1763</ele>
        <time>2011-06-26T11:03:58Z</time>
      </trkpt>
      <trkpt lat="46.20062" lon="6.7431">
        <ele>1759</ele>
        <time>2011-06-26T11:04:08Z</time>
      </trkpt>
      <trkpt lat="46.20071" lon="6.74355">
        <ele>1759</ele>
        <time>2011-06-26T11:04:18Z</time>
      </trkpt>
      <trkpt lat="46.20065" lon="6.74412">
        <ele>1762</ele>
        <time>2011-06-26T11:04:29Z</time>
      </trkpt>
      <trkpt lat="46.20081" lon="6.74521">
        <ele>1758</ele>
        <time>2011-06-26T11:04:39Z</time>
      </trkpt>
      <trkpt lat="46.201" lon="6.74645">
        <ele>1749</ele>
        <time>2011-06-26T11:04:49Z</time>
      </trkpt>
      <trkpt lat="46.20112" lon="6.74774">
        <ele>1743</ele>
        <time>2011-06-26T11:04:59Z</time>
      </trkpt>
      <trkpt lat="46.20124" lon="6.74857">
        <ele>1743</ele>
        <time>2011-06-26T11:05:09Z</time>
      </trkpt>
      <trkpt lat="46.20131" lon="6.74897">
        <ele>1746</ele>
        <time>2011-06-26T11:05:19Z</time>
      </trkpt>
      <trkpt lat="46.20139" lon="6.74937">
        <ele>1749</ele>
        <time>2011-06-26T11:05:29Z</time>
      </trkpt>
      <trkpt lat="46.20145" lon="6.7498">
        <ele>1751</ele>
        <time>2011-06-26T11:05:39Z</time>
      </trkpt>
      <trkpt lat="46.20154" lon="6.7502">
        <ele>1755</ele>
        <time>2011-06-26T11:05:50Z</time>
      </trkpt>
      <trkpt lat="46.20161" lon="6.75053">
        <ele>1760</ele>
        <time>2011-06-26T11:06:00Z</time>
      </trkpt>
      <trkpt lat="46.20168" lon="6.75095">
        <ele>1761</ele>
        <time>2011-06-26T11:06:10Z</time>
      </trkpt>
      <trkpt lat="46.20177" lon="6.75124">
        <ele>1761</ele>
        <time>2011-06-26T11:06:21Z</time>
      </trkpt>
      <trkpt lat="46.20162" lon="6.75146">
        <ele>1764</ele>
        <time>2011-06-26T11:06:31Z</time>
      </trkpt>
      <trkpt lat="46.2015" lon="6.75266">
        <ele>1759</ele>
        <time>2011-06-26T11:06:41Z</time>
      </trkpt>
      <trkpt lat="46.20156" lon="6.75357">
        <ele>1751</ele>
        <time>2011-06-26T11:06:51Z</time>
      </trkpt>
      <trkpt lat="46.20166" lon="6.75408">
        <ele>1756</ele>
        <time>2011-06-26T11:07:01Z</time>
      </trkpt>
      <trkpt lat="46.20174" lon="6.75443">
        <ele>1761</ele>
        <time>2011-06-26T11:07:11Z</time>
      </trkpt>
      <trkpt lat="46.20176" lon="6.75475">
        <ele>1767</ele>
        <time>2011-06-26T11:07:21Z</time>
      </trkpt>
      <trkpt lat="46.20168" lon="6.75519">
        <ele>1775</ele>
        <time>2011-06-26T11:07:31Z</time>
      </trkpt>
      <trkpt lat="46.20153" lon="6.75579">
        <ele>1780</ele>
        <time>2011-06-26T11:07:41Z</time>
      </trkpt>
      <trkpt lat="46.20121" lon="6.7567">
        <ele>1777</ele>
        <time>2011-06-26T11:07:51Z</time>
      </trkpt>
      <trkpt lat="46.2007" lon="6.75766">
        <ele>1767</ele>
        <time>2011-06-26T11:08:01Z</time>
      </trkpt>
      <trkpt lat="46.20049" lon="6.75801">
        <ele>1763</ele>
        <time>2011-06-26T11:08:11Z</time>
      </trkpt>
      <trkpt lat="46.20048" lon="6.75828">
        <ele>1762</ele>
        <time>2011-06-26T11:08:21Z</time>
      </trkpt>
      <trkpt lat="46.20047" lon="6.75862">
        <ele>1762</ele>
        <time>2011-06-26T11:08:31Z</time>
      </trkpt>
      <trkpt lat="46.20034" lon="6.75885">
        <ele>1762</ele>
        <time>2011-06-26T11:08:41Z</time>
      </trkpt>
      <trkpt lat="46.20018" lon="6.7591">
        <ele>1762</ele>
        <time>2011-06-26T11:08:51Z</time>
      </trkpt>
      <trkpt lat="46.20018" lon="6.75929">
        <ele>1762</ele>
        <time>2011-06-26T11:09:06Z</time>
      </trkpt>
      <trkpt lat="46.20041" lon="6.75928">
        <ele>1760</ele>
        <time>2011-06-26T11:09:16Z</time>
      </trkpt>
      <trkpt lat="46.20018" lon="6.7599">
        <ele>1751</ele>
        <time>2011-06-26T11:09:26Z</time>
      </trkpt>
      <trkpt lat="46.20041" lon="6.76001">
        <ele>1745</ele>
        <time>2011-06-26T11:09:36Z</time>
      </trkpt>
      <trkpt lat="46.20047" lon="6.76038">
        <ele>1736</ele>
        <time>2011-06-26T11:09:46Z</time>
      </trkpt>
      <trkpt lat="46.2006" lon="6.7609">
        <ele>1725</ele>
        <time>2011-06-26T11:09:56Z</time>
      </trkpt>
      <trkpt lat="46.20063" lon="6.76144">
        <ele>1715</ele>
        <time>2011-06-26T11:10:06Z</time>
      </trkpt>
      <trkpt lat="46.20047" lon="6.762">
        <ele>1707</ele>
        <time>2011-06-26T11:10:16Z</time>
      </trkpt>
      <trkpt lat="46.20054" lon="6.76267">
        <ele>1699</ele>
        <time>2011-06-26T11:10:26Z</time>
      </trkpt>
      <trkpt lat="46.2006" lon="6.76357">
        <ele>1696</ele>
        <time>2011-06-26T11:10:36Z</time>
      </trkpt>
      <trkpt lat="46.2007" lon="6.76437">
        <ele>1693</ele>
        <time>2011-06-26T11:10:46Z</time>
      </trkpt>
      <trkpt lat="46.20077" lon="6.76497">
        <ele>1691</ele>
        <time>2011-06-26T11:10:56Z</time>
      </trkpt>
      <trkpt lat="46.20099" lon="6.76497">
        <ele>1687</ele>
        <time>2011-06-26T11:11:06Z</time>
      </trkpt>
      <trkpt lat="46.20102" lon="6.76544">
        <ele>1678</ele>
        <time>2011-06-26T11:11:16Z</time>
      </trkpt>
      <trkpt lat="46.20119" lon="6.76611">
        <ele>1671</ele>
        <time>2011-06-26T11:11:26Z</time>
      </trkpt>
      <trkpt lat="46.20107" lon="6.76698">
        <ele>1670</ele>
        <time>2011-06-26T11:11:36Z</time>
      </trkpt>
      <trkpt lat="46.20102" lon="6.76786">
        <ele>1663</ele>
        <time>2011-06-26T11:11:47Z</time>
      </trkpt>
      <trkpt lat="46.20123" lon="6.76822">
        <ele>1661</ele>
        <time>2011-06-26T11:11:57Z</time>
      </trkpt>
      <trkpt lat="46.20154" lon="6.76868">
        <ele>1654</ele>
        <time>2011-06-26T11:12:07Z</time>
      </trkpt>
      <trkpt lat="46.20212" lon="6.76876">
        <ele>1651</ele>
        <time>2011-06-26T11:12:17Z</time>
      </trkpt>
      <trkpt lat="46.2026" lon="6.76883">
        <ele>1648</ele>
        <time>2011-06-26T11:12:27Z</time>
      </trkpt>
      <trkpt lat="46.20293" lon="6.76878">
        <ele>1648</ele>
        <time>2011-06-26T11:12:37Z</time>
      </trkpt>
      <trkpt lat="46.20313" lon="6.76874">
        <ele>1648</ele>
        <time>2011-06-26T11:12:47Z</time>
      </trkpt>
      <trkpt lat="46.20352" lon="6.7687">
        <ele>1648</ele>
        <time>2011-06-26T11:12:57Z</time>
      </trkpt>
      <trkpt lat="46.20392" lon="6.76858">
        <ele>1644</ele>
        <time>2011-06-26T11:13:07Z</time>
      </trkpt>
      <trkpt lat="46.20431" lon="6.76837">
        <ele>1644</ele>
        <time>2011-06-26T11:13:17Z</time>
      </trkpt>
      <trkpt lat="46.20468" lon="6.76859">
        <ele>1639</ele>
        <time>2011-06-26T11:13:27Z</time>
      </trkpt>
      <trkpt lat="46.20495" lon="6.76924">
        <ele>1633</ele>
        <time>2011-06-26T11:13:38Z</time>
      </trkpt>
      <trkpt lat="46.20495" lon="6.77019">
        <ele>1625</ele>
        <time>2011-06-26T11:13:48Z</time>
      </trkpt>
      <trkpt lat="46.20504" lon="6.77098">
        <ele>1623</ele>
        <time>2011-06-26T11:13:58Z</time>
      </trkpt>
      <trkpt lat="46.20493" lon="6.77181">
        <ele>1620</ele>
        <time>2011-06-26T11:14:08Z</time>
      </trkpt>
      <trkpt lat="46.20485" lon="6.77233">
        <ele>1620</ele>
        <time>2011-06-26T11:14:18Z</time>
      </trkpt>
      <trkpt lat="46.20474" lon="6.77292">
        <ele>1620</ele>
        <time>2011-06-26T11:14:28Z</time>
      </trkpt>
      <trkpt lat="46.20441" lon="6.77367">
        <ele>1620</ele>
        <time>2011-06-26T11:14:38Z</time>
      </trkpt>
      <trkpt lat="46.20391" lon="6.77431">
        <ele>1617</ele>
        <time>2011-06-26T11:14:48Z</time>
      </trkpt>
      <trkpt lat="46.20362" lon="6.77493">
        <ele>1616</ele>
        <time>2011-06-26T11:14:58Z</time>
      </trkpt>
      <trkpt lat="46.20364" lon="6.77566">
        <ele>1610</ele>
        <time>2011-06-26T11:15:08Z</time>
      </trkpt>
      <trkpt lat="46.20371" lon="6.77639">
        <ele>1604</ele>
        <time>2011-06-26T11:15:18Z</time>
      </trkpt>
      <trkpt lat="46.20391" lon="6.77671">
        <ele>1603</ele>
        <time>2011-06-26T11:15:28Z</time>
      </trkpt>
      <trkpt lat="46.20368" lon="6.77726">
        <ele>1602</ele>
        <time>2011-06-26T11:15:38Z</time>
      </trkpt>
      <trkpt lat="46.20335" lon="6.77788">
        <ele>1602</ele>
        <time>2011-06-26T11:15:48Z</time>
      </trkpt>
      <trkpt lat="46.20339" lon="6.77858">
        <ele>1601</ele>
        <time>2011-06-26T11:15:58Z</time>
      </trkpt>
      <trkpt lat="46.20331" lon="6.77927">
        <ele>1600</ele>
        <time>2011-06-26T11:16:08Z</time>
      </trkpt>
      <trkpt lat="46.20294" lon="6.77984">
        <ele>1602</ele>
        <time>2011-06-26T11:16:18Z</time>
      </trkpt>
      <trkpt lat="46.20288" lon="6.78046">
        <ele>1602</ele>
        <time>2011-06-26T11:16:28Z</time>
      </trkpt>
      <trkpt lat="46.20244" lon="6.78086">
        <ele>1602</ele>
        <time>2011-06-26T11:16:38Z</time>
      </trkpt>
      <trkpt lat="46.20226" lon="6.7813">
        <ele>1599</ele>
        <time>2011-06-26T11:16:48Z</time>
      </trkpt>
      <trkpt lat="46.20214" lon="6.78181">
        <ele>1599</ele>
        <time>2011-06-26T11:16:58Z</time>
      </trkpt>
      <trkpt lat="46.20179" lon="6.78232">
        <ele>1602</ele>
        <time>2011-06-26T11:17:08Z</time>
      </trkpt>
      <trkpt lat="46.20141" lon="6.78283">
        <ele>1602</ele>
        <time>2011-06-26T11:17:18Z</time>
      </trkpt>
      <trkpt lat="46.20111" lon="6.78344">
        <ele>1602</ele>
        <time>2011-06-26T11:17:28Z</time>
      </trkpt>
      <trkpt lat="46.20085" lon="6.7841">
        <ele>1602</ele>
        <time>2011-06-26T11:17:38Z</time>
      </trkpt>
      <trkpt lat="46.20059" lon="6.78486">
        <ele>1602</ele>
        <time>2011-06-26T11:17:48Z</time>
      </trkpt>
      <trkpt lat="46.20031" lon="6.7856">
        <ele>1600</ele>
        <time>2011-06-26T11:17:58Z</time>
      </trkpt>
      <trkpt lat="46.19986" lon="6.78587">
        <ele>1598</ele>
        <time>2011-06-26T11:18:08Z</time>
      </trkpt>
      <trkpt lat="46.19925" lon="6.78591">
        <ele>1595</ele>
        <time>2011-06-26T11:18:18Z</time>
      </trkpt>
      <trkpt lat="46.199" lon="6.78626">
        <ele>1591</ele>
        <time>2011-06-26T11:18:28Z</time>
      </trkpt>
      <trkpt lat="46.19879" lon="6.78702">
        <ele>1588</ele>
        <time>2011-06-26T11:18:38Z</time>
      </trkpt>
      <trkpt lat="46.19882" lon="6.78778">
        <ele>1584</ele>
        <time>2011-06-26T11:18:48Z</time>
      </trkpt>
      <trkpt lat="46.19875" lon="6.78784">
        <ele>1584</ele>
        <time>2011-06-26T11:19:00Z</time>
      </trkpt>
      <trkpt lat="46.1988" lon="6.78784">
        <ele>1583</ele>
        <time>2011-06-26T11:19:12Z</time>
      </trkpt>
      <trkpt lat="46.19886" lon="6.78766">
        <ele>1582</ele>
        <time>2011-06-26T11:19:22Z</time>
      </trkpt>
      <trkpt lat="46.19899" lon="6.78759">
        <ele>1580</ele>
        <time>2011-06-26T11:19:34Z</time>
      </trkpt>
      <trkpt lat="46.19928" lon="6.78761">
        <ele>1580</ele>
        <time>2011-06-26T11:19:44Z</time>
      </trkpt>
      <trkpt lat="46.19962" lon="6.78755">
        <ele>1581</ele>
        <time>2011-06-26T11:19:54Z</time>
      </trkpt>
      <trkpt lat="46.19991" lon="6.78738">
        <ele>1586</ele>
        <time>2011-06-26T11:20:04Z</time>
      </trkpt>
      <trkpt lat="46.20015" lon="6.78717">
        <ele>1590</ele>
        <time>2011-06-26T11:20:14Z</time>
      </trkpt>
      <trkpt lat="46.20041" lon="6.78719">
        <ele>1592</ele>
        <time>2011-06-26T11:20:24Z</time>
      </trkpt>
      <trkpt lat="46.2007" lon="6.78713">
        <ele>1594</ele>
        <time>2011-06-26T11:20:34Z</time>
      </trkpt>
      <trkpt lat="46.20104" lon="6.78722">
        <ele>1595</ele>
        <time>2011-06-26T11:20:44Z</time>
      </trkpt>
      <trkpt lat="46.2015" lon="6.7873">
        <ele>1596</ele>
        <time>2011-06-26T11:20:54Z</time>
      </trkpt>
      <trkpt lat="46.20209" lon="6.78739">
        <ele>1594</ele>
        <time>2011-06-26T11:21:04Z</time>
      </trkpt>
      <trkpt lat="46.20279" lon="6.78705">
        <ele>1584</ele>
        <time>2011-06-26T11:21:14Z</time>
      </trkpt>
      <trkpt lat="46.20362" lon="6.78626">
        <ele>1574</ele>
        <time>2011-06-26T11:21:24Z</time>
      </trkpt>
      <trkpt lat="46.20421" lon="6.78547">
        <ele>1573</ele>
        <time>2011-06-26T11:21:34Z</time>
      </trkpt>
      <trkpt lat="46.20477" lon="6.78483">
        <ele>1572</ele>
        <time>2011-06-26T11:21:44Z</time>
      </trkpt>
      <trkpt lat="46.2053" lon="6.78412">
        <ele>1569</ele>
        <time>2011-06-26T11:21:54Z</time>
      </trkpt>
      <trkpt lat="46.20548" lon="6.783">
        <ele>1562</ele>
        <time>2011-06-26T11:22:04Z</time>
      </trkpt>
      <trkpt lat="46.20599" lon="6.78212">
        <ele>1552</ele>
        <time>2011-06-26T11:22:14Z</time>
      </trkpt>
      <trkpt lat="46.2065" lon="6.78126">
        <ele>1542</ele>
        <time>2011-06-26T11:22:24Z</time>
      </trkpt>
      <trkpt lat="46.20698" lon="6.78044">
        <ele>1532</ele>
        <time>2011-06-26T11:22:34Z</time>
      </trkpt>
      <trkpt lat="46.20733" lon="6.77975">
        <ele>1522</ele>
        <time>2011-06-26T11:22:44Z</time>
      </trkpt>
      <trkpt lat="46.20749" lon="6.77892">
        <ele>1513</ele>
        <time>2011-06-26T11:22:54Z</time>
      </trkpt>
      <trkpt lat="46.20716" lon="6.77799">
        <ele>1507</ele>
        <time>2011-06-26T11:23:04Z</time>
      </trkpt>
      <trkpt lat="46.207" lon="6.77802">
        <ele>1504</ele>
        <time>2011-06-26T11:23:15Z</time>
      </trkpt>
      <trkpt lat="46.20702" lon="6.77812">
        <ele>1503</ele>
        <time>2011-06-26T11:23:26Z</time>
      </trkpt>
      <trkpt lat="46.20715" lon="6.77852">
        <ele>1502</ele>
        <time>2011-06-26T11:23:36Z</time>
      </trkpt>
      <trkpt lat="46.20731" lon="6.77896">
        <ele>1506</ele>
        <time>2011-06-26T11:23:46Z</time>
      </trkpt>
      <trkpt lat="46.20747" lon="6.77939">
        <ele>1516</ele>
        <time>2011-06-26T11:23:56Z</time>
      </trkpt>
      <trkpt lat="46.20763" lon="6.77982">
        <ele>1526</ele>
        <time>2011-06-26T11:24:06Z</time>
      </trkpt>
      <trkpt lat="46.2078" lon="6.78023">
        <ele>1536</ele>
        <time>2011-06-26T11:24:16Z</time>
      </trkpt>
      <trkpt lat="46.20795" lon="6.78065">
        <ele>1546</ele>
        <time>2011-06-26T11:24:26Z</time>
      </trkpt>
      <trkpt lat="46.20811" lon="6.78107">
        <ele>1556</ele>
        <time>2011-06-26T11:24:36Z</time>
      </trkpt>
      <trkpt lat="46.20826" lon="6.78148">
        <ele>1565</ele>
        <time>2011-06-26T11:24:46Z</time>
      </trkpt>
      <trkpt lat="46.20838" lon="6.7818">
        <ele>1575</ele>
        <time>2011-06-26T11:24:56Z</time>
      </trkpt>
      <trkpt lat="46.20854" lon="6.7822">
        <ele>1585</ele>
        <time>2011-06-26T11:25:06Z</time>
      </trkpt>
      <trkpt lat="46.20869" lon="6.7826">
        <ele>1595</ele>
        <time>2011-06-26T11:25:16Z</time>
      </trkpt>
      <trkpt lat="46.20885" lon="6.78299">
        <ele>1611</ele>
        <time>2011-06-26T11:25:26Z</time>
      </trkpt>
      <trkpt lat="46.209" lon="6.78338">
        <ele>1628</ele>
        <time>2011-06-26T11:25:36Z</time>
      </trkpt>
      <trkpt lat="46.20914" lon="6.78375">
        <ele>1647</ele>
        <time>2011-06-26T11:25:46Z</time>
      </trkpt>
      <trkpt lat="46.20929" lon="6.78412">
        <ele>1667</ele>
        <time>2011-06-26T11:25:56Z</time>
      </trkpt>
      <trkpt lat="46.20944" lon="6.7845">
        <ele>1686</ele>
        <time>2011-06-26T11:26:06Z</time>
      </trkpt>
      <trkpt lat="46.20959" lon="6.78489">
        <ele>1704</ele>
        <time>2011-06-26T11:26:16Z</time>
      </trkpt>
      <trkpt lat="46.20974" lon="6.78527">
        <ele>1722</ele>
        <time>2011-06-26T11:26:26Z</time>
      </trkpt>
      <trkpt lat="46.20985" lon="6.78556">
        <ele>1740</ele>
        <time>2011-06-26T11:26:36Z</time>
      </trkpt>
      <trkpt lat="46.20997" lon="6.78585">
        <ele>1756</ele>
        <time>2011-06-26T11:26:46Z</time>
      </trkpt>
      <trkpt lat="46.21009" lon="6.78616">
        <ele>1769</ele>
        <time>2011-06-26T11:26:56Z</time>
      </trkpt>
      <trkpt lat="46.21021" lon="6.78646">
        <ele>1781</ele>
        <time>2011-06-26T11:27:06Z</time>
      </trkpt>
      <trkpt lat="46.21034" lon="6.78678">
        <ele>1791</ele>
        <time>2011-06-26T11:27:16Z</time>
      </trkpt>
      <trkpt lat="46.21046" lon="6.78711">
        <ele>1801</ele>
        <time>2011-06-26T11:27:26Z</time>
      </trkpt>
      <trkpt lat="46.21058" lon="6.78738">
        <ele>1811</ele>
        <time>2011-06-26T11:27:36Z</time>
      </trkpt>
      <trkpt lat="46.21067" lon="6.78762">
        <ele>1821</ele>
        <time>2011-06-26T11:27:46Z</time>
      </trkpt>
      <trkpt lat="46.21079" lon="6.78794">
        <ele>1831</ele>
        <time>2011-06-26T11:27:56Z</time>
      </trkpt>
      <trkpt lat="46.21095" lon="6.78835">
        <ele>1842</ele>
        <time>2011-06-26T11:28:06Z</time>
      </trkpt>
      <trkpt lat="46.2111" lon="6.78875">
        <ele>1856</ele>
        <time>2011-06-26T11:28:16Z</time>
      </trkpt>
      <trkpt lat="46.21126" lon="6.78916">
        <ele>1870</ele>
        <time>2011-06-26T11:28:26Z</time>
      </trkpt>
      <trkpt lat="46.21142" lon="6.78955">
        <ele>1885</ele>
        <time>2011-06-26T11:28:36Z</time>
      </trkpt>
      <trkpt lat="46.21157" lon="6.78995">
        <ele>1902</ele>
        <time>2011-06-26T11:28:46Z</time>
      </trkpt>
      <trkpt lat="46.21174" lon="6.79031">
        <ele>1913</ele>
        <time>2011-06-26T11:28:56Z</time>
      </trkpt>
      <trkpt lat="46.21177" lon="6.79037">
        <ele>1917</ele>
        <time>2011-06-26T11:29:06Z</time>
      </trkpt>
      <trkpt lat="46.21184" lon="6.79039">
        <ele>1917</ele>
        <time>2011-06-26T11:29:20Z</time>
      </trkpt>
      <trkpt lat="46.21211" lon="6.79019">
        <ele>1916</ele>
        <time>2011-06-26T11:29:30Z</time>
      </trkpt>
      <trkpt lat="46.21234" lon="6.79005">
        <ele>1916</ele>
        <time>2011-06-26T11:29:42Z</time>
      </trkpt>
      <trkpt lat="46.21259" lon="6.78987">
        <ele>1916</ele>
        <time>2011-06-26T11:29:52Z</time>
      </trkpt>
      <trkpt lat="46.21257" lon="6.7899">
        <ele>1916</ele>
        <time>2011-06-26T11:30:04Z</time>
      </trkpt>
      <trkpt lat="46.21256" lon="6.78981">
        <ele>1916</ele>
        <time>2011-06-26T11:30:17Z</time>
      </trkpt>
      <trkpt lat="46.21273" lon="6.78937">
        <ele>1916</ele>
        <time>2011-06-26T11:30:27Z</time>
      </trkpt>
      <trkpt lat="46.21297" lon="6.78882">
        <ele>1916</ele>
        <time>2011-06-26T11:30:37Z</time>
      </trkpt>
      <trkpt lat="46.21341" lon="6.78811">
        <ele>1914</ele>
        <time>2011-06-26T11:30:48Z</time>
      </trkpt>
      <trkpt lat="46.21379" lon="6.7873">
        <ele>1909</ele>
        <time>2011-06-26T11:30:58Z</time>
      </trkpt>
      <trkpt lat="46.21434" lon="6.78647">
        <ele>1904</ele>
        <time>2011-06-26T11:31:08Z</time>
      </trkpt>
      <trkpt lat="46.21517" lon="6.78564">
        <ele>1894</ele>
        <time>2011-06-26T11:31:19Z</time>
      </trkpt>
      <trkpt lat="46.2154" lon="6.7854">
        <ele>1894</ele>
        <time>2011-06-26T11:31:29Z</time>
      </trkpt>
      <trkpt lat="46.2156" lon="6.78504">
        <ele>1894</ele>
        <time>2011-06-26T11:31:40Z</time>
      </trkpt>
      <trkpt lat="46.21586" lon="6.78452">
        <ele>1894</ele>
        <time>2011-06-26T11:31:50Z</time>
      </trkpt>
      <trkpt lat="46.21616" lon="6.7839">
        <ele>1894</ele>
        <time>2011-06-26T11:32:00Z</time>
      </trkpt>
      <trkpt lat="46.21631" lon="6.78305">
        <ele>1894</ele>
        <time>2011-06-26T11:32:10Z</time>
      </trkpt>
      <trkpt lat="46.2163" lon="6.78222">
        <ele>1894</ele>
        <time>2011-06-26T11:32:20Z</time>
      </trkpt>
      <trkpt lat="46.21632" lon="6.78139">
        <ele>1894</ele>
        <time>2011-06-26T11:32:30Z</time>
      </trkpt>
      <trkpt lat="46.21657" lon="6.7807">
        <ele>1894</ele>
        <time>2011-06-26T11:32:40Z</time>
      </trkpt>
      <trkpt lat="46.21693" lon="6.77998">
        <ele>1893</ele>
        <time>2011-06-26T11:32:50Z</time>
      </trkpt>
      <trkpt lat="46.21737" lon="6.77957">
        <ele>1893</ele>
        <time>2011-06-26T11:33:00Z</time>
      </trkpt>
      <trkpt lat="46.21795" lon="6.77904">
        <ele>1886</ele>
        <time>2011-06-26T11:33:10Z</time>
      </trkpt>
      <trkpt lat="46.2186" lon="6.77842">
        <ele>1880</ele>
        <time>2011-06-26T11:33:20Z</time>
      </trkpt>
      <trkpt lat="46.21912" lon="6.77785">
        <ele>1877</ele>
        <time>2011-06-26T11:33:30Z</time>
      </trkpt>
      <trkpt lat="46.2193" lon="6.77873">
        <ele>1870</ele>
        <time>2011-06-26T11:33:40Z</time>
      </trkpt>
      <trkpt lat="46.21941" lon="6.77881">
        <ele>1863</ele>
        <time>2011-06-26T11:33:50Z</time>
      </trkpt>
      <trkpt lat="46.21967" lon="6.77906">
        <ele>1854</ele>
        <time>2011-06-26T11:34:00Z</time>
      </trkpt>
      <trkpt lat="46.21996" lon="6.77992">
        <ele>1848</ele>
        <time>2011-06-26T11:34:10Z</time>
      </trkpt>
      <trkpt lat="46.22" lon="6.77922">
        <ele>1839</ele>
        <time>2011-06-26T11:34:20Z</time>
      </trkpt>
      <trkpt lat="46.22004" lon="6.77892">
        <ele>1830</ele>
        <time>2011-06-26T11:34:30Z</time>
      </trkpt>
      <trkpt lat="46.22005" lon="6.77844">
        <ele>1820</ele>
        <time>2011-06-26T11:34:40Z</time>
      </trkpt>
      <trkpt lat="46.22051" lon="6.77923">
        <ele>1811</ele>
        <time>2011-06-26T11:34:50Z</time>
      </trkpt>
      <trkpt lat="46.2205" lon="6.78012">
        <ele>1803</ele>
        <time>2011-06-26T11:35:00Z</time>
      </trkpt>
      <trkpt lat="46.22034" lon="6.78095">
        <ele>1803</ele>
        <time>2011-06-26T11:35:10Z</time>
      </trkpt>
      <trkpt lat="46.2205" lon="6.78185">
        <ele>1803</ele>
        <time>2011-06-26T11:35:20Z</time>
      </trkpt>
      <trkpt lat="46.22035" lon="6.78284">
        <ele>1803</ele>
        <time>2011-06-26T11:35:30Z</time>
      </trkpt>
      <trkpt lat="46.21993" lon="6.78342">
        <ele>1803</ele>
        <time>2011-06-26T11:35:40Z</time>
      </trkpt>
      <trkpt lat="46.21956" lon="6.78407">
        <ele>1796</ele>
        <time>2011-06-26T11:35:50Z</time>
      </trkpt>
      <trkpt lat="46.22007" lon="6.7837">
        <ele>1786</ele>
        <time>2011-06-26T11:36:00Z</time>
      </trkpt>
      <trkpt lat="46.22061" lon="6.78336">
        <ele>1776</ele>
        <time>2011-06-26T11:36:10Z</time>
      </trkpt>
      <trkpt lat="46.22066" lon="6.78328">
        <ele>1766</ele>
        <time>2011-06-26T11:36:20Z</time>
      </trkpt>
      <trkpt lat="46.22062" lon="6.78383">
        <ele>1758</ele>
        <time>2011-06-26T11:36:31Z</time>
      </trkpt>
      <trkpt lat="46.22032" lon="6.78452">
        <ele>1753</ele>
        <time>2011-06-26T11:36:41Z</time>
      </trkpt>
      <trkpt lat="46.21992" lon="6.78514">
        <ele>1747</ele>
        <time>2011-06-26T11:36:51Z</time>
      </trkpt>
      <trkpt lat="46.21938" lon="6.78544">
        <ele>1744</ele>
        <time>2011-06-26T11:37:01Z</time>
      </trkpt>
      <trkpt lat="46.21887" lon="6.7858">
        <ele>1742</ele>
        <time>2011-06-26T11:37:11Z</time>
      </trkpt>
      <trkpt lat="46.21845" lon="6.7864">
        <ele>1738</ele>
        <time>2011-06-26T11:37:21Z</time>
      </trkpt>
      <trkpt lat="46.21813" lon="6.78713">
        <ele>1730</ele>
        <time>2011-06-26T11:37:31Z</time>
      </trkpt>
      <trkpt lat="46.21764" lon="6.78794">
        <ele>1720</ele>
        <time>2011-06-26T11:37:41Z</time>
      </trkpt>
      <trkpt lat="46.21729" lon="6.78876">
        <ele>1713</ele>
        <time>2011-06-26T11:37:51Z</time>
      </trkpt>
      <trkpt lat="46.21746" lon="6.78957">
        <ele>1708</ele>
        <time>2011-06-26T11:38:01Z</time>
      </trkpt>
      <trkpt lat="46.21773" lon="6.79031">
        <ele>1702</ele>
        <time>2011-06-26T11:38:11Z</time>
      </trkpt>
      <trkpt lat="46.21735" lon="6.79086">
        <ele>1692</ele>
        <time>2011-06-26T11:38:21Z</time>
      </trkpt>
      <trkpt lat="46.21713" lon="6.79118">
        <ele>1690</ele>
        <time>2011-06-26T11:38:31Z</time>
      </trkpt>
      <trkpt lat="46.21656" lon="6.79197">
        <ele>1687</ele>
        <time>2011-06-26T11:38:41Z</time>
      </trkpt>
      <trkpt lat="46.2161" lon="6.79239">
        <ele>1687</ele>
        <time>2011-06-26T11:38:51Z</time>
      </trkpt>
      <trkpt lat="46.21592" lon="6.79309">
        <ele>1687</ele>
        <time>2011-06-26T11:39:01Z</time>
      </trkpt>
      <trkpt lat="46.21609" lon="6.79325">
        <ele>1682</ele>
        <time>2011-06-26T11:39:11Z</time>
      </trkpt>
      <trkpt lat="46.21648" lon="6.79313">
        <ele>1672</ele>
        <time>2011-06-26T11:39:21Z</time>
      </trkpt>
      <trkpt lat="46.21676" lon="6.79372">
        <ele>1662</ele>
        <time>2011-06-26T11:39:31Z</time>
      </trkpt>
      <trkpt lat="46.21728" lon="6.7932">
        <ele>1652</ele>
        <time>2011-06-26T11:39:41Z</time>
      </trkpt>
      <trkpt lat="46.2175" lon="6.79341">
        <ele>1648</ele>
        <time>2011-06-26T11:39:51Z</time>
      </trkpt>
      <trkpt lat="46.21742" lon="6.79352">
        <ele>1649</ele>
        <time>2011-06-26T11:40:05Z</time>
      </trkpt>
      <trkpt lat="46.21749" lon="6.79341">
        <ele>1650</ele>
        <time>2011-06-26T11:40:16Z</time>
      </trkpt>
      <trkpt lat="46.21768" lon="6.79325">
        <ele>1651</ele>
        <time>2011-06-26T11:40:26Z</time>
      </trkpt>
      <trkpt lat="46.21793" lon="6.79331">
        <ele>1651</ele>
        <time>2011-06-26T11:40:36Z</time>
      </trkpt>
      <trkpt lat="46.21813" lon="6.79364">
        <ele>1646</ele>
        <time>2011-06-26T11:40:46Z</time>
      </trkpt>
      <trkpt lat="46.2183" lon="6.79447">
        <ele>1643</ele>
        <time>2011-06-26T11:40:56Z</time>
      </trkpt>
      <trkpt lat="46.21835" lon="6.79493">
        <ele>1643</ele>
        <time>2011-06-26T11:41:06Z</time>
      </trkpt>
      <trkpt lat="46.21845" lon="6.79541">
        <ele>1644</ele>
        <time>2011-06-26T11:41:16Z</time>
      </trkpt>
      <trkpt lat="46.21864" lon="6.79586">
        <ele>1646</ele>
        <time>2011-06-26T11:41:26Z</time>
      </trkpt>
      <trkpt lat="46.21894" lon="6.79611">
        <ele>1647</ele>
        <time>2011-06-26T11:41:36Z</time>
      </trkpt>
      <trkpt lat="46.21918" lon="6.79629">
        <ele>1648</ele>
        <time>2011-06-26T11:41:46Z</time>
      </trkpt>
      <trkpt lat="46.2194" lon="6.79646">
        <ele>1650</ele>
        <time>2011-06-26T11:41:56Z</time>
      </trkpt>
      <trkpt lat="46.21964" lon="6.79665">
        <ele>1652</ele>
        <time>2011-06-26T11:42:06Z</time>
      </trkpt>
      <trkpt lat="46.21985" lon="6.79676">
        <ele>1655</ele>
        <time>2011-06-26T11:42:16Z</time>
      </trkpt>
      <trkpt lat="46.22007" lon="6.79677">
        <ele>1660</ele>
        <time>2011-06-26T11:42:26Z</time>
      </trkpt>
      <trkpt lat="46.22028" lon="6.79672">
        <ele>1661</ele>
        <time>2011-06-26T11:42:36Z</time>
      </trkpt>
      <trkpt lat="46.22051" lon="6.79675">
        <ele>1664</ele>
        <time>2011-06-26T11:42:46Z</time>
      </trkpt>
      <trkpt lat="46.22071" lon="6.79679">
        <ele>1664</ele>
        <time>2011-06-26T11:42:56Z</time>
      </trkpt>
      <trkpt lat="46.22092" lon="6.79688">
        <ele>1666</ele>
        <time>2011-06-26T11:43:06Z</time>
      </trkpt>
      <trkpt lat="46.22107" lon="6.79688">
        <ele>1672</ele>
        <time>2011-06-26T11:43:16Z</time>
      </trkpt>
      <trkpt lat="46.22126" lon="6.79687">
        <ele>1676</ele>
        <time>2011-06-26T11:43:26Z</time>
      </trkpt>
      <trkpt lat="46.22146" lon="6.79683">
        <ele>1680</ele>
        <time>2011-06-26T11:43:36Z</time>
      </trkpt>
      <trkpt lat="46.22165" lon="6.7968">
        <ele>1681</ele>
        <time>2011-06-26T11:43:46Z</time>
      </trkpt>
      <trkpt lat="46.22178" lon="6.79678">
        <ele>1690</ele>
        <time>2011-06-26T11:43:56Z</time>
      </trkpt>
      <trkpt lat="46.22205" lon="6.79674">
        <ele>1701</ele>
        <time>2011-06-26T11:44:06Z</time>
      </trkpt>
      <trkpt lat="46.22237" lon="6.79682">
        <ele>1701</ele>
        <time>2011-06-26T11:44:16Z</time>
      </trkpt>
      <trkpt lat="46.22269" lon="6.79692">
        <ele>1704</ele>
        <time>2011-06-26T11:44:26Z</time>
      </trkpt>
      <trkpt lat="46.22309" lon="6.79698">
        <ele>1704</ele>
        <time>2011-06-26T11:44:36Z</time>
      </trkpt>
      <trkpt lat="46.22348" lon="6.79717">
        <ele>1700</ele>
        <time>2011-06-26T11:44:46Z</time>
      </trkpt>
      <trkpt lat="46.22376" lon="6.79727">
        <ele>1700</ele>
        <time>2011-06-26T11:44:56Z</time>
      </trkpt>
      <trkpt lat="46.22403" lon="6.79727">
        <ele>1700</ele>
        <time>2011-06-26T11:45:06Z</time>
      </trkpt>
      <trkpt lat="46.22425" lon="6.79735">
        <ele>1699</ele>
        <time>2011-06-26T11:45:16Z</time>
      </trkpt>
      <trkpt lat="46.22443" lon="6.79749">
        <ele>1701</ele>
        <time>2011-06-26T11:45:26Z</time>
      </trkpt>
      <trkpt lat="46.22462" lon="6.79744">
        <ele>1707</ele>
        <time>2011-06-26T11:45:36Z</time>
      </trkpt>
      <trkpt lat="46.22489" lon="6.79734">
        <ele>1712</ele>
        <time>2011-06-26T11:45:46Z</time>
      </trkpt>
      <trkpt lat="46.22511" lon="6.79755">
        <ele>1712</ele>
        <time>2011-06-26T11:45:56Z</time>
      </trkpt>
      <trkpt lat="46.22561" lon="6.79816">
        <ele>1707</ele>
        <time>2011-06-26T11:46:06Z</time>
      </trkpt>
      <trkpt lat="46.22643" lon="6.79883">
        <ele>1698</ele>
        <time>2011-06-26T11:46:16Z</time>
      </trkpt>
      <trkpt lat="46.22673" lon="6.79854">
        <ele>1688</ele>
        <time>2011-06-26T11:46:26Z</time>
      </trkpt>
      <trkpt lat="46.227" lon="6.79882">
        <ele>1683</ele>
        <time>2011-06-26T11:46:36Z</time>
      </trkpt>
      <trkpt lat="46.2275" lon="6.79908">
        <ele>1677</ele>
        <time>2011-06-26T11:46:46Z</time>
      </trkpt>
      <trkpt lat="46.22834" lon="6.79857">
        <ele>1668</ele>
        <time>2011-06-26T11:46:56Z</time>
      </trkpt>
      <trkpt lat="46.22916" lon="6.79876">
        <ele>1660</ele>
        <time>2011-06-26T11:47:06Z</time>
      </trkpt>
      <trkpt lat="46.22988" lon="6.79849">
        <ele>1657</ele>
        <time>2011-06-26T11:47:16Z</time>
      </trkpt>
      <trkpt lat="46.23014" lon="6.79812">
        <ele>1657</ele>
        <time>2011-06-26T11:47:26Z</time>
      </trkpt>
      <trkpt lat="46.23045" lon="6.79799">
        <ele>1657</ele>
        <time>2011-06-26T11:47:36Z</time>
      </trkpt>
      <trkpt lat="46.23081" lon="6.79813">
        <ele>1657</ele>
        <time>2011-06-26T11:47:46Z</time>
      </trkpt>
      <trkpt lat="46.2312" lon="6.79841">
        <ele>1657</ele>
        <time>2011-06-26T11:47:56Z</time>
      </trkpt>
      <trkpt lat="46.23157" lon="6.79878">
        <ele>1659</ele>
        <time>2011-06-26T11:48:06Z</time>
      </trkpt>
      <trkpt lat="46.23203" lon="6.79912">
        <ele>1659</ele>
        <time>2011-06-26T11:48:16Z</time>
      </trkpt>
      <trkpt lat="46.23246" lon="6.79966">
        <ele>1661</ele>
        <time>2011-06-26T11:48:26Z</time>
      </trkpt>
      <trkpt lat="46.23259" lon="6.79978">
        <ele>1665</ele>
        <time>2011-06-26T11:48:37Z</time>
      </trkpt>
      <trkpt lat="46.23251" lon="6.79975">
        <ele>1674</ele>
        <time>2011-06-26T11:48:47Z</time>
      </trkpt>
      <trkpt lat="46.23252" lon="6.79974">
        <ele>1683</ele>
        <time>2011-06-26T11:48:57Z</time>
      </trkpt>
      <trkpt lat="46.23258" lon="6.79977">
        <ele>1670</ele>
        <time>2011-06-26T11:49:07Z</time>
      </trkpt>
      <trkpt lat="46.23259" lon="6.79978">
        <ele>1658</ele>
        <time>2011-06-26T11:49:19Z</time>
      </trkpt>
      <trkpt lat="46.23263" lon="6.80015">
        <ele>1657</ele>
        <time>2011-06-26T11:49:29Z</time>
      </trkpt>
      <trkpt lat="46.23307" lon="6.80045">
        <ele>1649</ele>
        <time>2011-06-26T11:49:39Z</time>
      </trkpt>
      <trkpt lat="46.23349" lon="6.80053">
        <ele>1645</ele>
        <time>2011-06-26T11:49:49Z</time>
      </trkpt>
      <trkpt lat="46.23359" lon="6.80088">
        <ele>1645</ele>
        <time>2011-06-26T11:49:59Z</time>
      </trkpt>
      <trkpt lat="46.23386" lon="6.80089">
        <ele>1646</ele>
        <time>2011-06-26T11:50:09Z</time>
      </trkpt>
      <trkpt lat="46.23412" lon="6.8007">
        <ele>1646</ele>
        <time>2011-06-26T11:50:19Z</time>
      </trkpt>
      <trkpt lat="46.23434" lon="6.80055">
        <ele>1646</ele>
        <time>2011-06-26T11:50:29Z</time>
      </trkpt>
      <trkpt lat="46.23455" lon="6.80078">
        <ele>1646</ele>
        <time>2011-06-26T11:50:39Z</time>
      </trkpt>
      <trkpt lat="46.23473" lon="6.80097">
        <ele>1646</ele>
        <time>2011-06-26T11:50:49Z</time>
      </trkpt>
      <trkpt lat="46.23497" lon="6.80083">
        <ele>1646</ele>
        <time>2011-06-26T11:50:59Z</time>
      </trkpt>
      <trkpt lat="46.23529" lon="6.80061">
        <ele>1649</ele>
        <time>2011-06-26T11:51:09Z</time>
      </trkpt>
      <trkpt lat="46.23555" lon="6.80069">
        <ele>1649</ele>
        <time>2011-06-26T11:51:19Z</time>
      </trkpt>
      <trkpt lat="46.23589" lon="6.80099">
        <ele>1646</ele>
        <time>2011-06-26T11:51:29Z</time>
      </trkpt>
      <trkpt lat="46.23623" lon="6.80134">
        <ele>1642</ele>
        <time>2011-06-26T11:51:39Z</time>
      </trkpt>
      <trkpt lat="46.23642" lon="6.80169">
        <ele>1635</ele>
        <time>2011-06-26T11:51:49Z</time>
      </trkpt>
      <trkpt lat="46.23674" lon="6.80202">
        <ele>1630</ele>
        <time>2011-06-26T11:51:59Z</time>
      </trkpt>
      <trkpt lat="46.23692" lon="6.80233">
        <ele>1629</ele>
        <time>2011-06-26T11:52:09Z</time>
      </trkpt>
      <trkpt lat="46.23711" lon="6.80289">
        <ele>1628</ele>
        <time>2011-06-26T11:52:19Z</time>
      </trkpt>
      <trkpt lat="46.23717" lon="6.80343">
        <ele>1625</ele>
        <time>2011-06-26T11:52:29Z</time>
      </trkpt>
      <trkpt lat="46.23713" lon="6.80387">
        <ele>1622</ele>
        <time>2011-06-26T11:52:39Z</time>
      </trkpt>
      <trkpt lat="46.23706" lon="6.80437">
        <ele>1622</ele>
        <time>2011-06-26T11:52:49Z</time>
      </trkpt>
      <trkpt lat="46.23692" lon="6.80497">
        <ele>1622</ele>
        <time>2011-06-26T11:52:59Z</time>
      </trkpt>
      <trkpt lat="46.23699" lon="6.80528">
        <ele>1617</ele>
        <time>2011-06-26T11:53:09Z</time>
      </trkpt>
      <trkpt lat="46.23705" lon="6.80567">
        <ele>1616</ele>
        <time>2011-06-26T11:53:19Z</time>
      </trkpt>
      <trkpt lat="46.23724" lon="6.80606">
        <ele>1612</ele>
        <time>2011-06-26T11:53:29Z</time>
      </trkpt>
      <trkpt lat="46.23749" lon="6.8064">
        <ele>1607</ele>
        <time>2011-06-26T11:53:39Z</time>
      </trkpt>
      <trkpt lat="46.23774" lon="6.80679">
        <ele>1598</ele>
        <time>2011-06-26T11:53:49Z</time>
      </trkpt>
      <trkpt lat="46.23826" lon="6.80718">
        <ele>1596</ele>
        <time>2011-06-26T11:53:59Z</time>
      </trkpt>
      <trkpt lat="46.23892" lon="6.80744">
        <ele>1593</ele>
        <time>2011-06-26T11:54:09Z</time>
      </trkpt>
      <trkpt lat="46.23935" lon="6.80771">
        <ele>1593</ele>
        <time>2011-06-26T11:54:19Z</time>
      </trkpt>
      <trkpt lat="46.23987" lon="6.80823">
        <ele>1584</ele>
        <time>2011-06-26T11:54:29Z</time>
      </trkpt>
      <trkpt lat="46.24056" lon="6.80809">
        <ele>1568</ele>
        <time>2011-06-26T11:54:39Z</time>
      </trkpt>
      <trkpt lat="46.24118" lon="6.80817">
        <ele>1558</ele>
        <time>2011-06-26T11:54:49Z</time>
      </trkpt>
      <trkpt lat="46.24189" lon="6.80861">
        <ele>1558</ele>
        <time>2011-06-26T11:54:59Z</time>
      </trkpt>
      <trkpt lat="46.24244" lon="6.80893">
        <ele>1553</ele>
        <time>2011-06-26T11:55:09Z</time>
      </trkpt>
      <trkpt lat="46.24294" lon="6.80971">
        <ele>1545</ele>
        <time>2011-06-26T11:55:19Z</time>
      </trkpt>
      <trkpt lat="46.24342" lon="6.81053">
        <ele>1543</ele>
        <time>2011-06-26T11:55:29Z</time>
      </trkpt>
      <trkpt lat="46.24387" lon="6.81106">
        <ele>1541</ele>
        <time>2011-06-26T11:55:39Z</time>
      </trkpt>
      <trkpt lat="46.24412" lon="6.81163">
        <ele>1538</ele>
        <time>2011-06-26T11:55:49Z</time>
      </trkpt>
      <trkpt lat="46.24454" lon="6.81223">
        <ele>1536</ele>
        <time>2011-06-26T11:55:59Z</time>
      </trkpt>
      <trkpt lat="46.24487" lon="6.81243">
        <ele>1536</ele>
        <time>2011-06-26T11:56:09Z</time>
      </trkpt>
      <trkpt lat="46.24498" lon="6.81281">
        <ele>1536</ele>
        <time>2011-06-26T11:56:19Z</time>
      </trkpt>
      <trkpt lat="46.24517" lon="6.81311">
        <ele>1536</ele>
        <time>2011-06-26T11:56:29Z</time>
      </trkpt>
      <trkpt lat="46.2453" lon="6.81352">
        <ele>1536</ele>
        <time>2011-06-26T11:56:39Z</time>
      </trkpt>
      <trkpt lat="46.24544" lon="6.81399">
        <ele>1536</ele>
        <time>2011-06-26T11:56:49Z</time>
      </trkpt>
      <trkpt lat="46.24537" lon="6.81469">
        <ele>1534</ele>
        <time>2011-06-26T11:56:59Z</time>
      </trkpt>
      <trkpt lat="46.2451" lon="6.81527">
        <ele>1530</ele>
        <time>2011-06-26T11:57:09Z</time>
      </trkpt>
      <trkpt lat="46.24479" lon="6.81581">
        <ele>1523</ele>
        <time>2011-06-26T11:57:19Z</time>
      </trkpt>
      <trkpt lat="46.24442" lon="6.81673">
        <ele>1502</ele>
        <time>2011-06-26T11:57:30Z</time>
      </trkpt>
      <trkpt lat="46.24488" lon="6.81746">
        <ele>1489</ele>
        <time>2011-06-26T11:57:40Z</time>
      </trkpt>
      <trkpt lat="46.2458" lon="6.81766">
        <ele>1479</ele>
        <time>2011-06-26T11:57:50Z</time>
      </trkpt>
      <trkpt lat="46.24648" lon="6.81806">
        <ele>1469</ele>
        <time>2011-06-26T11:58:00Z</time>
      </trkpt>
      <trkpt lat="46.24671" lon="6.81916">
        <ele>1462</ele>
        <time>2011-06-26T11:58:10Z</time>
      </trkpt>
      <trkpt lat="46.24717" lon="6.81978">
        <ele>1454</ele>
        <time>2011-06-26T11:58:20Z</time>
      </trkpt>
      <trkpt lat="46.24748" lon="6.82081">
        <ele>1442</ele>
        <time>2011-06-26T11:58:30Z</time>
      </trkpt>
      <trkpt lat="46.2476" lon="6.82191">
        <ele>1429</ele>
        <time>2011-06-26T11:58:40Z</time>
      </trkpt>
      <trkpt lat="46.24754" lon="6.8229">
        <ele>1417</ele>
        <time>2011-06-26T11:58:50Z</time>
      </trkpt>
      <trkpt lat="46.24704" lon="6.82404">
        <ele>1405</ele>
        <time>2011-06-26T11:59:01Z</time>
      </trkpt>
      <trkpt lat="46.24665" lon="6.82482">
        <ele>1396</ele>
        <time>2011-06-26T11:59:11Z</time>
      </trkpt>
      <trkpt lat="46.24742" lon="6.8255">
        <ele>1391</ele>
        <time>2011-06-26T11:59:21Z</time>
      </trkpt>
      <trkpt lat="46.24807" lon="6.8259">
        <ele>1386</ele>
        <time>2011-06-26T11:59:32Z</time>
      </trkpt>
      <trkpt lat="46.24871" lon="6.826">
        <ele>1379</ele>
        <time>2011-06-26T11:59:42Z</time>
      </trkpt>
      <trkpt lat="46.24937" lon="6.82607">
        <ele>1368</ele>
        <time>2011-06-26T11:59:52Z</time>
      </trkpt>
      <trkpt lat="46.25006" lon="6.8264">
        <ele>1363</ele>
        <time>2011-06-26T12:00:02Z</time>
      </trkpt>
      <trkpt lat="46.25064" lon="6.82706">
        <ele>1354</ele>
        <time>2011-06-26T12:00:12Z</time>
      </trkpt>
      <trkpt lat="46.25114" lon="6.82762">
        <ele>1339</ele>
        <time>2011-06-26T12:00:22Z</time>
      </trkpt>
      <trkpt lat="46.25161" lon="6.82815">
        <ele>1324</ele>
        <time>2011-06-26T12:00:32Z</time>
      </trkpt>
      <trkpt lat="46.25181" lon="6.82902">
        <ele>1311</ele>
        <time>2011-06-26T12:00:43Z</time>
      </trkpt>
      <trkpt lat="46.252" lon="6.83027">
        <ele>1300</ele>
        <time>2011-06-26T12:00:54Z</time>
      </trkpt>
      <trkpt lat="46.25228" lon="6.8312">
        <ele>1290</ele>
        <time>2011-06-26T12:01:04Z</time>
      </trkpt>
      <trkpt lat="46.25277" lon="6.83208">
        <ele>1283</ele>
        <time>2011-06-26T12:01:14Z</time>
      </trkpt>
      <trkpt lat="46.25326" lon="6.83293">
        <ele>1276</ele>
        <time>2011-06-26T12:01:24Z</time>
      </trkpt>
      <trkpt lat="46.25392" lon="6.83395">
        <ele>1266</ele>
        <time>2011-06-26T12:01:34Z</time>
      </trkpt>
      <trkpt lat="46.25439" lon="6.83481">
        <ele>1260</ele>
        <time>2011-06-26T12:01:44Z</time>
      </trkpt>
      <trkpt lat="46.25473" lon="6.83557">
        <ele>1259</ele>
        <time>2011-06-26T12:01:55Z</time>
      </trkpt>
      <trkpt lat="46.25497" lon="6.83621">
        <ele>1259</ele>
        <time>2011-06-26T12:02:05Z</time>
      </trkpt>
      <trkpt lat="46.25523" lon="6.83683">
        <ele>1259</ele>
        <time>2011-06-26T12:02:15Z</time>
      </trkpt>
      <trkpt lat="46.25553" lon="6.83739">
        <ele>1259</ele>
        <time>2011-06-26T12:02:25Z</time>
      </trkpt>
      <trkpt lat="46.25599" lon="6.83802">
        <ele>1259</ele>
        <time>2011-06-26T12:02:36Z</time>
      </trkpt>
      <trkpt lat="46.25633" lon="6.83879">
        <ele>1259</ele>
        <time>2011-06-26T12:02:46Z</time>
      </trkpt>
      <trkpt lat="46.25674" lon="6.83953">
        <ele>1259</ele>
        <time>2011-06-26T12:02:56Z</time>
      </trkpt>
      <trkpt lat="46.25723" lon="6.84015">
        <ele>1258</ele>
        <time>2011-06-26T12:03:06Z</time>
      </trkpt>
      <trkpt lat="46.25771" lon="6.84043">
        <ele>1251</ele>
        <time>2011-06-26T12:03:16Z</time>
      </trkpt>
      <trkpt lat="46.25845" lon="6.84061">
        <ele>1248</ele>
        <time>2011-06-26T12:03:26Z</time>
      </trkpt>
      <trkpt lat="46.25923" lon="6.84083">
        <ele>1239</ele>
        <time>2011-06-26T12:03:36Z</time>
      </trkpt>
      <trkpt lat="46.26001" lon="6.84086">
        <ele>1238</ele>
        <time>2011-06-26T12:03:46Z</time>
      </trkpt>
      <trkpt lat="46.26077" lon="6.8407">
        <ele>1235</ele>
        <time>2011-06-26T12:03:56Z</time>
      </trkpt>
      <trkpt lat="46.26161" lon="6.84073">
        <ele>1227</ele>
        <time>2011-06-26T12:04:07Z</time>
      </trkpt>
      <trkpt lat="46.26239" lon="6.84098">
        <ele>1224</ele>
        <time>2011-06-26T12:04:17Z</time>
      </trkpt>
      <trkpt lat="46.26323" lon="6.84126">
        <ele>1224</ele>
        <time>2011-06-26T12:04:27Z</time>
      </trkpt>
      <trkpt lat="46.26414" lon="6.84154">
        <ele>1224</ele>
        <time>2011-06-26T12:04:37Z</time>
      </trkpt>
      <trkpt lat="46.26502" lon="6.8417">
        <ele>1217</ele>
        <time>2011-06-26T12:04:47Z</time>
      </trkpt>
      <trkpt lat="46.26579" lon="6.84159">
        <ele>1208</ele>
        <time>2011-06-26T12:04:57Z</time>
      </trkpt>
      <trkpt lat="46.2664" lon="6.84135">
        <ele>1201</ele>
        <time>2011-06-26T12:05:07Z</time>
      </trkpt>
      <trkpt lat="46.26672" lon="6.84131">
        <ele>1200</ele>
        <time>2011-06-26T12:05:17Z</time>
      </trkpt>
      <trkpt lat="46.26699" lon="6.84115">
        <ele>1200</ele>
        <time>2011-06-26T12:05:27Z</time>
      </trkpt>
      <trkpt lat="46.26733" lon="6.84099">
        <ele>1200</ele>
        <time>2011-06-26T12:05:37Z</time>
      </trkpt>
      <trkpt lat="46.26762" lon="6.84096">
        <ele>1201</ele>
        <time>2011-06-26T12:05:48Z</time>
      </trkpt>
      <trkpt lat="46.26786" lon="6.84091">
        <ele>1196</ele>
        <time>2011-06-26T12:05:58Z</time>
      </trkpt>
      <trkpt lat="46.26814" lon="6.84048">
        <ele>1186</ele>
        <time>2011-06-26T12:06:08Z</time>
      </trkpt>
      <trkpt lat="46.26808" lon="6.84036">
        <ele>1188</ele>
        <time>2011-06-26T12:06:20Z</time>
      </trkpt>
      <trkpt lat="46.2681" lon="6.8404">
        <ele>1179</ele>
        <time>2011-06-26T12:06:34Z</time>
      </trkpt>
      <trkpt lat="46.26784" lon="6.8409">
        <ele>1177</ele>
        <time>2011-06-26T12:06:44Z</time>
      </trkpt>
      <trkpt lat="46.26776" lon="6.84098">
        <ele>1177</ele>
        <time>2011-06-26T12:06:54Z</time>
      </trkpt>
      <trkpt lat="46.26761" lon="6.84129">
        <ele>1178</ele>
        <time>2011-06-26T12:07:04Z</time>
      </trkpt>
      <trkpt lat="46.2672" lon="6.8413">
        <ele>1189</ele>
        <time>2011-06-26T12:07:14Z</time>
      </trkpt>
      <trkpt lat="46.26695" lon="6.84147">
        <ele>1205</ele>
        <time>2011-06-26T12:07:25Z</time>
      </trkpt>
      <trkpt lat="46.26722" lon="6.84165">
        <ele>1208</ele>
        <time>2011-06-26T12:07:35Z</time>
      </trkpt>
      <trkpt lat="46.26709" lon="6.8418">
        <ele>1208</ele>
        <time>2011-06-26T12:07:45Z</time>
      </trkpt>
      <trkpt lat="46.26691" lon="6.84191">
        <ele>1208</ele>
        <time>2011-06-26T12:07:55Z</time>
      </trkpt>
      <trkpt lat="46.26677" lon="6.84203">
        <ele>1208</ele>
        <time>2011-06-26T12:08:05Z</time>
      </trkpt>
      <trkpt lat="46.26662" lon="6.84209">
        <ele>1212</ele>
        <time>2011-06-26T12:08:15Z</time>
      </trkpt>
      <trkpt lat="46.26647" lon="6.84219">
        <ele>1220</ele>
        <time>2011-06-26T12:08:25Z</time>
      </trkpt>
      <trkpt lat="46.26647" lon="6.84238">
        <ele>1221</ele>
        <time>2011-06-26T12:08:35Z</time>
      </trkpt>
      <trkpt lat="46.2666" lon="6.8422">
        <ele>1223</ele>
        <time>2011-06-26T12:09:08Z</time>
      </trkpt>
      <trkpt lat="46.26656" lon="6.84226">
        <ele>1183</ele>
        <time>2011-06-26T12:09:42Z</time>
      </trkpt>
      <trkpt lat="46.26672" lon="6.84296">
        <ele>1192</ele>
        <time>2011-06-26T12:09:52Z</time>
      </trkpt>
      <trkpt lat="46.26681" lon="6.84365">
        <ele>1212</ele>
        <time>2011-06-26T12:10:03Z</time>
      </trkpt>
      <trkpt lat="46.26684" lon="6.84422">
        <ele>1234</ele>
        <time>2011-06-26T12:10:13Z</time>
      </trkpt>
      <trkpt lat="46.2668" lon="6.84472">
        <ele>1270</ele>
        <time>2011-06-26T12:10:23Z</time>
      </trkpt>
      <trkpt lat="46.26685" lon="6.8452">
        <ele>1306</ele>
        <time>2011-06-26T12:10:33Z</time>
      </trkpt>
      <trkpt lat="46.2669" lon="6.8457">
        <ele>1331</ele>
        <time>2011-06-26T12:10:43Z</time>
      </trkpt>
      <trkpt lat="46.26696" lon="6.84627">
        <ele>1361</ele>
        <time>2011-06-26T12:10:53Z</time>
      </trkpt>
      <trkpt lat="46.26698" lon="6.84673">
        <ele>1391</ele>
        <time>2011-06-26T12:11:03Z</time>
      </trkpt>
      <trkpt lat="46.26693" lon="6.84725">
        <ele>1429</ele>
        <time>2011-06-26T12:11:13Z</time>
      </trkpt>
      <trkpt lat="46.26701" lon="6.84776">
        <ele>1462</ele>
        <time>2011-06-26T12:11:23Z</time>
      </trkpt>
      <trkpt lat="46.26705" lon="6.84833">
        <ele>1480</ele>
        <time>2011-06-26T12:11:33Z</time>
      </trkpt>
      <trkpt lat="46.2671" lon="6.84897">
        <ele>1490</ele>
        <time>2011-06-26T12:11:43Z</time>
      </trkpt>
      <trkpt lat="46.26715" lon="6.8496">
        <ele>1500</ele>
        <time>2011-06-26T12:11:53Z</time>
      </trkpt>
      <trkpt lat="46.26716" lon="6.85021">
        <ele>1508</ele>
        <time>2011-06-26T12:12:03Z</time>
      </trkpt>
      <trkpt lat="46.26716" lon="6.85081">
        <ele>1508</ele>
        <time>2011-06-26T12:12:13Z</time>
      </trkpt>
      <trkpt lat="46.26722" lon="6.85147">
        <ele>1506</ele>
        <time>2011-06-26T12:12:23Z</time>
      </trkpt>
      <trkpt lat="46.26727" lon="6.85212">
        <ele>1513</ele>
        <time>2011-06-26T12:12:33Z</time>
      </trkpt>
      <trkpt lat="46.26731" lon="6.85277">
        <ele>1522</ele>
        <time>2011-06-26T12:12:43Z</time>
      </trkpt>
      <trkpt lat="46.26736" lon="6.85346">
        <ele>1531</ele>
        <time>2011-06-26T12:12:54Z</time>
      </trkpt>
      <trkpt lat="46.26739" lon="6.85409">
        <ele>1541</ele>
        <time>2011-06-26T12:13:04Z</time>
      </trkpt>
      <trkpt lat="46.26744" lon="6.85467">
        <ele>1549</ele>
        <time>2011-06-26T12:13:14Z</time>
      </trkpt>
      <trkpt lat="46.2675" lon="6.85525">
        <ele>1560</ele>
        <time>2011-06-26T12:13:24Z</time>
      </trkpt>
      <trkpt lat="46.26757" lon="6.85585">
        <ele>1580</ele>
        <time>2011-06-26T12:13:34Z</time>
      </trkpt>
      <trkpt lat="46.26757" lon="6.8564">
        <ele>1592</ele>
        <time>2011-06-26T12:13:44Z</time>
      </trkpt>
      <trkpt lat="46.26759" lon="6.85704">
        <ele>1606</ele>
        <time>2011-06-26T12:13:54Z</time>
      </trkpt>
      <trkpt lat="46.26762" lon="6.85734">
        <ele>1617</ele>
        <time>2011-06-26T12:14:05Z</time>
      </trkpt>
      <trkpt lat="46.26769" lon="6.85734">
        <ele>1620</ele>
        <time>2011-06-26T12:14:15Z</time>
      </trkpt>
      <trkpt lat="46.26768" lon="6.8575">
        <ele>1598</ele>
        <time>2011-06-26T12:14:25Z</time>
      </trkpt>
      <trkpt lat="46.26761" lon="6.8577">
        <ele>1588</ele>
        <time>2011-06-26T12:14:35Z</time>
      </trkpt>
      <trkpt lat="46.2676" lon="6.85786">
        <ele>1610</ele>
        <time>2011-06-26T12:14:45Z</time>
      </trkpt>
      <trkpt lat="46.26752" lon="6.85789">
        <ele>1627</ele>
        <time>2011-06-26T12:14:56Z</time>
      </trkpt>
      <trkpt lat="46.26723" lon="6.85779">
        <ele>1627</ele>
        <time>2011-06-26T12:15:06Z</time>
      </trkpt>
      <trkpt lat="46.26732" lon="6.85728">
        <ele>1625</ele>
        <time>2011-06-26T12:15:16Z</time>
      </trkpt>
      <trkpt lat="46.2678" lon="6.85668">
        <ele>1618</ele>
        <time>2011-06-26T12:15:26Z</time>
      </trkpt>
      <trkpt lat="46.26791" lon="6.85659">
        <ele>1615</ele>
        <time>2011-06-26T12:15:38Z</time>
      </trkpt>
      <trkpt lat="46.26795" lon="6.85656">
        <ele>1608</ele>
        <time>2011-06-26T12:15:48Z</time>
      </trkpt>
      <trkpt lat="46.26788" lon="6.85656">
        <ele>1604</ele>
        <time>2011-06-26T12:15:58Z</time>
      </trkpt>
      <trkpt lat="46.26793" lon="6.85663">
        <ele>1617</ele>
        <time>2011-06-26T12:16:08Z</time>
      </trkpt>
      <trkpt lat="46.26804" lon="6.85666">
        <ele>1621</ele>
        <time>2011-06-26T12:16:18Z</time>
      </trkpt>
      <trkpt lat="46.26816" lon="6.85671">
        <ele>1622</ele>
        <time>2011-06-26T12:16:28Z</time>
      </trkpt>
      <trkpt lat="46.26828" lon="6.85674">
        <ele>1625</ele>
        <time>2011-06-26T12:16:38Z</time>
      </trkpt>
      <trkpt lat="46.26841" lon="6.85679">
        <ele>1627</ele>
        <time>2011-06-26T12:16:48Z</time>
      </trkpt>
      <trkpt lat="46.26853" lon="6.85683">
        <ele>1629</ele>
        <time>2011-06-26T12:16:59Z</time>
      </trkpt>
      <trkpt lat="46.26865" lon="6.85687">
        <ele>1630</ele>
        <time>2011-06-26T12:17:10Z</time>
      </trkpt>
      <trkpt lat="46.26875" lon="6.85691">
        <ele>1630</ele>
        <time>2011-06-26T12:17:20Z</time>
      </trkpt>
      <trkpt lat="46.26886" lon="6.85694">
        <ele>1632</ele>
        <time>2011-06-26T12:17:30Z</time>
      </trkpt>
      <trkpt lat="46.26897" lon="6.85697">
        <ele>1632</ele>
        <time>2011-06-26T12:17:40Z</time>
      </trkpt>
      <trkpt lat="46.26907" lon="6.857">
        <ele>1634</ele>
        <time>2011-06-26T12:17:50Z</time>
      </trkpt>
      <trkpt lat="46.26919" lon="6.85704">
        <ele>1636</ele>
        <time>2011-06-26T12:18:01Z</time>
      </trkpt>
      <trkpt lat="46.26931" lon="6.85708">
        <ele>1637</ele>
        <time>2011-06-26T12:18:12Z</time>
      </trkpt>
      <trkpt lat="46.26942" lon="6.85711">
        <ele>1637</ele>
        <time>2011-06-26T12:18:22Z</time>
      </trkpt>
      <trkpt lat="46.26953" lon="6.85715">
        <ele>1638</ele>
        <time>2011-06-26T12:18:32Z</time>
      </trkpt>
      <trkpt lat="46.26964" lon="6.85718">
        <ele>1639</ele>
        <time>2011-06-26T12:18:43Z</time>
      </trkpt>
      <trkpt lat="46.26975" lon="6.85722">
        <ele>1643</ele>
        <time>2011-06-26T12:18:53Z</time>
      </trkpt>
      <trkpt lat="46.26985" lon="6.85724">
        <ele>1648</ele>
        <time>2011-06-26T12:19:04Z</time>
      </trkpt>
      <trkpt lat="46.26996" lon="6.85728">
        <ele>1652</ele>
        <time>2011-06-26T12:19:15Z</time>
      </trkpt>
      <trkpt lat="46.27006" lon="6.85732">
        <ele>1657</ele>
        <time>2011-06-26T12:19:25Z</time>
      </trkpt>
      <trkpt lat="46.27016" lon="6.85735">
        <ele>1663</ele>
        <time>2011-06-26T12:19:35Z</time>
      </trkpt>
      <trkpt lat="46.27026" lon="6.85738">
        <ele>1667</ele>
        <time>2011-06-26T12:19:45Z</time>
      </trkpt>
      <trkpt lat="46.27037" lon="6.85742">
        <ele>1673</ele>
        <time>2011-06-26T12:19:56Z</time>
      </trkpt>
      <trkpt lat="46.27045" lon="6.85745">
        <ele>1680</ele>
        <time>2011-06-26T12:20:06Z</time>
      </trkpt>
      <trkpt lat="46.27055" lon="6.85747">
        <ele>1688</ele>
        <time>2011-06-26T12:20:16Z</time>
      </trkpt>
      <trkpt lat="46.27065" lon="6.8575">
        <ele>1696</ele>
        <time>2011-06-26T12:20:27Z</time>
      </trkpt>
      <trkpt lat="46.27075" lon="6.85753">
        <ele>1702</ele>
        <time>2011-06-26T12:20:37Z</time>
      </trkpt>
      <trkpt lat="46.27085" lon="6.85754">
        <ele>1708</ele>
        <time>2011-06-26T12:20:48Z</time>
      </trkpt>
      <trkpt lat="46.27095" lon="6.85757">
        <ele>1713</ele>
        <time>2011-06-26T12:20:59Z</time>
      </trkpt>
      <trkpt lat="46.27105" lon="6.8576">
        <ele>1717</ele>
        <time>2011-06-26T12:21:09Z</time>
      </trkpt>
      <trkpt lat="46.27114" lon="6.85764">
        <ele>1721</ele>
        <time>2011-06-26T12:21:19Z</time>
      </trkpt>
      <trkpt lat="46.27124" lon="6.85768">
        <ele>1726</ele>
        <time>2011-06-26T12:21:29Z</time>
      </trkpt>
      <trkpt lat="46.27134" lon="6.85772">
        <ele>1731</ele>
        <time>2011-06-26T12:21:39Z</time>
      </trkpt>
      <trkpt lat="46.27143" lon="6.85776">
        <ele>1735</ele>
        <time>2011-06-26T12:21:49Z</time>
      </trkpt>
      <trkpt lat="46.27153" lon="6.85779">
        <ele>1739</ele>
        <time>2011-06-26T12:21:59Z</time>
      </trkpt>
      <trkpt lat="46.27163" lon="6.85782">
        <ele>1743</ele>
        <time>2011-06-26T12:22:09Z</time>
      </trkpt>
      <trkpt lat="46.27175" lon="6.85787">
        <ele>1748</ele>
        <time>2011-06-26T12:22:20Z</time>
      </trkpt>
      <trkpt lat="46.27187" lon="6.85791">
        <ele>1752</ele>
        <time>2011-06-26T12:22:31Z</time>
      </trkpt>
      <trkpt lat="46.27198" lon="6.85795">
        <ele>1755</ele>
        <time>2011-06-26T12:22:42Z</time>
      </trkpt>
      <trkpt lat="46.27208" lon="6.85799">
        <ele>1759</ele>
        <time>2011-06-26T12:22:52Z</time>
      </trkpt>
      <trkpt lat="46.27218" lon="6.85803">
        <ele>1762</ele>
        <time>2011-06-26T12:23:02Z</time>
      </trkpt>
      <trkpt lat="46.2723" lon="6.85807">
        <ele>1765</ele>
        <time>2011-06-26T12:23:12Z</time>
      </trkpt>
      <trkpt lat="46.27241" lon="6.85808">
        <ele>1768</ele>
        <time>2011-06-26T12:23:23Z</time>
      </trkpt>
      <trkpt lat="46.27251" lon="6.85812">
        <ele>1773</ele>
        <time>2011-06-26T12:23:34Z</time>
      </trkpt>
      <trkpt lat="46.27259" lon="6.85815">
        <ele>1780</ele>
        <time>2011-06-26T12:23:44Z</time>
      </trkpt>
      <trkpt lat="46.27268" lon="6.85819">
        <ele>1784</ele>
        <time>2011-06-26T12:23:54Z</time>
      </trkpt>
      <trkpt lat="46.27277" lon="6.85822">
        <ele>1793</ele>
        <time>2011-06-26T12:24:05Z</time>
      </trkpt>
      <trkpt lat="46.27286" lon="6.85824">
        <ele>1798</ele>
        <time>2011-06-26T12:24:15Z</time>
      </trkpt>
      <trkpt lat="46.27297" lon="6.85828">
        <ele>1801</ele>
        <time>2011-06-26T12:24:25Z</time>
      </trkpt>
      <trkpt lat="46.27306" lon="6.85831">
        <ele>1806</ele>
        <time>2011-06-26T12:24:35Z</time>
      </trkpt>
      <trkpt lat="46.27316" lon="6.85834">
        <ele>1812</ele>
        <time>2011-06-26T12:24:45Z</time>
      </trkpt>
      <trkpt lat="46.27324" lon="6.85837">
        <ele>1819</ele>
        <time>2011-06-26T12:24:55Z</time>
      </trkpt>
      <trkpt lat="46.27333" lon="6.8584">
        <ele>1825</ele>
        <time>2011-06-26T12:25:05Z</time>
      </trkpt>
      <trkpt lat="46.27344" lon="6.85844">
        <ele>1831</ele>
        <time>2011-06-26T12:25:15Z</time>
      </trkpt>
      <trkpt lat="46.27355" lon="6.85848">
        <ele>1837</ele>
        <time>2011-06-26T12:25:25Z</time>
      </trkpt>
      <trkpt lat="46.27365" lon="6.85851">
        <ele>1843</ele>
        <time>2011-06-26T12:25:36Z</time>
      </trkpt>
      <trkpt lat="46.27375" lon="6.85853">
        <ele>1849</ele>
        <time>2011-06-26T12:25:46Z</time>
      </trkpt>
      <trkpt lat="46.27385" lon="6.85857">
        <ele>1855</ele>
        <time>2011-06-26T12:25:56Z</time>
      </trkpt>
      <trkpt lat="46.27394" lon="6.8586">
        <ele>1861</ele>
        <time>2011-06-26T12:26:06Z</time>
      </trkpt>
      <trkpt lat="46.27404" lon="6.85864">
        <ele>1866</ele>
        <time>2011-06-26T12:26:16Z</time>
      </trkpt>
      <trkpt lat="46.27412" lon="6.85867">
        <ele>1872</ele>
        <time>2011-06-26T12:26:26Z</time>
      </trkpt>
      <trkpt lat="46.27421" lon="6.85869">
        <ele>1878</ele>
        <time>2011-06-26T12:26:36Z</time>
      </trkpt>
      <trkpt lat="46.2743" lon="6.85872">
        <ele>1885</ele>
        <time>2011-06-26T12:26:46Z</time>
      </trkpt>
      <trkpt lat="46.27438" lon="6.85875">
        <ele>1893</ele>
        <time>2011-06-26T12:26:56Z</time>
      </trkpt>
      <trkpt lat="46.27449" lon="6.8588">
        <ele>1900</ele>
        <time>2011-06-26T12:27:06Z</time>
      </trkpt>
      <trkpt lat="46.27461" lon="6.85882">
        <ele>1904</ele>
        <time>2011-06-26T12:27:16Z</time>
      </trkpt>
      <trkpt lat="46.27473" lon="6.85884">
        <ele>1908</ele>
        <time>2011-06-26T12:27:27Z</time>
      </trkpt>
      <trkpt lat="46.27482" lon="6.85886">
        <ele>1914</ele>
        <time>2011-06-26T12:27:37Z</time>
      </trkpt>
      <trkpt lat="46.27493" lon="6.85889">
        <ele>1921</ele>
        <time>2011-06-26T12:27:49Z</time>
      </trkpt>
      <trkpt lat="46.27503" lon="6.85892">
        <ele>1924</ele>
        <time>2011-06-26T12:27:59Z</time>
      </trkpt>
      <trkpt lat="46.27514" lon="6.85896">
        <ele>1927</ele>
        <time>2011-06-26T12:28:09Z</time>
      </trkpt>
      <trkpt lat="46.27525" lon="6.859">
        <ele>1932</ele>
        <time>2011-06-26T12:28:20Z</time>
      </trkpt>
      <trkpt lat="46.27535" lon="6.85905">
        <ele>1937</ele>
        <time>2011-06-26T12:28:30Z</time>
      </trkpt>
      <trkpt lat="46.27545" lon="6.85908">
        <ele>1942</ele>
        <time>2011-06-26T12:28:40Z</time>
      </trkpt>
      <trkpt lat="46.27555" lon="6.85912">
        <ele>1947</ele>
        <time>2011-06-26T12:28:50Z</time>
      </trkpt>
      <trkpt lat="46.27566" lon="6.85915">
        <ele>1953</ele>
        <time>2011-06-26T12:29:01Z</time>
      </trkpt>
      <trkpt lat="46.27576" lon="6.85918">
        <ele>1957</ele>
        <time>2011-06-26T12:29:11Z</time>
      </trkpt>
      <trkpt lat="46.27587" lon="6.85922">
        <ele>1961</ele>
        <time>2011-06-26T12:29:22Z</time>
      </trkpt>
      <trkpt lat="46.27598" lon="6.85925">
        <ele>1964</ele>
        <time>2011-06-26T12:29:32Z</time>
      </trkpt>
      <trkpt lat="46.2761" lon="6.85929">
        <ele>1966</ele>
        <time>2011-06-26T12:29:44Z</time>
      </trkpt>
      <trkpt lat="46.27621" lon="6.85933">
        <ele>1966</ele>
        <time>2011-06-26T12:29:54Z</time>
      </trkpt>
      <trkpt lat="46.27631" lon="6.85936">
        <ele>1966</ele>
        <time>2011-06-26T12:30:04Z</time>
      </trkpt>
      <trkpt lat="46.27639" lon="6.85948">
        <ele>1968</ele>
        <time>2011-06-26T12:30:21Z</time>
      </trkpt>
      <trkpt lat="46.27636" lon="6.85948">
        <ele>1969</ele>
        <time>2011-06-26T12:30:51Z</time>
      </trkpt>
      <trkpt lat="46.27642" lon="6.85944">
        <ele>1969</ele>
        <time>2011-06-26T12:31:01Z</time>
      </trkpt>
      <trkpt lat="46.2764" lon="6.85951">
        <ele>1969</ele>
        <time>2011-06-26T12:31:15Z</time>
      </trkpt>
      <trkpt lat="46.27643" lon="6.85962">
        <ele>1969</ele>
        <time>2011-06-26T12:31:28Z</time>
      </trkpt>
      <trkpt lat="46.27633" lon="6.85991">
        <ele>1969</ele>
        <time>2011-06-26T12:31:38Z</time>
      </trkpt>
      <trkpt lat="46.27641" lon="6.86068">
        <ele>1967</ele>
        <time>2011-06-26T12:31:48Z</time>
      </trkpt>
      <trkpt lat="46.27682" lon="6.86139">
        <ele>1961</ele>
        <time>2011-06-26T12:31:58Z</time>
      </trkpt>
      <trkpt lat="46.2774" lon="6.86182">
        <ele>1952</ele>
        <time>2011-06-26T12:32:08Z</time>
      </trkpt>
      <trkpt lat="46.27798" lon="6.86232">
        <ele>1940</ele>
        <time>2011-06-26T12:32:18Z</time>
      </trkpt>
      <trkpt lat="46.27849" lon="6.86291">
        <ele>1924</ele>
        <time>2011-06-26T12:32:28Z</time>
      </trkpt>
      <trkpt lat="46.27868" lon="6.86319">
        <ele>1914</ele>
        <time>2011-06-26T12:32:38Z</time>
      </trkpt>
      <trkpt lat="46.27864" lon="6.86332">
        <ele>1913</ele>
        <time>2011-06-26T12:32:48Z</time>
      </trkpt>
      <trkpt lat="46.27866" lon="6.86389">
        <ele>1912</ele>
        <time>2011-06-26T12:32:59Z</time>
      </trkpt>
      <trkpt lat="46.27879" lon="6.86478">
        <ele>1905</ele>
        <time>2011-06-26T12:33:10Z</time>
      </trkpt>
      <trkpt lat="46.27891" lon="6.86561">
        <ele>1896</ele>
        <time>2011-06-26T12:33:21Z</time>
      </trkpt>
      <trkpt lat="46.27894" lon="6.86608">
        <ele>1887</ele>
        <time>2011-06-26T12:33:31Z</time>
      </trkpt>
      <trkpt lat="46.27898" lon="6.8663">
        <ele>1880</ele>
        <time>2011-06-26T12:33:42Z</time>
      </trkpt>
      <trkpt lat="46.27906" lon="6.86663">
        <ele>1864</ele>
        <time>2011-06-26T12:33:58Z</time>
      </trkpt>
      <trkpt lat="46.2791" lon="6.86676">
        <ele>1860</ele>
        <time>2011-06-26T12:34:08Z</time>
      </trkpt>
      <trkpt lat="46.27914" lon="6.86684">
        <ele>1857</ele>
        <time>2011-06-26T12:34:21Z</time>
      </trkpt>
      <trkpt lat="46.2794" lon="6.86691">
        <ele>1853</ele>
        <time>2011-06-26T12:34:32Z</time>
      </trkpt>
      <trkpt lat="46.27951" lon="6.86695">
        <ele>1849</ele>
        <time>2011-06-26T12:34:42Z</time>
      </trkpt>
      <trkpt lat="46.27966" lon="6.86702">
        <ele>1846</ele>
        <time>2011-06-26T12:34:53Z</time>
      </trkpt>
      <trkpt lat="46.28002" lon="6.8672">
        <ele>1839</ele>
        <time>2011-06-26T12:35:03Z</time>
      </trkpt>
      <trkpt lat="46.28041" lon="6.8673">
        <ele>1837</ele>
        <time>2011-06-26T12:35:13Z</time>
      </trkpt>
      <trkpt lat="46.28079" lon="6.86754">
        <ele>1836</ele>
        <time>2011-06-26T12:35:23Z</time>
      </trkpt>
      <trkpt lat="46.28113" lon="6.86744">
        <ele>1832</ele>
        <time>2011-06-26T12:35:34Z</time>
      </trkpt>
      <trkpt lat="46.28146" lon="6.86734">
        <ele>1830</ele>
        <time>2011-06-26T12:35:46Z</time>
      </trkpt>
      <trkpt lat="46.28169" lon="6.86738">
        <ele>1830</ele>
        <time>2011-06-26T12:35:56Z</time>
      </trkpt>
      <trkpt lat="46.28199" lon="6.86749">
        <ele>1829</ele>
        <time>2011-06-26T12:36:06Z</time>
      </trkpt>
      <trkpt lat="46.28232" lon="6.8677">
        <ele>1824</ele>
        <time>2011-06-26T12:36:17Z</time>
      </trkpt>
      <trkpt lat="46.28254" lon="6.86796">
        <ele>1824</ele>
        <time>2011-06-26T12:36:28Z</time>
      </trkpt>
      <trkpt lat="46.28265" lon="6.86816">
        <ele>1824</ele>
        <time>2011-06-26T12:36:38Z</time>
      </trkpt>
      <trkpt lat="46.28269" lon="6.86811">
        <ele>1824</ele>
        <time>2011-06-26T12:36:49Z</time>
      </trkpt>
      <trkpt lat="46.28271" lon="6.86789">
        <ele>1824</ele>
        <time>2011-06-26T12:36:59Z</time>
      </trkpt>
      <trkpt lat="46.28275" lon="6.86769">
        <ele>1829</ele>
        <time>2011-06-26T12:37:10Z</time>
      </trkpt>
      <trkpt lat="46.28278" lon="6.8676">
        <ele>1833</ele>
        <time>2011-06-26T12:37:22Z</time>
      </trkpt>
      <trkpt lat="46.28281" lon="6.86751">
        <ele>1837</ele>
        <time>2011-06-26T12:37:33Z</time>
      </trkpt>
      <trkpt lat="46.28283" lon="6.86743">
        <ele>1839</ele>
        <time>2011-06-26T12:37:43Z</time>
      </trkpt>
      <trkpt lat="46.28283" lon="6.86733">
        <ele>1842</ele>
        <time>2011-06-26T12:37:55Z</time>
      </trkpt>
      <trkpt lat="46.28281" lon="6.86725">
        <ele>1843</ele>
        <time>2011-06-26T12:38:05Z</time>
      </trkpt>
      <trkpt lat="46.28278" lon="6.86716">
        <ele>1845</ele>
        <time>2011-06-26T12:38:16Z</time>
      </trkpt>
      <trkpt lat="46.28275" lon="6.867">
        <ele>1847</ele>
        <time>2011-06-26T12:38:27Z</time>
      </trkpt>
      <trkpt lat="46.28273" lon="6.86691">
        <ele>1849</ele>
        <time>2011-06-26T12:38:37Z</time>
      </trkpt>
      <trkpt lat="46.28272" lon="6.86681">
        <ele>1851</ele>
        <time>2011-06-26T12:38:49Z</time>
      </trkpt>
      <trkpt lat="46.28271" lon="6.86672">
        <ele>1852</ele>
        <time>2011-06-26T12:38:59Z</time>
      </trkpt>
      <trkpt lat="46.2827" lon="6.86664">
        <ele>1854</ele>
        <time>2011-06-26T12:39:09Z</time>
      </trkpt>
      <trkpt lat="46.28268" lon="6.86646">
        <ele>1857</ele>
        <time>2011-06-26T12:39:20Z</time>
      </trkpt>
      <trkpt lat="46.28275" lon="6.86641">
        <ele>1858</ele>
        <time>2011-06-26T12:39:31Z</time>
      </trkpt>
      <trkpt lat="46.28286" lon="6.8664">
        <ele>1864</ele>
        <time>2011-06-26T12:39:41Z</time>
      </trkpt>
      <trkpt lat="46.28294" lon="6.86638">
        <ele>1867</ele>
        <time>2011-06-26T12:39:53Z</time>
      </trkpt>
      <trkpt lat="46.28304" lon="6.86626">
        <ele>1871</ele>
        <time>2011-06-26T12:40:05Z</time>
      </trkpt>
      <trkpt lat="46.2831" lon="6.86618">
        <ele>1872</ele>
        <time>2011-06-26T12:40:15Z</time>
      </trkpt>
      <trkpt lat="46.28318" lon="6.86614">
        <ele>1874</ele>
        <time>2011-06-26T12:40:25Z</time>
      </trkpt>
      <trkpt lat="46.28326" lon="6.8661">
        <ele>1876</ele>
        <time>2011-06-26T12:40:36Z</time>
      </trkpt>
      <trkpt lat="46.2833" lon="6.86603">
        <ele>1878</ele>
        <time>2011-06-26T12:40:46Z</time>
      </trkpt>
      <trkpt lat="46.28334" lon="6.86596">
        <ele>1880</ele>
        <time>2011-06-26T12:40:57Z</time>
      </trkpt>
      <trkpt lat="46.28334" lon="6.86587">
        <ele>1882</ele>
        <time>2011-06-26T12:41:07Z</time>
      </trkpt>
      <trkpt lat="46.28334" lon="6.86574">
        <ele>1884</ele>
        <time>2011-06-26T12:41:17Z</time>
      </trkpt>
      <trkpt lat="46.28338" lon="6.86563">
        <ele>1886</ele>
        <time>2011-06-26T12:41:28Z</time>
      </trkpt>
      <trkpt lat="46.28344" lon="6.86555">
        <ele>1889</ele>
        <time>2011-06-26T12:41:38Z</time>
      </trkpt>
      <trkpt lat="46.28348" lon="6.86543">
        <ele>1892</ele>
        <time>2011-06-26T12:41:50Z</time>
      </trkpt>
      <trkpt lat="46.2835" lon="6.86534">
        <ele>1895</ele>
        <time>2011-06-26T12:42:00Z</time>
      </trkpt>
      <trkpt lat="46.28352" lon="6.86524">
        <ele>1897</ele>
        <time>2011-06-26T12:42:10Z</time>
      </trkpt>
      <trkpt lat="46.28354" lon="6.86512">
        <ele>1899</ele>
        <time>2011-06-26T12:42:20Z</time>
      </trkpt>
      <trkpt lat="46.28355" lon="6.86501">
        <ele>1900</ele>
        <time>2011-06-26T12:42:30Z</time>
      </trkpt>
      <trkpt lat="46.28356" lon="6.86492">
        <ele>1902</ele>
        <time>2011-06-26T12:42:42Z</time>
      </trkpt>
      <trkpt lat="46.28356" lon="6.86482">
        <ele>1904</ele>
        <time>2011-06-26T12:42:52Z</time>
      </trkpt>
      <trkpt lat="46.28356" lon="6.86474">
        <ele>1906</ele>
        <time>2011-06-26T12:43:03Z</time>
      </trkpt>
      <trkpt lat="46.28355" lon="6.86462">
        <ele>1908</ele>
        <time>2011-06-26T12:43:13Z</time>
      </trkpt>
      <trkpt lat="46.28356" lon="6.86448">
        <ele>1910</ele>
        <time>2011-06-26T12:43:23Z</time>
      </trkpt>
      <trkpt lat="46.28357" lon="6.86433">
        <ele>1912</ele>
        <time>2011-06-26T12:43:34Z</time>
      </trkpt>
      <trkpt lat="46.2836" lon="6.86415">
        <ele>1913</ele>
        <time>2011-06-26T12:43:44Z</time>
      </trkpt>
      <trkpt lat="46.28357" lon="6.86399">
        <ele>1913</ele>
        <time>2011-06-26T12:43:55Z</time>
      </trkpt>
      <trkpt lat="46.28363" lon="6.8638">
        <ele>1915</ele>
        <time>2011-06-26T12:44:06Z</time>
      </trkpt>
      <trkpt lat="46.28387" lon="6.86361">
        <ele>1912</ele>
        <time>2011-06-26T12:44:16Z</time>
      </trkpt>
      <trkpt lat="46.28415" lon="6.86349">
        <ele>1907</ele>
        <time>2011-06-26T12:44:26Z</time>
      </trkpt>
      <trkpt lat="46.28435" lon="6.86329">
        <ele>1907</ele>
        <time>2011-06-26T12:44:36Z</time>
      </trkpt>
      <trkpt lat="46.28441" lon="6.86321">
        <ele>1907</ele>
        <time>2011-06-26T12:44:49Z</time>
      </trkpt>
      <trkpt lat="46.28449" lon="6.86317">
        <ele>1907</ele>
        <time>2011-06-26T12:44:59Z</time>
      </trkpt>
      <trkpt lat="46.28459" lon="6.8631">
        <ele>1907</ele>
        <time>2011-06-26T12:45:09Z</time>
      </trkpt>
      <trkpt lat="46.28468" lon="6.86303">
        <ele>1908</ele>
        <time>2011-06-26T12:45:21Z</time>
      </trkpt>
      <trkpt lat="46.28482" lon="6.86298">
        <ele>1909</ele>
        <time>2011-06-26T12:45:31Z</time>
      </trkpt>
      <trkpt lat="46.2851" lon="6.86291">
        <ele>1909</ele>
        <time>2011-06-26T12:45:41Z</time>
      </trkpt>
      <trkpt lat="46.28534" lon="6.86263">
        <ele>1905</ele>
        <time>2011-06-26T12:45:51Z</time>
      </trkpt>
      <trkpt lat="46.28547" lon="6.86249">
        <ele>1905</ele>
        <time>2011-06-26T12:46:01Z</time>
      </trkpt>
      <trkpt lat="46.2856" lon="6.86232">
        <ele>1905</ele>
        <time>2011-06-26T12:46:11Z</time>
      </trkpt>
      <trkpt lat="46.28573" lon="6.86218">
        <ele>1907</ele>
        <time>2011-06-26T12:46:22Z</time>
      </trkpt>
      <trkpt lat="46.28585" lon="6.86202">
        <ele>1907</ele>
        <time>2011-06-26T12:46:32Z</time>
      </trkpt>
      <trkpt lat="46.28598" lon="6.86185">
        <ele>1909</ele>
        <time>2011-06-26T12:46:42Z</time>
      </trkpt>
      <trkpt lat="46.2862" lon="6.86143">
        <ele>1909</ele>
        <time>2011-06-26T12:46:52Z</time>
      </trkpt>
      <trkpt lat="46.28627" lon="6.86102">
        <ele>1909</ele>
        <time>2011-06-26T12:47:02Z</time>
      </trkpt>
      <trkpt lat="46.2864" lon="6.86061">
        <ele>1909</ele>
        <time>2011-06-26T12:47:12Z</time>
      </trkpt>
      <trkpt lat="46.28661" lon="6.86047">
        <ele>1909</ele>
        <time>2011-06-26T12:47:22Z</time>
      </trkpt>
      <trkpt lat="46.28689" lon="6.86026">
        <ele>1909</ele>
        <time>2011-06-26T12:47:32Z</time>
      </trkpt>
      <trkpt lat="46.28722" lon="6.85975">
        <ele>1907</ele>
        <time>2011-06-26T12:47:42Z</time>
      </trkpt>
      <trkpt lat="46.28751" lon="6.85916">
        <ele>1902</ele>
        <time>2011-06-26T12:47:52Z</time>
      </trkpt>
      <trkpt lat="46.28765" lon="6.85843">
        <ele>1898</ele>
        <time>2011-06-26T12:48:02Z</time>
      </trkpt>
      <trkpt lat="46.28779" lon="6.85805">
        <ele>1895</ele>
        <time>2011-06-26T12:48:12Z</time>
      </trkpt>
      <trkpt lat="46.28809" lon="6.85764">
        <ele>1893</ele>
        <time>2011-06-26T12:48:23Z</time>
      </trkpt>
      <trkpt lat="46.28842" lon="6.8572">
        <ele>1891</ele>
        <time>2011-06-26T12:48:33Z</time>
      </trkpt>
      <trkpt lat="46.28872" lon="6.85676">
        <ele>1889</ele>
        <time>2011-06-26T12:48:43Z</time>
      </trkpt>
      <trkpt lat="46.28894" lon="6.85651">
        <ele>1885</ele>
        <time>2011-06-26T12:48:53Z</time>
      </trkpt>
      <trkpt lat="46.28914" lon="6.85623">
        <ele>1881</ele>
        <time>2011-06-26T12:49:03Z</time>
      </trkpt>
      <trkpt lat="46.28943" lon="6.85597">
        <ele>1877</ele>
        <time>2011-06-26T12:49:14Z</time>
      </trkpt>
      <trkpt lat="46.28963" lon="6.85541">
        <ele>1874</ele>
        <time>2011-06-26T12:49:24Z</time>
      </trkpt>
      <trkpt lat="46.28951" lon="6.85469">
        <ele>1872</ele>
        <time>2011-06-26T12:49:34Z</time>
      </trkpt>
      <trkpt lat="46.28944" lon="6.85381">
        <ele>1867</ele>
        <time>2011-06-26T12:49:44Z</time>
      </trkpt>
      <trkpt lat="46.28931" lon="6.8536">
        <ele>1868</ele>
        <time>2011-06-26T12:49:54Z</time>
      </trkpt>
      <trkpt lat="46.28918" lon="6.8534">
        <ele>1872</ele>
        <time>2011-06-26T12:50:04Z</time>
      </trkpt>
      <trkpt lat="46.28899" lon="6.85316">
        <ele>1873</ele>
        <time>2011-06-26T12:50:14Z</time>
      </trkpt>
      <trkpt lat="46.28885" lon="6.85294">
        <ele>1876</ele>
        <time>2011-06-26T12:50:44Z</time>
      </trkpt>
      <trkpt lat="46.2888" lon="6.85254">
        <ele>1875</ele>
        <time>2011-06-26T12:50:54Z</time>
      </trkpt>
      <trkpt lat="46.28886" lon="6.85193">
        <ele>1871</ele>
        <time>2011-06-26T12:51:04Z</time>
      </trkpt>
      <trkpt lat="46.28897" lon="6.85118">
        <ele>1864</ele>
        <time>2011-06-26T12:51:14Z</time>
      </trkpt>
      <trkpt lat="46.2891" lon="6.84999">
        <ele>1857</ele>
        <time>2011-06-26T12:51:24Z</time>
      </trkpt>
      <trkpt lat="46.28923" lon="6.84887">
        <ele>1850</ele>
        <time>2011-06-26T12:51:34Z</time>
      </trkpt>
      <trkpt lat="46.28932" lon="6.84771">
        <ele>1843</ele>
        <time>2011-06-26T12:51:44Z</time>
      </trkpt>
      <trkpt lat="46.28949" lon="6.84686">
        <ele>1838</ele>
        <time>2011-06-26T12:51:54Z</time>
      </trkpt>
      <trkpt lat="46.29008" lon="6.84638">
        <ele>1832</ele>
        <time>2011-06-26T12:52:04Z</time>
      </trkpt>
      <trkpt lat="46.29054" lon="6.8459">
        <ele>1823</ele>
        <time>2011-06-26T12:52:14Z</time>
      </trkpt>
      <trkpt lat="46.29089" lon="6.84582">
        <ele>1812</ele>
        <time>2011-06-26T12:52:28Z</time>
      </trkpt>
      <trkpt lat="46.29074" lon="6.8469">
        <ele>1801</ele>
        <time>2011-06-26T12:52:39Z</time>
      </trkpt>
      <trkpt lat="46.29086" lon="6.84788">
        <ele>1791</ele>
        <time>2011-06-26T12:52:49Z</time>
      </trkpt>
      <trkpt lat="46.29097" lon="6.84723">
        <ele>1781</ele>
        <time>2011-06-26T12:52:59Z</time>
      </trkpt>
      <trkpt lat="46.29108" lon="6.84704">
        <ele>1772</ele>
        <time>2011-06-26T12:53:09Z</time>
      </trkpt>
      <trkpt lat="46.29126" lon="6.84757">
        <ele>1763</ele>
        <time>2011-06-26T12:53:19Z</time>
      </trkpt>
      <trkpt lat="46.29146" lon="6.84803">
        <ele>1753</ele>
        <time>2011-06-26T12:53:29Z</time>
      </trkpt>
      <trkpt lat="46.29165" lon="6.84847">
        <ele>1742</ele>
        <time>2011-06-26T12:53:39Z</time>
      </trkpt>
      <trkpt lat="46.29195" lon="6.8488">
        <ele>1731</ele>
        <time>2011-06-26T12:53:49Z</time>
      </trkpt>
      <trkpt lat="46.29233" lon="6.84909">
        <ele>1719</ele>
        <time>2011-06-26T12:53:59Z</time>
      </trkpt>
      <trkpt lat="46.29266" lon="6.84933">
        <ele>1708</ele>
        <time>2011-06-26T12:54:09Z</time>
      </trkpt>
      <trkpt lat="46.29247" lon="6.8489">
        <ele>1699</ele>
        <time>2011-06-26T12:54:19Z</time>
      </trkpt>
      <trkpt lat="46.29248" lon="6.84843">
        <ele>1692</ele>
        <time>2011-06-26T12:54:29Z</time>
      </trkpt>
      <trkpt lat="46.29263" lon="6.8479">
        <ele>1682</ele>
        <time>2011-06-26T12:54:39Z</time>
      </trkpt>
      <trkpt lat="46.29298" lon="6.84807">
        <ele>1672</ele>
        <time>2011-06-26T12:54:49Z</time>
      </trkpt>
      <trkpt lat="46.29349" lon="6.8485">
        <ele>1662</ele>
        <time>2011-06-26T12:54:59Z</time>
      </trkpt>
      <trkpt lat="46.29394" lon="6.8488">
        <ele>1652</ele>
        <time>2011-06-26T12:55:09Z</time>
      </trkpt>
      <trkpt lat="46.29417" lon="6.84909">
        <ele>1642</ele>
        <time>2011-06-26T12:55:19Z</time>
      </trkpt>
      <trkpt lat="46.29463" lon="6.84916">
        <ele>1632</ele>
        <time>2011-06-26T12:55:29Z</time>
      </trkpt>
      <trkpt lat="46.2949" lon="6.84849">
        <ele>1624</ele>
        <time>2011-06-26T12:55:39Z</time>
      </trkpt>
      <trkpt lat="46.295" lon="6.84863">
        <ele>1617</ele>
        <time>2011-06-26T12:55:49Z</time>
      </trkpt>
      <trkpt lat="46.29514" lon="6.84917">
        <ele>1607</ele>
        <time>2011-06-26T12:55:59Z</time>
      </trkpt>
      <trkpt lat="46.29542" lon="6.84989">
        <ele>1597</ele>
        <time>2011-06-26T12:56:09Z</time>
      </trkpt>
      <trkpt lat="46.29588" lon="6.85033">
        <ele>1588</ele>
        <time>2011-06-26T12:56:19Z</time>
      </trkpt>
      <trkpt lat="46.29618" lon="6.8506">
        <ele>1580</ele>
        <time>2011-06-26T12:56:29Z</time>
      </trkpt>
      <trkpt lat="46.29653" lon="6.85081">
        <ele>1570</ele>
        <time>2011-06-26T12:56:39Z</time>
      </trkpt>
      <trkpt lat="46.29676" lon="6.85085">
        <ele>1560</ele>
        <time>2011-06-26T12:56:49Z</time>
      </trkpt>
      <trkpt lat="46.29654" lon="6.8503">
        <ele>1555</ele>
        <time>2011-06-26T12:56:59Z</time>
      </trkpt>
      <trkpt lat="46.29666" lon="6.8502">
        <ele>1551</ele>
        <time>2011-06-26T12:57:09Z</time>
      </trkpt>
      <trkpt lat="46.29704" lon="6.85038">
        <ele>1544</ele>
        <time>2011-06-26T12:57:19Z</time>
      </trkpt>
      <trkpt lat="46.2974" lon="6.85084">
        <ele>1535</ele>
        <time>2011-06-26T12:57:29Z</time>
      </trkpt>
      <trkpt lat="46.29773" lon="6.8513">
        <ele>1527</ele>
        <time>2011-06-26T12:57:39Z</time>
      </trkpt>
      <trkpt lat="46.298" lon="6.85144">
        <ele>1518</ele>
        <time>2011-06-26T12:57:49Z</time>
      </trkpt>
      <trkpt lat="46.29799" lon="6.85082">
        <ele>1510</ele>
        <time>2011-06-26T12:57:59Z</time>
      </trkpt>
      <trkpt lat="46.29802" lon="6.85018">
        <ele>1501</ele>
        <time>2011-06-26T12:58:09Z</time>
      </trkpt>
      <trkpt lat="46.2983" lon="6.85037">
        <ele>1494</ele>
        <time>2011-06-26T12:58:19Z</time>
      </trkpt>
      <trkpt lat="46.29853" lon="6.85098">
        <ele>1490</ele>
        <time>2011-06-26T12:58:29Z</time>
      </trkpt>
      <trkpt lat="46.29888" lon="6.85147">
        <ele>1483</ele>
        <time>2011-06-26T12:58:39Z</time>
      </trkpt>
      <trkpt lat="46.29924" lon="6.8519">
        <ele>1476</ele>
        <time>2011-06-26T12:58:49Z</time>
      </trkpt>
      <trkpt lat="46.29946" lon="6.85201">
        <ele>1469</ele>
        <time>2011-06-26T12:58:59Z</time>
      </trkpt>
      <trkpt lat="46.29931" lon="6.85134">
        <ele>1463</ele>
        <time>2011-06-26T12:59:09Z</time>
      </trkpt>
      <trkpt lat="46.29924" lon="6.85057">
        <ele>1453</ele>
        <time>2011-06-26T12:59:19Z</time>
      </trkpt>
      <trkpt lat="46.29953" lon="6.85021">
        <ele>1445</ele>
        <time>2011-06-26T12:59:29Z</time>
      </trkpt>
      <trkpt lat="46.29992" lon="6.85067">
        <ele>1437</ele>
        <time>2011-06-26T12:59:39Z</time>
      </trkpt>
      <trkpt lat="46.30047" lon="6.85063">
        <ele>1427</ele>
        <time>2011-06-26T12:59:49Z</time>
      </trkpt>
      <trkpt lat="46.30087" lon="6.85034">
        <ele>1418</ele>
        <time>2011-06-26T12:59:59Z</time>
      </trkpt>
      <trkpt lat="46.30097" lon="6.8509">
        <ele>1410</ele>
        <time>2011-06-26T13:00:09Z</time>
      </trkpt>
      <trkpt lat="46.30137" lon="6.85085">
        <ele>1401</ele>
        <time>2011-06-26T13:00:19Z</time>
      </trkpt>
      <trkpt lat="46.30185" lon="6.85099">
        <ele>1391</ele>
        <time>2011-06-26T13:00:29Z</time>
      </trkpt>
      <trkpt lat="46.30219" lon="6.85123">
        <ele>1384</ele>
        <time>2011-06-26T13:00:39Z</time>
      </trkpt>
      <trkpt lat="46.30241" lon="6.85142">
        <ele>1382</ele>
        <time>2011-06-26T13:00:49Z</time>
      </trkpt>
      <trkpt lat="46.30299" lon="6.85135">
        <ele>1375</ele>
        <time>2011-06-26T13:00:59Z</time>
      </trkpt>
      <trkpt lat="46.30365" lon="6.85118">
        <ele>1366</ele>
        <time>2011-06-26T13:01:09Z</time>
      </trkpt>
      <trkpt lat="46.30444" lon="6.85107">
        <ele>1356</ele>
        <time>2011-06-26T13:01:19Z</time>
      </trkpt>
      <trkpt lat="46.30505" lon="6.85083">
        <ele>1347</ele>
        <time>2011-06-26T13:01:29Z</time>
      </trkpt>
      <trkpt lat="46.30575" lon="6.85075">
        <ele>1339</ele>
        <time>2011-06-26T13:01:39Z</time>
      </trkpt>
      <trkpt lat="46.30613" lon="6.85072">
        <ele>1334</ele>
        <time>2011-06-26T13:01:49Z</time>
      </trkpt>
      <trkpt lat="46.30613" lon="6.85071">
        <ele>1334</ele>
        <time>2011-06-26T13:02:00Z</time>
      </trkpt>
      <trkpt lat="46.30609" lon="6.85071">
        <ele>1332</ele>
        <time>2011-06-26T13:02:15Z</time>
      </trkpt>
      <trkpt lat="46.30606" lon="6.85076">
        <ele>1329</ele>
        <time>2011-06-26T13:02:28Z</time>
      </trkpt>
      <trkpt lat="46.30611" lon="6.85077">
        <ele>1335</ele>
        <time>2011-06-26T13:02:40Z</time>
      </trkpt>
      <trkpt lat="46.30631" lon="6.85077">
        <ele>1335</ele>
        <time>2011-06-26T13:02:50Z</time>
      </trkpt>
      <trkpt lat="46.30674" lon="6.85105">
        <ele>1335</ele>
        <time>2011-06-26T13:03:00Z</time>
      </trkpt>
      <trkpt lat="46.30743" lon="6.85134">
        <ele>1331</ele>
        <time>2011-06-26T13:03:10Z</time>
      </trkpt>
      <trkpt lat="46.30819" lon="6.85187">
        <ele>1324</ele>
        <time>2011-06-26T13:03:20Z</time>
      </trkpt>
      <trkpt lat="46.30919" lon="6.85238">
        <ele>1315</ele>
        <time>2011-06-26T13:03:30Z</time>
      </trkpt>
      <trkpt lat="46.3102" lon="6.85299">
        <ele>1306</ele>
        <time>2011-06-26T13:03:40Z</time>
      </trkpt>
      <trkpt lat="46.31067" lon="6.85423">
        <ele>1301</ele>
        <time>2011-06-26T13:03:50Z</time>
      </trkpt>
      <trkpt lat="46.31063" lon="6.85337">
        <ele>1292</ele>
        <time>2011-06-26T13:04:00Z</time>
      </trkpt>
      <trkpt lat="46.31005" lon="6.8521">
        <ele>1282</ele>
        <time>2011-06-26T13:04:10Z</time>
      </trkpt>
      <trkpt lat="46.30911" lon="6.85123">
        <ele>1276</ele>
        <time>2011-06-26T13:04:20Z</time>
      </trkpt>
      <trkpt lat="46.30873" lon="6.85026">
        <ele>1266</ele>
        <time>2011-06-26T13:04:30Z</time>
      </trkpt>
      <trkpt lat="46.3095" lon="6.85044">
        <ele>1257</ele>
        <time>2011-06-26T13:04:40Z</time>
      </trkpt>
      <trkpt lat="46.31056" lon="6.85058">
        <ele>1244</ele>
        <time>2011-06-26T13:04:50Z</time>
      </trkpt>
      <trkpt lat="46.31136" lon="6.85063">
        <ele>1238</ele>
        <time>2011-06-26T13:05:00Z</time>
      </trkpt>
      <trkpt lat="46.31234" lon="6.85028">
        <ele>1238</ele>
        <time>2011-06-26T13:05:11Z</time>
      </trkpt>
      <trkpt lat="46.31326" lon="6.85001">
        <ele>1235</ele>
        <time>2011-06-26T13:05:21Z</time>
      </trkpt>
      <trkpt lat="46.31282" lon="6.85048">
        <ele>1228</ele>
        <time>2011-06-26T13:05:31Z</time>
      </trkpt>
      <trkpt lat="46.31196" lon="6.85147">
        <ele>1228</ele>
        <time>2011-06-26T13:05:41Z</time>
      </trkpt>
      <trkpt lat="46.31229" lon="6.85262">
        <ele>1219</ele>
        <time>2011-06-26T13:05:51Z</time>
      </trkpt>
      <trkpt lat="46.31296" lon="6.85355">
        <ele>1209</ele>
        <time>2011-06-26T13:06:01Z</time>
      </trkpt>
      <trkpt lat="46.31321" lon="6.85468">
        <ele>1196</ele>
        <time>2011-06-26T13:06:11Z</time>
      </trkpt>
      <trkpt lat="46.31337" lon="6.85612">
        <ele>1185</ele>
        <time>2011-06-26T13:06:21Z</time>
      </trkpt>
      <trkpt lat="46.31345" lon="6.85753">
        <ele>1178</ele>
        <time>2011-06-26T13:06:31Z</time>
      </trkpt>
      <trkpt lat="46.31342" lon="6.85872">
        <ele>1177</ele>
        <time>2011-06-26T13:06:41Z</time>
      </trkpt>
      <trkpt lat="46.31336" lon="6.85968">
        <ele>1174</ele>
        <time>2011-06-26T13:06:51Z</time>
      </trkpt>
      <trkpt lat="46.31345" lon="6.86066">
        <ele>1174</ele>
        <time>2011-06-26T13:07:01Z</time>
      </trkpt>
      <trkpt lat="46.31357" lon="6.86151">
        <ele>1174</ele>
        <time>2011-06-26T13:07:11Z</time>
      </trkpt>
      <trkpt lat="46.31382" lon="6.86237">
        <ele>1170</ele>
        <time>2011-06-26T13:07:21Z</time>
      </trkpt>
      <trkpt lat="46.31407" lon="6.86362">
        <ele>1159</ele>
        <time>2011-06-26T13:07:31Z</time>
      </trkpt>
      <trkpt lat="46.31437" lon="6.86494">
        <ele>1154</ele>
        <time>2011-06-26T13:07:41Z</time>
      </trkpt>
      <trkpt lat="46.31445" lon="6.86621">
        <ele>1147</ele>
        <time>2011-06-26T13:07:52Z</time>
      </trkpt>
      <trkpt lat="46.31438" lon="6.86701">
        <ele>1147</ele>
        <time>2011-06-26T13:08:02Z</time>
      </trkpt>
      <trkpt lat="46.31449" lon="6.86744">
        <ele>1147</ele>
        <time>2011-06-26T13:08:13Z</time>
      </trkpt>
      <trkpt lat="46.31458" lon="6.86761">
        <ele>1147</ele>
        <time>2011-06-26T13:08:23Z</time>
      </trkpt>
      <trkpt lat="46.31468" lon="6.86773">
        <ele>1147</ele>
        <time>2011-06-26T13:08:34Z</time>
      </trkpt>
    </trkseg>
  </trk>
</gpx>